GFSSE_con_mucape_000.txt.gz
CAPE
589 540 1052 1375 1257 1243 1224 1353 1405 1456 1546 1625 1690 1551 1439 1425 1446 1455 1398 1470 1521 1378 1348 1522 1870 1720 1564 2034 2481 2147 2050 2149 1435 1435 1310 1183 1343 1689 1579 1958 1552 895 997
741 636 1207 1339 1404 1402 1454 1553 1695 1847 1822 1764 1670 1659 1655 1680 1637 1366 1388 1487 1623 1541 1679 1725 1964 2133 2291 2503 2291 2160 2321 2165 2261 1752 1652 1686 1387 1468 1519 1711 1607 715 732
715 766 1013 1401 1540 1517 1601 1951 2047 2092 2036 1843 1791 1707 1751 1706 1540 1426 1426 1509 1471 1500 1661 1747 1878 1963 1819 1968 1737 1926 2020 2166 1920 2038 2127 993 836 1378 1132 1166 1780 1704 1398
1009 1103 1233 1500 1652 1758 1877 1899 1962 1961 1893 1889 1913 1905 1736 1662 1481 1311 1196 1466 1311 1296 1334 1379 1259 1869 1748 1514 1593 1591 1632 1742 1862 1920 1370 643 1046 1128 1334 1592 1845 1949 1531
1496 1398 1642 1796 1755 1937 2169 2110 1994 2193 2121 2109 2078 1917 1651 1340 1069 967 1036 1155 944 927 1005 1064 949 825 880 1169 1333 1532 1580 1647 1646 1329 997 1007 654 378 717 1300 1651 1849 1584
1186 1451 1485 1621 1817 2137 2155 2117 2097 1963 1948 1967 1938 1721 1419 1165 918 805 773 528 391 351 479 580 683 895 1053 1161 1207 1122 1183 1358 1496 822 486 837 325 161 832 1209 1752 1777 1551
969 1340 1495 1484 1668 1837 1897 1843 1873 1816 1750 1651 1464 1309 1195 982 637 464 354 264 166 125 109 106 104 192 335 475 586 780 960 1022 762 469 801 517 103 213 672 769 1014 1114 1164
591 1014 1062 1457 1497 1523 1540 1505 1452 1404 1434 1466 1361 989 967 705 464 349 247 158 75 58 38 13 2 6 38 92 167 382 450 535 357 543 937 760 404 252 566 881 992 736 394
206 231 535 737 913 1042 1016 1116 1132 1218 1228 1028 935 852 752 621 392 189 117 52 7 0 0 0 0 0 0 3 29 99 137 232 160 282 360 440 1004 870 798 1170 1029 682 411
272 372 555 643 600 546 618 843 1044 1051 983 877 746 657 711 554 374 142 136 7 0 0 0 0 0 0 0 0 0 0 0 17 115 225 218 278 684 738 778 905 770 971 699
160 601 627 621 762 1022 559 568 833 972 931 798 795 588 434 692 426 213 38 47 9 0 0 0 0 0 0 0 0 0 0 0 0 0 177 246 199 429 615 548 585 550 751
388 475 1119 936 933 442 88 484 980 626 818 911 832 889 951 731 559 219 283 192 181 125 65 0 0 0 0 0 0 0 0 0 0 0 0 0 0 14 248 423 433 456 431
430 562 1260 1502 1215 842 434 479 544 570 614 1203 1169 900 921 765 1075 775 717 365 294 160 231 2 0 0 0 0 0 0 0 0 0 0 0 0 0 0 0 33 102 205 279
365 436 1424 1402 1438 908 886 389 661 570 536 607 723 887 990 797 760 372 204 12 4 9 18 29 0 0 0 0 0 0 0 0 0 0 0 0 0 0 0 0 0 0 26
446 503 1068 1372 1297 1512 798 1222 1157 894 866 602 696 693 606 483 589 377 144 53 34 12 6 12 0 0 0 0 0 0 0 0 0 0 0 0 0 0 0 0 0 0 0
349 786 1414 1506 1338 790 687 799 1239 944 670 771 291 86 212 278 352 264 113 109 57 36 33 7 0 2 0 0 0 0 0 0 0 0 0 0 0 0 0 0 0 0 0
146 282 1365 1547 746 402 527 733 753 88 21 102 92 84 81 133 168 261 173 151 164 179 112 70 93 51 58 3 0 0 0 0 0 0 0 0 0 0 0 0 0 0 0
390 214 419 1094 829 313 547 172 219 250 182 124 203 178 119 117 149 202 184 196 225 304 176 167 127 88 73 64 51 12 0 0 0 0 0 0 0 0 0 0 24 0 0
115 379 807 633 482 61 196 176 193 166 146 87 29 85 38 31 157 127 110 182 235 186 157 207 171 159 171 156 145 87 46 44 29 0 0 0 0 0 0 0 1 0 0
319 208 664 555 73 62 146 179 44 34 60 57 26 0 0 12 16 63 49 121 259 172 113 164 262 148 154 151 144 125 144 92 44 47 35 0 0 0 0 0 0 0 0
396 200 488 345 271 145 165 22 0 0 0 0 0 0 0 2 0 0 0 0 0 0 33 54 38 36 40 127 142 142 103 127 240 164 72 88 36 0 0 0 0 0 0
417 197 244 72 43 47 47 5 0 0 0 0 0 0 0 0 0 0 0 0 0 0 0 21 72 15 0 0 64 64 6 0 53 101 146 164 57 31 0 3 7 1 0
138 123 77 66 68 63 35 2 0 0 0 0 0 0 0 0 0 0 0 0 0 0 0 0 2 2 3 0 0 35 10 6 2 7 29 65 94 118 55 12 0 6 20
5 5 20 9 7 12 8 0 0 0 0 0 0 0 0 0 0 0 0 0 0 0 0 0 0 3 0 0 0 0 0 7 0 0 4 5 8 100 105 74 51 4 27
0 4 0 0 0 0 0 0 0 0 0 0 0 0 0 0 0 0 0 0 0 0 0 1 5 22 13 4 3 1 6 20 20 11 0 0 0 29 71 92 51 4 0
0 0 0 0 0 0 0 0 1 0 0 0 0 0 0 0 0 0 0 0 0 0 6 21 15 21 19 18 22 12 5 0 3 0 0 0 0 0 0 3 33 22 10

GFSSE_con_mucape_003.txt.gz
CAPE
423 774 946 1059 1077 1090 1135 1160 1166 1274 1424 1412 1296 1260 1341 1351 1355 1348 1422 1533 1639 1587 1614 1776 1994 2042 2194 2323 2210 2402 2511 2309 2205 1692 1598 1915 1927 1851 1768 1843 1418 763 1152
526 826 903 1047 1179 1259 1429 1472 1444 1445 1436 1494 1468 1505 1556 1538 1449 1356 1312 1476 1606 1346 1453 1616 1827 1862 1856 1945 1976 2430 2444 2352 2189 2076 1983 1701 1592 1435 1270 1727 1081 699 1139
717 868 974 1007 1212 1510 1750 1739 1788 1707 1701 1654 1613 1697 1659 1436 1249 1101 1218 1504 1377 1235 1378 1326 1534 1788 1627 1511 1689 2005 2116 2111 1947 1793 1865 1238 652 1559 1204 1127 1238 1636 1592
857 1022 1070 1087 1285 1559 1608 1658 1735 1826 1842 1841 1876 1747 1466 1220 999 908 1044 1310 1019 930 1020 932 858 801 875 1097 1315 1744 1986 1948 1920 1782 1227 921 1138 946 503 1391 978 1282 1316
1366 1450 1345 1237 1442 1631 1667 1719 1802 1839 1885 1855 1849 1300 1072 973 851 889 800 832 441 443 587 672 736 840 1002 1170 1321 1408 1419 1591 1540 1379 903 783 578 495 697 1116 1529 1513 1168
1415 1596 1699 1649 1674 1654 1732 1741 1648 1609 1540 1638 1490 1040 1039 834 725 543 355 202 127 128 157 147 130 218 504 734 835 947 1136 1139 1064 596 641 728 598 649 633 943 1417 1277 1398
1380 1537 1647 1697 1659 1715 1838 1744 1557 1467 1399 1379 1371 1316 911 605 427 324 221 104 49 45 32 17 0 5 49 242 286 458 482 471 477 432 797 738 440 304 896 617 783 1169 1056
1326 1355 1434 1357 1270 1284 1353 1292 1188 1229 1285 1227 1166 1082 768 548 452 226 131 41 11 2 0 0 0 0 0 4 92 167 98 141 90 561 716 610 509 397 326 738 1102 1129 758
996 944 966 984 933 807 846 869 908 963 940 913 914 916 791 576 387 281 145 17 0 0 0 0 0 0 0 0 17 44 11 30 0 122 698 647 831 779 794 1089 1770 1359 1184
484 574 559 455 409 418 588 655 698 749 678 575 615 659 555 444 209 225 119 46 0 0 0 0 0 0 0 0 0 0 0 20 8 36 232 435 1340 1082 1049 1141 1505 1696 1588
292 482 433 578 678 252 325 619 666 733 642 503 550 480 413 416 214 105 84 63 75 23 7 0 0 0 0 0 0 0 0 0 0 0 99 433 480 471 730 800 1018 1107 1051
207 418 512 627 829 370 241 309 308 500 517 519 568 448 448 490 479 149 142 159 172 124 170 108 63 0 0 0 0 0 0 0 0 0 11 40 89 47 215 671 823 813 802
125 404 415 292 163 294 240 395 459 513 630 701 630 474 542 256 416 210 346 265 198 160 137 107 33 0 0 0 0 0 0 0 0 0 0 1 2 0 0 56 423 587 742
167 691 613 638 403 185 1 160 510 486 699 670 766 587 505 252 37 38 0 0 15 71 137 129 37 7 0 0 0 0 0 0 0 0 0 0 0 0 0 22 85 112 188
256 853 806 676 552 411 346 288 213 238 214 242 495 327 165 144 37 36 42 2 0 2 0 2 0 0 0 0 0 0 0 0 0 0 0 0 0 0 0 0 0 3 52
164 1003 905 735 868 577 198 477 478 296 178 325 99 50 88 30 104 68 45 41 19 44 49 10 0 0 4 0 0 0 0 0 0 0 0 0 0 0 0 0 0 0 8
157 897 688 689 729 412 260 310 672 172 1 10 5 0 11 33 48 38 48 45 36 82 126 65 51 43 24 17 35 14 0 0 0 0 0 0 0 0 0 3 0 0 26
456 1079 902 263 586 193 208 166 87 68 28 35 35 25 14 17 0 0 0 0 19 38 39 20 25 78 91 71 50 56 48 22 2 0 0 0 0 0 0 0 21 48 71
47 821 988 476 301 142 54 86 101 102 39 17 14 10 16 0 0 0 0 0 0 0 0 0 7 9 5 5 11 22 60 60 95 92 73 29 0 0 0 0 0 22 108
89 377 574 384 176 30 79 116 51 70 3 1 0 0 0 0 0 0 0 0 0 0 0 0 0 0 0 8 26 14 66 81 119 86 93 71 54 45 13 0 0 0 26
203 222 165 83 19 54 102 142 54 18 3 0 0 0 0 0 0 0 0 0 0 0 0 0 0 0 0 0 0 0 0 0 0 10 44 105 125 86 35 40 26 0 0
156 193 137 115 82 39 48 50 39 10 1 0 0 0 0 0 0 0 0 0 0 0 0 0 0 0 0 0 0 0 0 0 0 0 15 71 89 41 68 63 40 23 3
88 141 165 147 109 83 57 42 29 8 4 0 0 0 0 0 0 0 0 0 0 0 0 0 0 0 0 0 0 0 0 0 0 0 0 0 0 28 60 72 70 47 30
2 0 2 11 24 8 3 0 0 0 0 0 0 2 0 0 0 0 0 0 0 0 0 0 0 0 0 0 0 1 25 27 21 6 0 0 0 32 58 83 88 85 41
0 0 0 0 0 0 0 0 0 0 0 0 0 0 0 0 0 0 0 0 0 0 0 0 0 0 0 8 15 24 39 28 10 6 1 0 0 0 2 13 86 83 53
0 0 0 0 0 0 0 0 0 0 0 0 0 0 0 0 0 0 0 0 0 0 0 0 0 2 6 16 32 6 20 13 4 2 0 0 0 0 0 0 0 31 72

GFSSE_con_mucape_006.txt.gz
CAPE
605 668 756 969 1039 1018 964 972 1106 1106 1046 1030 1129 1130 1104 1036 1066 1162 1246 1368 1358 1281 1218 1379 1401 1562 2022 2040 1946 1863 2018 2140 2052 1638 1608 1892 1264 1143 1543 1848 1142 1065 1497
679 639 739 962 1120 1213 1141 1111 1178 1181 1235 1186 1328 1253 1282 1100 891 817 943 1085 1118 1017 1031 1131 1328 1351 1340 1261 1351 1544 1711 1775 1678 1629 1518 1286 1225 1106 1283 1324 1058 1095 1474
690 674 744 963 1322 1456 1454 1433 1421 1462 1419 1303 1229 1170 1025 861 684 728 842 968 833 750 649 695 721 677 804 951 1070 1275 1388 1594 1518 1427 1362 800 668 1171 1004 874 1035 1300 1564
696 711 750 1095 1349 1483 1534 1606 1548 1543 1459 1458 1249 1104 932 712 670 649 610 829 504 422 437 552 657 668 705 797 848 898 996 1227 1226 1252 643 728 1208 819 549 1276 1343 1258 1342
782 813 938 1111 1255 1380 1458 1583 1613 1644 1615 1455 1219 964 781 666 570 387 322 313 173 180 168 171 202 275 425 538 630 723 764 810 897 556 459 628 533 500 894 1205 1230 1446 1287
1085 1003 1115 1258 1314 1434 1505 1470 1463 1421 1362 1178 1038 890 678 540 354 220 122 54 36 26 39 26 17 18 61 147 193 198 228 333 506 303 405 634 489 833 884 1131 1321 1311 1374
1249 1200 1419 1329 1398 1480 1529 1409 1298 1250 1190 1219 1206 944 533 384 243 126 66 18 3 0 3 0 0 0 0 2 18 59 93 88 7 18 491 632 609 466 744 955 692 1133 1291
2009 1951 1531 1501 1452 1434 1373 1183 1031 991 1051 1104 1073 889 489 332 275 112 35 3 0 0 0 0 0 0 0 0 0 35 16 32 0 0 387 544 471 798 487 922 1221 1219 1193
1460 1392 1257 1130 1067 975 868 771 816 939 882 924 934 769 570 333 303 160 58 0 0 0 0 0 0 0 0 0 0 0 0 1 0 40 185 455 410 1117 916 640 1172 1425 1516
935 924 833 723 603 597 620 659 637 572 518 581 617 461 277 161 130 153 77 35 4 0 0 0 0 0 0 0 0 0 0 0 0 0 0 145 1104 1354 1294 1245 1690 1725 1794
483 451 384 289 240 343 413 487 613 575 424 371 428 401 235 154 8 15 72 20 99 21 24 35 50 8 0 0 0 0 0 0 0 0 0 29 675 704 739 783 964 1262 1254
386 315 443 308 96 158 308 420 250 339 236 247 284 370 348 320 299 134 118 182 165 106 137 185 165 125 49 0 0 0 0 0 0 0 0 15 264 395 105 117 738 931 960
492 520 579 540 273 44 135 59 165 267 356 400 556 517 498 530 319 386 210 180 155 80 83 85 68 34 9 0 0 0 0 0 0 0 0 0 84 61 71 24 6 334 719
527 557 621 722 480 284 151 146 198 418 549 632 628 442 324 201 6 9 0 8 0 0 4 48 55 35 0 0 0 0 0 0 0 0 0 0 34 61 44 0 0 90 236
485 433 380 288 310 220 101 359 461 498 710 768 754 498 145 72 7 9 6 1 0 0 5 8 9 1 0 0 0 0 0 0 0 0 0 0 24 65 48 1 0 0 11
588 598 573 333 378 252 293 254 304 261 217 492 476 183 35 15 74 46 15 4 0 11 13 6 1 0 0 0 0 0 0 0 3 7 7 0 11 50 83 8 0 5 0
662 785 664 787 678 179 418 458 274 137 58 167 130 42 33 24 56 40 1 0 0 0 0 0 0 0 0 0 0 0 0 0 0 0 0 0 0 1 6 47 121 117 53
823 992 760 563 407 216 194 353 579 56 24 31 45 36 47 36 54 18 10 0 0 0 0 0 0 0 0 0 0 0 0 0 0 0 3 4 0 0 0 11 48 111 163
992 1070 777 521 360 208 132 111 101 107 88 62 31 16 23 45 18 10 8 6 0 0 0 0 0 0 0 0 0 0 0 0 0 0 7 27 11 16 20 2 3 34 102
1033 998 828 561 311 152 149 101 111 126 41 15 6 0 1 2 6 0 0 0 0 0 0 0 0 0 0 0 0 0 0 0 0 0 0 0 0 9 25 26 19 2 6
978 856 332 299 209 87 46 86 101 34 26 16 9 9 3 3 1 0 0 0 0 0 0 0 0 0 0 0 0 0 0 0 0 0 0 0 0 7 28 46 39 44 7
232 149 76 28 18 19 43 44 42 40 34 31 8 7 0 0 0 0 0 0 0 0 0 0 0 0 0 0 0 0 0 0 0 0 0 0 0 0 0 37 54 72 80
130 63 23 18 38 54 49 49 46 44 22 6 0 0 0 0 0 0 0 0 0 0 0 0 0 0 0 0 0 0 0 0 0 0 0 0 0 0 0 0 1 4 25
0 0 0 0 0 0 0 0 0 0 0 0 0 0 0 0 0 0 0 0 0 0 0 0 0 0 0 0 0 0 5 9 0 0 0 0 0 0 0 0 0 2 12
0 0 0 0 0 0 0 0 0 0 0 0 0 0 0 0 0 0 2 6 4 0 0 0 0 0 0 1 0 1 1 1 6 0 0 0 0 0 0 0 0 0 3
0 0 0 0 0 0 0 0 0 0 0 0 0 0 0 2 1 0 0 0 0 0 0 0 0 0 0 4 11 12 7 9 4 4 0 0 0 0 0 0 0 0 0

GFSSE_con_mucape_009.txt.gz
CAPE
564 629 773 1063 953 949 989 953 871 827 876 853 751 790 793 758 782 926 1022 1155 1162 858 892 914 927 1015 1071 1181 1345 1445 1458 1521 1600 1492 1352 1490 1082 808 1351 1689 837 1233 1443
561 613 764 987 1026 1035 1101 1072 992 988 1086 872 869 885 817 691 663 706 725 710 587 421 454 546 629 765 752 760 921 1044 1145 1366 1291 1285 1073 983 1078 1222 1099 1426 1273 1257 1516
555 597 731 996 1135 1126 1229 1234 1216 1231 1014 1004 971 897 756 617 615 622 556 452 268 255 266 335 383 384 364 438 549 772 860 942 1191 1267 1245 457 535 1170 1154 1606 1060 1337 1460
553 597 853 1105 1281 1331 1319 1368 1384 1202 1137 1097 1005 898 688 610 487 415 347 454 218 181 137 106 115 136 177 269 382 520 571 583 676 872 204 321 956 966 541 973 1339 1126 1280
569 688 1064 1132 1276 1436 1473 1517 1456 1461 1411 1241 1054 812 651 520 330 198 157 170 84 56 30 18 5 5 12 23 29 30 47 100 411 118 140 267 418 467 764 809 1031 1303 1420
717 895 974 1036 1199 1432 1508 1504 1467 1394 1101 1024 1007 686 588 414 236 103 58 21 8 3 0 0 0 0 0 0 0 0 0 0 2 3 130 294 515 579 982 832 1173 1237 1359
819 941 981 1045 1176 1311 1403 1331 1316 1129 981 1027 915 701 517 368 192 68 20 4 0 0 0 0 0 0 0 0 0 0 1 8 0 0 0 265 344 615 807 873 973 980 1333
1089 1243 1132 1133 1132 1191 1246 1092 1006 939 989 1027 937 679 459 342 239 81 8 0 0 0 0 0 0 0 0 0 0 0 0 0 0 0 3 280 319 816 1069 634 1105 1268 1353
2019 1917 1294 1262 1214 1120 944 763 653 705 800 843 806 699 528 359 203 141 27 0 0 0 0 0 0 0 0 0 0 0 0 0 0 0 0 0 397 981 1285 1080 1290 1286 1321
1582 1586 1370 1218 1125 862 661 570 562 546 533 642 621 420 184 95 87 97 32 18 14 0 0 1 0 0 0 0 0 0 0 0 0 0 0 0 405 927 843 997 1096 1301 1674
1129 1002 889 750 587 448 397 424 513 502 411 408 396 281 117 24 11 18 73 57 90 70 40 83 110 111 52 22 0 0 0 0 0 0 0 0 279 620 675 648 952 930 1037
609 612 463 349 268 228 320 367 208 229 159 155 205 204 185 205 196 123 97 154 246 228 255 242 280 230 202 27 0 0 0 0 0 0 0 0 0 69 433 405 475 508 719
142 195 139 80 75 120 182 176 88 158 143 198 330 336 355 361 318 226 269 110 82 80 37 54 72 68 47 14 13 0 0 0 0 0 0 0 0 40 131 114 380 45 338
183 272 260 167 39 7 98 48 87 142 292 316 459 525 425 300 53 11 0 0 0 0 0 0 0 0 0 0 0 0 0 0 0 0 0 0 0 0 1 0 46 133 177
390 427 469 419 169 115 101 182 254 296 479 535 530 491 367 107 6 0 0 0 0 0 0 0 0 0 0 0 0 0 0 0 0 0 0 0 0 0 0 19 50 40 103
482 564 560 627 473 335 263 247 307 406 548 707 657 544 347 38 33 0 0 0 0 0 0 0 0 0 0 0 0 0 0 0 0 0 0 0 0 0 10 24 45 80 67
500 648 506 552 329 303 338 341 344 475 367 675 696 529 51 4 14 9 9 0 0 0 0 0 0 0 0 0 0 0 0 0 0 0 0 0 0 0 0 0 39 209 205
545 630 581 335 199 123 382 385 320 143 47 199 226 91 13 14 32 33 25 0 0 0 0 0 0 0 0 0 0 0 0 0 0 0 0 0 0 0 0 0 0 0 9
614 703 413 263 95 47 136 347 390 42 21 14 24 29 29 28 35 16 0 1 0 0 0 0 0 0 0 0 0 0 0 0 0 0 0 0 0 0 0 0 0 0 0
699 794 433 163 151 114 94 115 64 70 57 43 44 48 44 14 22 19 2 7 0 0 0 0 0 0 0 0 0 0 0 0 0 0 0 0 0 0 0 0 0 0 0
776 943 564 252 105 100 102 117 122 115 27 44 37 47 50 46 0 0 0 0 0 0 0 0 0 0 0 0 0 0 0 0 0 0 0 0 0 0 0 0 0 0 0
771 445 171 136 88 74 133 105 72 33 31 23 30 19 5 0 0 0 0 0 0 0 0 0 0 0 0 0 0 0 0 0 0 0 0 0 0 0 0 0 0 0 0
104 26 19 10 78 104 70 12 0 0 0 0 0 0 0 0 0 0 0 0 0 0 0 0 0 0 0 0 0 0 0 0 0 0 0 0 0 0 0 0 0 0 0
0 0 0 0 0 0 0 0 0 0 0 0 0 0 0 0 0 0 0 0 0 0 0 0 0 0 0 0 0 0 0 0 0 0 0 0 0 0 0 0 0 0 0
0 0 0 0 0 0 0 0 0 0 0 0 0 0 0 0 0 0 0 1 0 0 0 0 0 0 0 0 0 0 0 0 13 0 0 0 0 0 0 0 0 0 0
0 0 0 0 0 0 0 0 0 0 0 0 0 0 1 1 0 0 5 7 0 0 0 0 0 0 0 0 0 0 0 0 0 26 0 0 0 0 0 0 0 0 0

GFSSE_con_mucape_012.txt.gz
CAPE
467 587 824 1041 1042 991 858 737 714 797 869 840 746 705 719 637 630 691 772 863 725 433 463 552 663 693 680 701 784 867 1009 991 1219 1283 1407 904 1053 977 1196 1276 1157 1193 1549
570 710 815 926 1045 1053 954 825 862 986 968 785 795 714 645 535 526 519 389 497 401 180 226 266 312 366 415 463 538 645 695 751 951 1004 976 562 693 921 849 1076 1093 1283 1499
649 745 718 845 1071 1172 1076 975 1161 1097 905 861 842 688 518 459 392 320 238 433 189 97 102 97 108 126 171 210 248 319 336 335 440 506 445 114 173 1183 1038 1125 962 1198 1320
633 702 779 919 1101 1191 1114 1173 1259 1157 1005 914 834 625 507 391 258 148 183 334 73 26 15 4 3 0 4 5 4 4 2 2 47 57 41 72 174 1032 850 731 964 1081 1187
606 827 980 1015 1095 1227 1280 1314 1304 1323 1251 1055 840 613 484 279 130 70 64 127 4 0 0 0 0 0 0 0 0 0 0 0 0 0 19 82 307 205 867 873 897 988 1179
741 881 1036 1056 1180 1380 1458 1456 1390 1285 1131 1056 853 585 422 242 68 23 6 0 0 0 0 0 0 0 0 0 0 0 0 0 0 0 0 41 193 519 1015 1223 993 933 1170
811 893 1011 1096 1215 1367 1487 1433 1323 1054 914 968 844 701 398 241 69 4 0 0 0 0 0 0 0 0 0 0 0 0 0 0 0 0 0 39 81 766 1071 1033 965 791 828
883 872 911 978 1036 1120 1263 1221 1020 893 902 892 795 656 402 296 152 0 0 0 0 0 0 0 0 0 0 0 0 0 0 0 0 0 0 0 99 797 1028 949 1268 930 751
1054 1076 928 944 946 985 967 881 788 781 816 793 716 629 499 285 127 34 23 10 0 0 17 18 47 33 2 6 14 8 0 0 0 0 0 0 93 567 768 577 1030 1294 1062
1688 1664 1822 1437 961 938 790 632 496 533 598 636 615 455 170 98 13 8 0 11 78 23 32 107 93 126 103 77 33 25 0 0 0 0 0 0 2 213 615 638 650 859 955
1609 1551 1800 1459 1164 891 545 436 528 530 487 466 438 323 103 0 0 0 23 71 138 160 191 205 242 235 184 47 9 22 10 0 0 0 0 0 0 0 13 352 829 696 693
1068 1379 1269 1033 803 465 329 356 240 178 178 197 192 218 119 94 86 92 78 67 102 182 231 246 262 235 97 1 0 0 0 0 0 0 0 0 0 0 0 109 633 588 427
675 738 750 542 309 186 247 196 26 94 62 172 249 230 225 245 241 173 154 25 0 0 0 0 0 0 0 0 0 0 0 0 0 0 0 0 0 0 0 0 166 336 377
367 419 377 230 95 51 79 74 0 65 83 226 382 365 381 321 142 11 0 0 0 0 0 0 0 0 0 0 0 0 0 0 0 0 0 0 0 0 0 0 5 249 375
128 186 132 33 0 0 2 30 57 130 268 327 444 491 333 196 17 0 0 0 0 0 0 0 0 0 0 0 0 0 0 0 0 0 0 0 0 0 0 0 0 0 36
141 202 246 75 6 0 35 111 177 303 428 533 584 547 420 164 83 7 9 14 0 0 0 0 0 0 0 0 0 0 0 0 0 0 0 0 0 0 0 0 0 0 0
307 361 427 369 335 161 246 231 238 336 560 664 719 643 402 45 25 34 25 28 15 0 0 0 0 0 0 0 0 0 0 0 0 0 0 0 0 0 0 0 0 0 0
384 504 559 493 449 96 39 256 280 397 282 239 401 167 56 30 24 37 40 38 7 0 0 0 0 0 0 0 0 0 0 0 0 0 0 0 0 0 0 0 0 0 0
367 523 569 330 87 37 13 187 144 151 49 44 96 46 46 28 32 24 13 3 0 0 0 0 0 0 0 0 0 0 0 0 0 0 0 0 0 0 0 0 0 0 0
368 539 522 282 119 126 53 108 109 91 41 37 42 36 20 28 22 3 1 0 0 0 0 0 0 0 0 0 0 0 0 0 0 0 0 0 0 0 0 0 0 0 0
440 606 304 178 169 80 64 69 52 44 37 13 0 0 17 2 5 0 0 0 0 0 0 0 0 0 0 0 0 0 0 0 0 0 0 0 0 0 0 0 0 0 0
430 246 69 64 37 32 36 53 1 0 0 0 0 0 0 0 0 0 0 0 0 0 0 0 0 0 0 0 0 0 0 0 0 0 0 0 0 0 0 0 0 0 0
72 29 9 0 0 5 0 0 0 0 0 0 0 0 0 0 0 0 0 0 0 0 0 0 0 0 0 0 0 0 0 0 0 0 0 0 0 0 0 0 0 0 0
0 0 0 0 0 0 0 0 0 0 0 0 0 0 0 0 0 0 0 0 0 0 0 0 0 0 0 0 0 0 0 0 0 0 0 0 0 0 0 0 0 0 0
0 0 0 0 0 0 0 0 0 0 0 0 0 0 0 0 0 0 0 1 0 0 0 0 0 0 0 0 0 0 0 0 0 0 0 0 0 0 0 0 0 0 0
0 0 0 0 0 0 0 0 0 0 0 0 0 0 0 0 0 0 0 0 0 0 0 0 2 0 0 0 0 0 0 0 0 0 0 0 0 0 0 0 0 0 0

GFSSE_con_mucape_015.txt.gz
CAPE
662 635 786 722 911 774 695 668 697 767 858 826 674 598 603 497 527 624 636 520 448 183 231 297 336 366 415 435 467 465 497 496 562 746 853 658 680 922 845 1087 1158 603 1401
810 820 751 771 991 818 770 762 835 939 923 647 566 507 554 437 384 382 452 436 370 124 144 165 133 119 123 138 134 125 133 179 237 306 345 301 368 1064 970 1172 1265 844 1288
965 1006 719 678 1041 912 886 1036 1138 1091 784 706 588 445 404 321 233 179 265 358 214 27 14 0 0 0 0 0 0 0 0 7 13 38 89 244 278 1066 964 1219 1326 1287 1049
1046 1015 712 722 1043 1024 1003 1221 1251 1068 876 782 575 449 334 215 148 141 120 252 100 0 0 0 0 0 0 0 0 0 0 0 0 0 30 152 486 455 895 806 687 732 820
1071 989 811 830 1027 1112 1237 1353 1337 1272 1160 981 706 456 276 108 59 45 71 114 1 0 0 0 0 0 0 0 0 0 0 0 0 0 8 357 497 575 850 897 649 622 849
917 952 755 845 1069 1287 1415 1499 1414 1251 1108 946 781 523 274 80 15 2 24 15 0 0 0 0 0 0 0 0 0 0 0 0 0 0 8 295 517 814 1001 1019 1039 667 801
1030 1065 986 1005 1108 1421 1685 1573 1351 1123 1013 902 830 685 381 110 2 0 0 0 0 0 0 0 0 0 0 2 0 0 0 0 0 0 0 5 363 796 850 695 1054 895 680
1029 1333 1324 1107 1254 1442 1494 1297 971 885 915 802 772 654 356 188 75 7 0 0 0 0 0 0 0 0 0 0 0 5 0 0 0 0 0 0 68 420 758 579 1145 1221 974
1160 1174 1323 1438 1271 1136 1078 989 796 781 772 729 655 595 450 212 77 112 116 47 0 67 114 85 60 68 27 49 10 0 0 0 0 0 0 0 0 36 395 653 769 808 723
1169 1237 1212 1215 1132 1198 1209 858 726 646 601 597 533 393 166 50 8 32 0 82 161 170 143 173 211 223 173 79 41 11 0 0 0 0 0 0 0 0 0 39 444 471 442
1502 1699 1057 802 1014 1079 979 744 533 538 492 466 443 215 48 85 125 112 44 70 178 170 260 311 288 258 197 21 0 9 0 0 0 0 0 0 0 0 0 30 596 768 642
1154 1211 1392 1543 1520 945 657 617 523 369 336 337 383 478 256 255 272 228 159 51 39 69 71 19 38 35 6 34 0 0 0 0 0 0 0 0 0 0 0 33 156 327 440
918 1208 1056 1152 913 692 547 517 297 259 234 313 463 467 450 461 484 407 395 104 52 0 0 0 7 2 0 0 0 0 0 0 0 0 0 0 0 0 0 0 3 87 300
717 830 828 781 531 391 324 340 145 186 263 374 501 509 577 580 318 132 15 3 0 0 0 0 0 0 0 0 0 0 0 0 0 0 0 0 0 0 0 0 0 0 0
554 639 641 374 239 177 165 174 154 281 385 474 599 660 511 335 102 26 2 0 0 1 0 0 0 0 0 0 0 0 0 0 0 0 0 0 0 0 0 0 0 0 0
312 439 311 229 70 39 94 158 216 268 261 316 355 386 341 250 69 13 4 4 14 18 2 0 0 0 0 0 0 0 0 0 0 0 0 0 0 0 0 0 0 0 0
299 344 332 113 34 53 109 101 133 282 303 344 309 242 298 122 33 45 35 27 27 22 0 0 0 0 0 0 0 0 0 0 0 0 0 0 0 0 0 0 0 0 0
359 508 364 349 287 126 34 8 10 190 92 163 120 77 39 33 30 20 16 4 2 0 8 3 0 0 0 0 0 0 0 0 0 0 0 0 0 0 0 0 0 0 0
447 363 500 391 269 108 44 21 44 136 84 64 42 17 18 17 5 6 0 2 5 0 0 0 0 0 0 0 0 0 0 0 0 0 0 0 0 0 0 0 0 0 0
220 359 523 322 287 124 79 55 48 58 16 13 19 23 23 2 0 0 1 0 0 0 0 0 0 0 0 0 0 0 0 0 0 0 0 0 0 0 0 0 0 0 0
362 444 450 261 142 102 67 35 8 23 22 30 9 0 0 0 0 0 0 0 0 0 0 0 0 0 0 0 0 0 0 0 0 0 0 0 0 0 0 0 0 0 0
459 397 231 102 35 14 7 9 4 0 0 0 0 0 0 0 0 0 0 0 0 0 0 0 0 0 0 0 0 0 0 0 0 0 0 0 0 0 0 0 0 0 0
18 27 0 0 0 0 0 0 0 0 0 0 0 0 0 0 0 0 0 0 0 0 0 0 0 0 0 0 0 0 0 0 0 0 0 0 7 0 1 0 0 0 0
0 0 0 0 0 0 0 0 0 0 0 0 0 0 0 0 0 0 0 0 0 0 0 0 0 0 0 0 0 0 0 0 0 0 0 0 0 0 0 0 6 2 3
0 0 0 0 0 0 0 0 0 0 0 0 0 0 0 0 0 0 0 0 0 0 0 0 0 0 0 4 1 0 0 0 0 0 0 0 0 0 0 0 2 9 0
0 0 0 0 0 0 0 0 0 0 0 0 0 0 0 0 0 0 0 0 0 0 0 8 4 1 0 0 0 0 0 0 0 0 0 0 0 0 0 2 3 0 0

GFSSE_con_mucape_018.txt.gz
CAPE
677 559 823 907 880 776 687 691 745 821 869 742 572 524 504 437 416 447 449 431 394 196 246 290 284 275 224 202 164 148 145 164 254 325 405 354 685 865 929 781 1189 451 1156
761 513 670 886 890 799 794 836 908 954 899 562 467 450 420 337 328 412 419 398 255 43 16 2 1 0 0 0 0 0 1 1 36 65 220 319 1073 1010 911 837 1358 834 927
852 731 521 818 858 836 925 1052 1110 1010 710 553 420 382 270 201 200 167 299 269 26 0 0 0 0 0 0 0 0 0 0 0 0 0 94 161 383 899 940 860 908 709 736
1011 773 634 755 888 981 1143 1197 1230 1051 794 549 401 317 180 170 131 88 57 121 6 0 0 0 0 0 0 0 0 0 0 0 0 0 6 382 423 709 632 643 464 723 756
995 1032 962 808 927 1128 1087 1138 1199 1301 1100 796 603 308 141 103 56 22 10 36 0 0 0 0 0 0 0 0 0 0 0 0 0 0 0 270 540 719 740 557 618 652 506
1118 1107 659 741 878 1044 1235 1282 1491 1309 1014 839 700 419 113 42 7 0 0 18 0 0 0 0 0 0 0 0 0 0 0 0 0 0 1 57 401 842 850 728 718 531 447
967 1173 949 770 711 923 1025 1663 1410 1147 947 875 781 587 222 4 0 0 0 0 1 0 0 0 0 0 0 0 0 0 0 0 0 0 0 0 8 327 710 628 598 313 227
1108 1272 1085 683 730 961 1602 1318 1018 944 898 869 699 522 175 23 25 0 0 0 0 0 0 0 0 0 10 5 0 0 0 0 0 0 0 0 8 48 330 605 657 491 239
1369 1357 1129 889 954 1252 1146 886 738 812 772 739 683 592 359 181 210 129 50 0 0 12 15 46 62 111 124 58 1 0 0 0 0 0 0 0 0 0 0 5 326 379 200
1366 1377 1249 1340 1268 1232 1176 817 647 670 591 572 559 354 163 65 79 55 55 158 136 122 143 147 160 186 182 103 9 9 0 0 0 0 0 0 0 0 0 0 3 99 176
1199 1229 1248 1015 1076 1054 931 921 539 545 520 424 362 164 63 153 215 142 52 110 165 158 186 133 146 143 97 112 0 0 1 0 0 0 0 0 0 0 0 0 144 328 223
1052 1063 1154 1106 1140 1212 658 619 379 140 71 300 361 438 373 559 509 339 166 19 23 6 0 0 3 5 26 0 0 0 0 0 0 0 0 0 0 0 0 8 0 79 362
1064 1262 1526 1274 1289 832 544 341 74 128 352 652 771 775 852 847 838 427 182 102 114 0 16 1 0 0 0 0 0 0 0 0 0 0 0 0 0 0 0 21 28 47 60
912 871 1035 1159 1015 739 350 124 186 247 582 764 953 1113 1159 1027 795 378 108 137 135 57 6 0 0 0 0 0 0 0 0 0 0 0 0 0 0 0 0 0 0 0 1
511 687 934 801 729 583 371 347 451 704 773 1066 1084 1191 1161 949 782 281 262 109 22 8 13 4 0 0 0 0 0 0 0 0 0 0 0 0 0 0 0 0 0 0 0
413 768 864 585 486 364 533 663 814 852 760 834 983 913 394 420 654 434 166 14 24 40 31 12 0 0 0 0 0 0 0 0 0 0 0 0 0 0 0 0 0 0 0
410 774 810 693 522 643 359 73 16 15 185 264 270 219 135 39 51 21 22 26 34 35 11 0 0 0 0 0 0 0 0 0 0 0 0 0 0 0 0 0 0 0 0
527 860 975 715 678 113 19 1 35 1 33 88 60 62 42 28 18 20 22 2 0 0 0 0 0 0 0 0 0 0 0 0 0 0 0 0 0 0 0 0 0 0 0
786 1135 1081 942 604 365 61 24 34 23 36 35 17 38 22 16 11 1 0 0 0 0 0 0 0 0 0 0 0 0 0 0 0 0 13 2 0 0 0 0 0 0 0
962 1212 1181 745 524 199 70 45 43 20 16 13 0 0 0 0 0 0 0 0 0 0 0 0 0 0 0 1 0 0 0 0 0 2 15 1 0 2 0 0 0 0 0
1001 1095 1009 549 393 275 129 41 0 3 8 0 0 0 0 0 0 0 0 0 0 0 0 0 0 0 0 1 0 0 0 0 10 11 11 10 10 6 1 1 0 0 0
1001 966 867 640 355 121 51 46 43 13 0 0 0 0 0 0 0 0 0 0 0 0 0 0 0 0 1 19 9 2 0 0 0 17 10 3 7 12 12 7 7 3 1
827 874 654 277 36 12 3 0 0 0 0 0 0 0 0 0 0 0 0 0 0 0 0 1 0 1 2 7 10 3 0 0 0 0 7 3 8 6 7 5 4 0 0
303 16 0 0 0 0 0 0 0 0 0 0 0 0 0 0 0 0 0 0 0 0 1 6 1 0 0 0 0 0 1 2 0 0 3 18 0 0 0 1 8 0 0
0 0 0 0 0 0 0 0 0 0 0 0 0 0 0 0 0 0 0 0 0 3 5 0 0 0 0 10 0 0 0 0 0 7 0 2 2 4 6 8 5 10 6
0 0 0 0 0 0 0 0 0 0 0 0 0 0 0 0 0 0 2 9 12 11 9 0 0 4 6 1 0 0 2 2 5 0 0 10 6 1 14 15 17 21 15

GFSSE_con_mucape_021.txt.gz
CAPE
330 128 691 794 758 697 645 660 706 789 806 608 464 437 381 317 395 481 475 476 424 165 123 74 33 13 5 0 0 1 10 28 82 154 232 531 905 940 872 751 1039 387 923
339 144 623 810 792 750 779 802 863 890 718 455 418 350 329 392 404 391 380 305 102 0 0 0 0 0 0 0 0 0 0 0 0 34 238 633 844 924 845 689 737 510 642
508 192 315 773 851 876 935 1051 1079 841 495 390 362 246 212 205 187 141 212 179 3 0 0 0 0 0 0 0 0 0 0 0 0 0 191 431 615 661 458 955 774 691 651
560 190 245 761 929 1062 1162 1253 1163 767 491 394 289 198 187 146 93 47 11 84 0 0 0 0 0 0 0 0 0 0 0 0 0 188 10 0 456 525 367 576 488 431 524
674 408 431 782 986 1182 1064 1165 1128 1046 742 649 421 165 146 41 6 0 0 65 0 0 0 0 0 0 0 0 0 0 0 0 24 19 22 0 126 723 665 410 483 589 424
561 451 490 764 962 974 995 1286 1321 1005 809 685 543 176 26 0 0 0 3 27 0 0 0 0 0 0 0 0 0 0 0 0 0 0 1 36 48 567 646 375 238 99 336
390 447 577 640 721 890 1163 1277 1231 932 872 764 567 316 53 0 0 0 13 15 0 0 0 0 0 0 0 0 0 0 0 0 0 0 0 0 1 139 635 609 448 269 80
243 512 627 663 606 686 937 1167 989 861 845 751 597 335 18 6 0 0 0 0 18 18 6 0 13 61 63 42 23 0 0 11 0 0 0 0 2 0 0 76 420 289 123
88 702 812 620 585 737 877 715 707 742 740 706 621 435 155 136 117 64 43 38 34 48 70 98 122 152 169 97 19 18 13 40 0 0 0 0 0 0 0 0 7 71 100
47 880 1124 1076 918 1089 959 605 646 612 599 610 366 287 135 116 50 52 123 170 205 140 273 286 243 226 197 121 0 0 24 61 0 0 14 0 0 3 0 0 0 0 55
976 1124 1113 913 910 930 928 751 582 627 566 468 190 124 16 99 171 83 86 113 130 118 106 29 77 138 181 204 30 0 0 0 0 0 2 0 0 7 36 9 11 5 55
933 846 847 1042 890 843 545 546 207 35 5 261 238 144 323 324 468 242 139 106 63 0 31 0 33 130 110 0 0 3 0 0 0 0 0 0 0 21 104 85 96 116 113
804 908 972 1148 1165 591 437 220 36 56 404 631 669 639 708 474 553 478 290 214 290 17 197 83 61 42 8 0 0 0 0 0 0 0 0 0 0 0 0 0 0 1 0
786 1037 990 971 1023 529 238 89 92 329 574 539 703 864 894 1042 718 409 266 258 265 178 113 88 89 22 0 0 0 0 0 0 0 0 0 0 0 0 0 0 0 0 0
477 691 800 756 593 450 238 419 632 588 1085 1160 1047 1277 1242 987 1056 1003 960 582 300 151 109 75 44 1 0 0 0 0 0 0 0 0 0 0 0 0 0 0 0 0 0
386 632 565 461 376 279 602 833 931 747 694 875 1012 861 663 747 284 116 398 534 141 112 50 28 1 0 0 0 0 0 0 0 0 0 0 0 0 0 0 0 0 0 0
411 635 589 566 470 785 827 192 20 24 63 335 562 498 243 215 376 456 213 117 38 7 1 0 0 0 0 0 0 0 0 0 0 0 2 10 5 0 0 0 0 0 0
499 891 820 566 827 639 174 14 2 5 16 115 136 110 49 69 34 24 25 4 1 0 0 0 0 0 0 0 0 0 0 0 0 1 1 26 33 10 3 1 0 0 0
725 1223 1221 983 905 451 237 28 7 15 26 5 5 0 1 0 0 1 0 0 0 0 0 0 0 0 1 1 0 0 1 0 1 0 0 7 32 28 21 1 18 0 0
788 1380 1428 1219 752 622 230 95 110 109 89 10 1 0 0 0 0 0 0 0 0 0 0 0 0 0 0 3 0 0 1 0 0 0 6 20 14 14 24 15 9 15 33
1319 1613 1207 940 792 461 613 598 423 19 5 1 0 0 0 0 0 0 0 0 0 0 0 1 5 3 0 0 0 3 1 3 16 1 6 17 7 2 14 15 29 13 5
1342 1437 1198 940 810 787 670 345 102 144 14 0 0 0 0 0 0 0 0 0 0 0 0 0 0 0 0 1 1 0 0 0 0 0 0 0 31 8 13 19 3 7 11
1216 1066 953 851 769 437 256 66 27 0 0 0 0 0 0 0 0 0 0 0 0 0 0 0 2 6 1 1 2 4 0 0 0 2 3 2 45 12 21 0 7 6 10
1256 1190 838 501 212 45 2 0 0 12 40 0 0 0 0 0 0 0 0 0 0 0 0 2 1 8 5 8 16 12 26 32 0 0 1 4 24 12 70 16 12 6 1
392 258 100 5 0 0 0 0 0 0 0 0 0 0 0 0 0 0 0 0 2 3 4 12 21 20 20 38 32 34 13 0 1 10 0 8 10 15 20 40 25 19 12
2 0 0 0 0 0 0 0 0 0 0 0 0 3 6 0 0 0 0 0 0 2 12 23 35 26 43 46 20 24 25 19 19 25 24 31 58 18 19 20 70 45 46

GFSSE_con_mucape_024.txt.gz
CAPE
381 232 669 804 764 660 605 604 683 650 638 604 521 452 443 471 457 438 393 321 229 26 0 0 0 0 0 0 0 0 0 0 0 50 343 704 775 713 519 512 701 186 964
180 229 548 671 671 666 697 806 737 661 595 449 415 456 427 411 401 327 250 194 85 0 0 0 0 0 0 0 0 0 0 0 0 45 288 634 651 479 516 483 918 626 811
62 168 261 596 687 769 973 1014 829 643 498 302 288 386 366 302 241 242 161 73 19 0 0 0 0 0 0 0 0 0 0 37 118 279 163 311 257 329 560 759 797 689 950
83 107 223 656 806 1016 1062 1064 765 555 396 397 357 266 277 179 90 111 176 98 63 0 0 0 0 0 0 0 0 0 0 16 25 83 15 181 197 606 326 598 552 323 552
77 133 422 712 780 1009 1004 930 820 681 542 352 334 198 72 0 0 33 249 190 85 0 0 0 0 0 0 37 13 7 8 0 40 30 0 32 49 568 464 201 29 68 397
418 415 387 360 604 823 988 1007 829 682 518 368 302 237 41 0 55 85 283 230 32 0 0 0 0 0 132 112 91 51 44 46 18 2 0 20 44 566 537 465 657 462 353
192 145 350 385 500 792 1121 980 822 725 575 432 343 216 121 4 65 175 289 243 95 4 0 17 29 67 113 105 97 49 54 55 0 0 0 0 1 38 56 213 467 380 256
187 166 367 431 569 816 1041 825 706 644 554 472 327 203 161 168 223 247 236 219 203 178 150 76 149 189 166 92 43 0 3 49 0 3 0 0 119 26 0 21 411 441 442
99 166 291 373 602 647 624 544 534 530 519 539 390 285 296 299 250 269 303 293 268 278 267 269 258 267 260 177 48 0 0 4 0 3 3 3 63 45 0 0 104 294 411
157 126 296 478 771 596 480 417 418 432 448 420 306 165 143 152 165 235 310 289 219 172 219 174 160 151 189 139 95 33 0 0 0 0 0 5 160 66 92 9 2 215 472
81 266 330 488 761 639 494 423 438 452 401 304 132 67 23 34 59 136 161 140 72 45 70 0 0 55 171 187 179 151 42 0 0 0 0 64 175 154 184 179 200 235 213
70 349 487 653 748 709 417 251 130 71 57 43 0 90 249 596 173 88 164 112 148 42 66 25 66 111 156 0 0 14 0 0 0 0 0 56 12 22 25 22 32 15 7
328 705 861 798 850 426 309 368 80 20 479 719 709 775 829 674 457 324 387 132 171 72 193 31 106 37 28 3 0 0 0 0 0 0 0 0 0 0 0 0 0 0 0
733 882 844 846 990 455 224 166 205 416 733 699 859 936 1075 868 570 644 590 422 236 76 135 119 84 77 0 0 0 0 0 0 0 0 0 0 0 0 0 0 0 0 0
768 863 840 874 680 483 502 678 835 872 1083 1111 1253 1224 1072 970 723 440 453 97 246 90 35 24 11 0 0 0 0 0 0 0 0 0 0 0 0 0 0 0 0 0 0
645 634 653 605 542 562 735 827 552 446 472 745 785 665 465 456 97 58 185 73 52 41 18 1 1 0 0 0 0 0 0 0 0 0 0 0 0 0 0 0 0 0 0
511 479 538 491 408 919 636 415 59 31 91 525 495 562 331 135 175 64 51 48 13 3 0 0 0 0 0 0 0 0 0 0 0 0 0 0 3 25 8 1 0 0 0
415 437 464 384 890 690 398 25 9 7 51 120 65 90 68 65 30 18 19 4 0 0 0 0 0 0 0 0 0 0 0 0 0 0 0 0 7 17 23 16 4 0 0
663 581 638 875 753 443 202 99 35 60 33 23 1 7 6 0 0 0 0 0 0 0 0 0 0 0 0 0 0 0 0 0 0 0 0 0 0 26 33 22 31 9 0
1051 1048 900 989 490 397 154 46 117 203 146 5 8 1 0 0 0 0 0 0 0 0 0 0 0 0 0 0 0 0 0 0 0 0 0 7 7 15 10 1 5 2 44
1311 1373 1187 742 498 485 229 190 267 178 14 3 0 0 0 0 0 0 0 0 0 0 0 0 0 0 0 0 0 0 0 0 0 0 0 0 0 9 12 8 3 1 0
1573 1483 931 772 615 498 458 398 187 5 1 0 0 0 0 0 0 0 0 0 0 0 0 0 0 0 0 0 0 0 0 0 0 0 0 0 0 1 6 0 0 0 0
1450 1295 968 776 712 735 547 165 26 9 0 0 0 0 0 0 0 0 0 0 0 0 0 0 0 0 0 0 0 0 0 0 0 0 0 0 0 0 0 0 0 0 0
1096 954 964 764 738 311 138 9 1 0 0 0 0 0 0 0 0 0 0 0 0 0 0 0 0 0 0 0 0 0 0 0 0 0 0 0 0 0 0 0 0 0 0
1109 1167 906 491 195 96 0 0 0 0 0 0 0 0 0 0 0 0 0 0 0 0 0 0 0 0 0 0 3 0 0 0 0 0 0 0 0 0 0 4 16 2 0
659 462 171 79 8 0 0 0 0 0 0 0 0 0 0 0 0 0 0 0 0 0 0 0 6 7 5 3 11 4 0 0 0 0 0 0 0 0 0 0 2 0 3

GFSSE_con_mucape_030.txt.gz
CAPE
742 845 862 879 796 770 774 698 531 361 383 351 292 293 245 182 126 86 26 0 18 0 0 0 0 0 0 0 0 0 0 0 207 453 472 371 354 279 197 471 534 303 453
784 797 678 745 802 850 782 656 450 390 338 221 200 246 212 155 101 71 40 93 16 0 0 0 0 0 0 0 0 0 0 0 0 432 430 211 260 276 225 185 628 257 399
938 588 534 617 791 865 791 599 475 360 175 170 134 174 140 121 121 98 126 74 39 0 0 0 0 0 0 0 0 1 22 45 69 178 392 30 3 38 0 0 74 61 290
734 514 446 631 789 844 701 513 385 217 153 198 122 111 94 134 122 171 160 162 145 7 0 0 0 0 0 0 7 8 316 340 407 316 60 66 69 201 144 47 0 0 0
628 447 572 650 727 774 625 474 412 365 288 225 190 159 91 124 91 144 208 208 173 14 0 0 0 0 0 36 55 26 32 0 0 0 30 63 48 51 85 61 0 0 0
410 381 505 567 672 769 637 528 439 306 209 203 259 294 206 112 108 172 276 232 83 41 12 0 0 6 80 30 35 0 0 0 0 0 0 1 0 48 1 0 32 0 0
348 285 319 473 639 697 618 529 397 297 230 224 303 291 272 199 138 256 309 281 156 26 15 1 8 138 117 104 52 0 0 0 0 0 0 0 34 68 34 10 46 77 58
122 135 219 416 488 586 525 378 332 274 204 240 296 304 303 284 282 324 357 312 263 180 115 91 70 49 73 148 100 0 0 0 0 0 0 0 332 122 106 99 104 201 221
100 123 126 139 300 377 345 331 266 187 183 225 248 242 253 237 270 315 337 314 248 167 27 2 2 8 7 42 88 37 0 0 0 0 0 0 544 171 188 242 194 147 125
73 61 9 171 202 265 256 263 237 159 163 178 181 162 144 160 225 229 179 194 129 15 0 0 0 0 42 37 26 5 0 0 0 0 0 149 282 55 102 127 69 2 5
27 58 20 80 216 193 164 203 189 140 121 118 150 135 37 0 2 31 0 33 9 0 0 0 0 1 0 18 12 0 0 0 0 0 0 163 20 0 14 0 0 0 0
15 4 28 123 150 122 110 91 62 47 17 10 8 8 9 15 2 8 0 0 0 0 0 0 3 0 0 0 0 0 0 0 0 0 0 5 0 4 0 0 0 0 0
25 2 35 110 126 87 61 31 26 9 21 51 41 95 35 7 19 0 7 2 0 0 3 0 0 0 0 0 0 0 0 0 0 0 0 0 3 4 5 0 0 0 0
42 54 108 165 152 47 5 3 0 0 5 155 156 92 134 62 74 102 34 0 0 0 0 0 0 0 0 0 0 0 0 0 0 0 0 0 0 0 9 0 0 0 0
119 150 169 194 203 44 23 64 94 191 314 455 430 329 207 245 75 22 0 0 0 0 0 0 0 0 0 0 0 0 0 0 0 0 0 0 7 14 8 20 3 0 0
245 251 292 337 183 62 107 196 312 447 539 508 487 439 368 271 214 33 0 0 0 0 0 2 0 0 0 0 0 0 0 0 0 0 0 0 0 9 11 7 0 0 0
477 566 448 477 192 238 221 351 471 544 515 481 400 268 413 112 0 0 0 0 0 0 0 0 0 0 0 0 0 0 0 0 0 0 0 0 0 10 21 0 0 0 0
639 529 241 323 232 301 291 361 412 358 267 75 65 56 46 30 50 16 17 0 0 0 0 0 0 0 0 0 0 0 0 0 0 0 0 0 0 0 0 2 6 0 0
492 540 200 389 280 275 259 252 183 45 0 1 0 0 0 1 0 0 0 0 0 0 0 0 0 0 0 0 0 0 0 0 0 0 0 0 0 0 0 0 0 1 1
382 521 327 382 338 270 220 164 77 0 0 3 4 0 0 0 0 0 0 0 0 0 0 0 0 0 0 0 0 0 0 0 0 0 0 0 0 0 0 0 0 0 2
253 487 346 334 434 339 276 145 31 31 50 41 3 0 0 0 0 0 0 0 0 0 0 0 0 0 0 0 0 0 0 0 0 0 0 0 0 0 0 0 0 0 3
323 401 303 254 501 514 381 143 77 78 137 74 0 0 0 0 0 0 0 0 0 0 0 0 0 0 0 0 0 0 0 0 0 0 0 0 0 0 0 0 0 0 2
428 449 478 392 549 602 537 271 111 90 37 23 0 0 0 0 0 0 0 0 0 0 0 0 0 0 0 0 0 0 0 0 0 0 0 0 0 0 0 0 0 0 0
516 543 722 567 541 543 409 215 136 112 2 0 0 0 0 0 0 0 0 2 0 0 0 0 0 0 0 0 0 0 0 0 0 0 0 0 0 0 0 0 0 0 0
593 752 677 710 738 650 266 139 157 13 0 0 0 0 0 0 0 1 2 0 3 0 0 0 0 0 0 0 0 0 0 0 0 0 0 0 0 0 0 0 0 0 0
845 925 842 799 721 443 313 170 291 126 14 14 20 16 0 0 1 9 1 8 0 0 0 0 0 0 0 0 0 0 0 0 0 0 0 0 0 0 0 0 0 0 0

GFSSE_con_mucape_033.txt.gz
CAPE
818 802 805 794 781 716 555 394 329 306 305 215 170 150 123 100 42 34 67 65 15 0 0 0 0 0 0 0 0 0 3 260 399 489 536 211 85 82 171 273 184 122 317
1033 807 708 760 803 721 550 414 369 315 255 112 118 149 113 74 91 125 57 26 5 0 0 0 0 0 0 0 0 0 0 165 492 439 139 0 1 0 0 0 11 49 217
1029 738 603 644 740 685 551 518 441 265 74 39 67 104 127 105 159 93 74 69 87 14 0 0 0 0 0 57 532 301 27 218 538 411 121 0 0 26 0 0 0 0 2
898 564 433 634 706 642 490 455 347 154 47 106 84 50 113 34 127 179 198 152 136 70 0 0 0 0 0 71 208 529 532 420 164 27 4 0 0 0 0 0 0 0 0
712 461 586 634 603 612 494 392 302 269 197 191 184 123 92 80 59 113 247 208 169 33 3 0 0 0 3 16 4 74 103 14 18 4 1 0 0 0 0 0 0 0 0
654 514 625 553 553 601 557 499 378 254 213 267 276 293 240 142 95 161 278 273 196 24 16 8 0 23 1 0 39 0 0 0 0 0 0 0 0 0 0 0 0 4 3
558 463 437 563 557 625 573 469 350 279 321 356 371 337 352 286 213 330 299 287 249 60 25 21 147 158 40 0 12 0 0 0 0 0 0 0 0 1 3 61 86 46 107
418 298 343 350 294 422 416 360 298 304 406 412 386 387 390 362 339 339 341 331 278 220 163 107 96 138 93 20 0 0 0 0 0 0 0 0 297 22 99 85 30 13 28
203 70 136 68 216 274 259 252 248 298 367 384 370 341 316 306 297 303 307 284 245 176 113 55 17 52 93 29 0 0 0 0 0 0 0 21 105 0 13 8 18 20 4
60 60 39 12 171 147 118 214 240 287 328 347 326 277 215 222 263 226 218 203 112 66 41 19 12 62 128 13 0 0 0 0 0 0 9 31 47 1 0 0 0 0 0
57 28 45 110 117 148 153 151 142 215 244 237 209 146 51 5 0 5 22 50 5 0 0 3 29 5 0 21 0 0 0 0 0 0 0 9 0 0 0 0 0 0 0
6 11 13 46 138 145 130 125 38 39 29 17 3 2 0 0 2 0 14 3 0 0 0 0 0 0 0 0 0 0 0 0 0 0 0 2 0 0 0 0 0 0 0
15 3 0 17 151 146 111 75 29 11 6 1 0 10 4 19 13 0 0 0 0 0 0 0 0 0 0 0 0 0 0 0 0 0 0 0 0 0 4 12 0 0 0
21 18 38 78 215 101 68 28 11 0 0 2 20 45 41 28 21 30 1 11 0 0 0 0 0 0 0 0 0 0 0 0 0 0 0 0 0 4 18 26 16 0 0
36 42 69 170 293 130 34 11 0 7 58 119 115 141 126 34 59 81 35 0 0 0 0 0 0 0 0 0 0 0 0 0 0 0 0 0 2 9 6 41 26 0 0
39 108 164 195 320 117 1 0 28 136 217 405 318 201 235 222 76 46 0 5 0 0 0 0 0 0 0 0 0 0 0 0 0 0 0 0 0 2 18 23 3 0 0
36 110 193 238 306 132 4 20 152 271 420 492 429 292 197 238 245 50 4 1 0 0 0 0 0 0 0 0 0 0 0 0 0 0 0 0 0 0 4 0 0 1 5
209 281 379 360 356 69 22 75 256 453 507 461 428 398 409 301 38 0 0 0 0 0 0 0 0 0 0 0 0 0 0 0 0 0 0 0 0 0 0 0 0 1 2
353 486 483 407 393 134 163 343 475 556 524 431 180 7 55 13 0 0 0 0 0 0 0 0 0 0 0 0 0 0 0 0 0 0 0 0 0 0 0 0 0 0 0
512 596 576 517 477 235 276 333 459 473 359 146 1 0 6 0 0 0 0 0 0 0 0 0 0 0 0 0 0 0 0 0 0 0 0 0 0 0 0 0 0 0 0
640 718 534 334 318 267 310 327 378 275 123 12 7 0 0 0 0 0 0 0 0 0 0 0 0 0 0 0 0 0 0 0 0 0 0 0 0 0 0 0 0 0 0
726 744 548 317 291 320 334 306 212 123 36 18 30 37 0 0 0 0 0 0 0 0 0 0 0 0 0 0 0 0 0 0 0 0 0 0 0 0 0 0 0 0 0
740 586 584 369 379 326 281 231 197 73 46 62 62 65 0 0 0 0 0 0 0 0 0 0 0 0 0 0 0 0 0 0 0 0 0 0 0 0 0 0 0 0 0
543 454 496 517 399 414 389 373 268 96 44 105 63 53 1 0 0 0 0 0 0 0 0 0 0 0 0 0 0 0 0 0 0 0 0 0 0 0 0 0 0 0 0
569 253 368 411 285 345 501 542 382 225 73 101 51 7 0 0 0 0 0 0 0 0 11 8 0 0 0 0 0 0 0 0 0 0 0 0 0 0 0 0 0 0 0
711 334 271 340 382 275 495 524 414 151 138 86 18 3 9 13 13 1 0 0 7 7 12 0 1 0 0 0 0 0 0 0 0 0 0 0 0 0 1 0 0 0 0

GFSSE_con_mucape_036.txt.gz
CAPE
796 764 775 797 630 470 404 373 368 359 335 231 174 133 122 54 67 83 60 31 22 0 0 0 0 0 0 0 13 261 324 462 411 353 194 1 2 0 0 0 59 34 175
797 753 744 744 582 451 416 366 324 285 238 142 132 102 95 125 125 58 36 37 62 13 0 0 10 51 66 70 0 214 426 458 324 222 19 3 2 0 0 0 0 2 136
874 730 709 686 555 490 477 431 334 274 176 77 56 122 173 151 96 99 101 100 102 68 1 9 113 327 406 255 252 339 448 370 327 211 19 0 0 0 0 0 0 0 1
797 609 629 715 548 562 492 400 293 208 185 153 129 127 201 139 178 211 188 131 135 119 0 0 24 101 307 641 578 574 274 181 82 0 0 0 0 0 0 0 0 0 0
685 515 641 668 532 600 485 348 250 227 211 202 187 159 167 148 147 203 222 194 198 136 0 0 0 3 76 247 237 276 60 0 0 0 0 0 0 1 2 2 0 1 1
622 511 637 514 503 526 517 393 322 295 278 271 265 280 264 257 143 311 277 264 267 186 3 0 0 24 109 58 73 0 0 0 0 0 0 0 0 4 7 7 7 10 7
673 495 551 443 545 650 642 480 330 379 387 404 360 331 358 372 313 406 362 343 314 265 191 63 73 26 67 9 0 0 0 0 0 0 0 0 0 13 10 9 8 11 18
528 420 359 516 499 537 458 371 374 439 479 436 446 425 515 459 409 392 354 328 289 225 243 252 146 10 33 8 0 0 0 0 0 0 0 0 87 7 8 15 7 6 5
409 319 160 15 38 292 322 328 364 401 455 472 472 456 439 353 343 328 296 312 292 217 170 236 229 68 32 51 0 0 0 0 0 0 0 0 0 0 0 0 0 0 1
260 173 46 57 30 169 270 280 311 374 392 402 392 293 218 225 237 233 220 282 207 141 142 175 179 95 11 6 9 0 0 0 0 0 0 1 21 1 0 0 0 0 0
20 15 33 3 66 143 162 231 292 361 316 281 225 174 50 37 14 0 36 55 33 24 66 149 0 0 0 0 0 0 0 0 0 0 0 7 1 21 5 0 0 0 0
0 12 20 52 144 145 154 76 41 102 56 33 30 15 0 0 0 0 0 0 1 13 51 0 0 0 0 0 0 0 0 0 0 0 0 0 0 15 24 7 0 0 0
1 0 0 20 127 110 98 7 2 5 2 0 0 0 0 0 0 0 0 0 0 0 0 0 0 0 0 0 0 0 0 0 0 0 0 0 0 0 16 18 11 3 0
0 1 5 26 70 118 95 31 8 5 0 0 0 0 0 1 0 0 0 0 10 0 0 0 0 0 0 0 0 0 0 0 0 0 0 0 0 11 11 28 12 0 0
8 1 0 8 167 155 79 22 0 0 0 0 0 31 35 26 9 17 22 27 11 0 0 0 0 0 0 0 0 0 0 0 0 0 0 0 0 0 11 54 48 4 0
25 26 71 131 212 206 22 0 0 0 0 10 44 128 74 28 35 75 81 32 15 0 0 0 0 0 0 0 0 0 0 0 0 0 0 0 0 4 18 25 27 13 10
24 18 22 105 254 276 16 0 0 0 97 221 176 121 179 174 90 93 52 37 28 0 4 1 0 0 0 0 0 0 0 0 0 0 0 0 0 0 0 0 0 0 0
31 112 135 205 275 360 37 0 0 25 244 405 330 231 179 143 173 211 56 5 0 3 5 0 0 0 0 0 0 0 0 0 0 0 0 0 0 0 0 0 0 0 0
46 153 224 289 282 332 134 0 0 146 329 406 327 260 305 284 212 121 0 4 22 3 0 0 0 0 0 0 0 0 0 0 0 0 0 0 0 0 0 0 0 0 0
65 258 280 322 331 339 78 9 100 323 394 398 342 235 66 39 45 45 33 35 1 0 0 0 0 0 0 0 0 0 0 0 0 0 0 0 0 0 0 0 0 0 0
174 337 390 379 361 389 73 145 279 414 449 431 269 48 0 17 15 18 0 0 0 0 0 0 0 0 0 0 0 0 0 0 0 0 0 0 0 0 0 0 0 0 0
237 371 485 474 460 458 192 177 269 361 332 204 55 16 25 40 0 0 0 0 0 0 0 0 0 0 0 0 0 0 0 0 0 0 0 0 0 0 0 0 0 0 0
288 364 584 630 561 536 463 192 200 222 236 163 47 34 33 33 1 0 0 0 0 0 0 0 0 0 0 0 0 0 0 0 0 0 0 0 0 0 0 0 0 0 0
326 388 598 757 659 319 239 225 241 239 172 58 20 17 19 36 6 0 0 0 0 0 0 0 0 0 0 0 0 0 0 0 0 0 0 0 0 0 0 0 0 0 0
409 405 568 794 817 367 251 321 296 227 149 149 36 32 20 48 7 0 0 0 0 0 0 0 1 2 0 0 0 0 0 0 0 0 0 0 0 0 0 1 3 0 0
638 544 556 711 661 614 343 330 290 272 266 165 100 61 60 51 4 0 2 8 9 6 0 0 3 0 1 0 0 0 0 0 0 0 0 0 0 0 0 1 4 1 0

GFSSE_con_mucape_039.txt.gz
CAPE
640 549 790 845 779 728 674 646 597 536 463 403 308 176 85 90 83 65 41 60 88 124 6 0 7 19 224 366 229 94 215 297 283 230 126 1 0 0 0 0 136 96 191
718 564 711 773 773 712 644 557 472 429 367 307 204 108 140 123 82 41 85 138 152 55 46 114 136 98 77 362 356 258 131 296 235 75 0 0 0 0 0 0 0 5 103
843 548 687 631 705 685 581 533 456 445 296 173 182 220 184 123 101 139 181 163 213 203 283 408 316 222 134 385 602 335 178 165 197 54 0 0 0 0 0 0 0 0 3
855 566 458 567 578 611 552 510 424 267 186 194 263 243 184 219 268 213 190 196 213 341 349 526 617 392 291 643 544 349 106 0 0 0 0 0 0 11 8 3 1 0 0
870 686 572 530 528 568 460 374 280 246 201 234 252 237 314 366 338 291 220 182 235 265 181 277 477 507 527 425 368 160 0 0 0 0 0 0 4 13 13 13 13 16 11
944 723 599 489 515 505 441 381 280 206 193 205 209 301 432 414 401 353 255 231 285 217 63 52 103 214 236 174 89 36 0 0 0 0 0 3 3 7 12 16 49 35 19
875 719 588 476 508 535 558 431 344 277 256 275 305 370 406 452 439 420 352 299 291 243 117 90 110 155 120 112 52 0 0 0 0 0 0 0 9 6 5 5 7 7 4
506 531 424 283 467 471 367 382 359 392 344 337 373 435 522 464 380 379 360 322 326 303 185 114 159 100 108 75 0 0 0 0 0 0 0 0 8 4 2 1 1 2 3
442 317 274 184 71 242 266 291 306 375 419 436 480 466 435 305 303 283 281 251 289 313 281 122 114 185 137 50 0 0 0 0 0 0 0 0 0 0 0 0 0 0 0
351 299 144 184 4 103 292 271 309 337 374 394 391 298 210 232 258 290 222 203 215 255 342 177 54 79 56 0 0 0 0 0 0 0 1 6 17 4 0 0 0 0 1
307 189 147 49 2 138 253 356 340 368 372 300 231 186 82 59 79 35 82 78 92 164 97 114 10 0 0 0 0 0 0 0 0 0 0 13 8 13 3 0 0 0 0
182 27 13 22 130 142 154 224 223 249 177 103 38 85 59 105 41 15 9 25 54 38 2 0 0 0 0 0 0 0 0 0 0 0 0 0 0 12 10 2 0 0 0
57 5 1 21 132 202 124 101 112 86 56 64 67 45 69 73 66 15 15 16 18 0 0 0 0 0 0 0 0 0 0 0 0 0 0 0 0 0 21 11 0 0 0
3 18 18 3 2 45 96 43 22 18 20 36 16 58 105 89 32 16 21 0 0 0 0 0 0 0 0 0 0 0 0 0 0 0 0 0 0 0 0 30 3 0 0
10 9 4 0 7 168 164 20 9 16 14 32 9 67 63 88 15 25 3 31 26 8 2 0 0 0 0 0 0 0 0 0 0 0 0 0 0 0 0 28 31 1 1
0 2 34 30 104 304 95 28 2 2 0 0 11 98 78 104 16 7 34 47 35 25 14 0 0 0 0 0 0 0 0 0 0 0 0 0 0 0 0 0 49 31 6
26 0 0 20 219 314 72 18 0 2 9 54 138 97 116 13 27 92 90 64 35 28 6 2 0 0 0 0 0 0 0 0 0 0 0 0 0 0 0 7 14 5 16
45 17 70 164 201 323 80 1 9 40 173 237 182 108 120 127 91 62 58 55 12 1 1 20 0 0 0 0 0 0 0 0 0 0 0 0 0 0 0 11 9 6 0
126 91 46 108 246 347 213 21 35 91 239 311 368 201 169 78 65 76 97 44 1 6 20 0 0 0 0 0 0 0 0 0 0 0 0 0 0 0 0 0 0 0 0
119 153 161 259 349 325 331 8 57 160 226 342 398 247 115 107 176 139 64 28 4 18 0 0 0 0 0 0 0 0 0 0 0 0 0 0 0 0 0 0 0 0 0
139 233 281 332 313 300 295 44 77 233 179 308 334 272 130 90 24 4 10 14 11 0 0 0 0 0 0 0 0 0 0 0 0 0 0 0 0 0 0 0 0 0 0
139 254 440 393 296 322 303 75 83 103 174 389 297 183 99 1 0 5 7 7 1 0 0 0 0 0 0 0 0 0 0 0 0 0 0 0 0 0 0 0 0 0 0
202 248 396 416 322 328 348 173 69 124 215 307 222 110 27 3 1 2 2 0 0 0 0 0 0 0 0 0 0 0 0 0 0 0 0 0 0 0 0 0 0 0 0
233 278 345 374 476 439 440 433 190 121 217 215 152 91 28 8 8 3 10 0 0 0 0 0 0 0 0 0 0 2 0 0 0 0 0 0 0 0 0 0 0 0 0
418 497 462 413 425 585 624 607 552 343 201 146 100 83 42 28 41 33 31 0 0 0 0 1 1 3 0 0 0 0 0 0 0 0 0 0 0 0 0 0 0 0 0
626 601 566 493 364 595 623 429 433 311 201 165 173 118 76 65 48 57 31 3 8 21 18 19 16 2 1 0 0 0 0 0 0 0 0 0 0 0 0 0 0 0 0

GFSSE_con_mucape_042.txt.gz
CAPE
810 529 885 1074 1113 1076 991 903 838 780 709 561 358 190 131 144 158 146 107 138 301 380 143 245 441 374 29 11 87 132 140 240 177 60 0 0 0 0 0 3 215 156 197
804 462 825 1010 1081 1084 989 854 718 618 517 346 169 137 155 153 156 179 188 219 263 164 95 112 418 294 0 21 70 108 48 111 59 55 51 0 0 0 0 0 5 13 74
804 416 805 847 994 1004 923 751 615 512 378 193 179 188 181 184 260 255 266 306 441 311 232 204 334 295 63 100 225 114 27 40 27 0 9 0 0 5 4 1 8 1 10
922 418 412 829 869 849 721 633 487 289 221 275 256 218 250 372 356 360 341 455 789 878 447 294 400 355 159 262 242 84 2 0 0 1 1 4 0 6 7 4 6 4 5
1009 549 656 804 758 746 647 535 326 256 284 286 261 366 470 418 446 422 378 454 825 1143 875 475 594 427 296 289 182 89 3 2 0 2 0 5 6 9 14 27 40 18 15
1065 690 536 578 655 701 591 448 311 281 272 236 330 512 528 514 482 451 442 356 497 741 641 613 382 213 202 145 143 26 9 0 0 0 5 4 6 9 5 7 7 7 13
1130 1027 633 498 578 600 563 435 341 342 232 285 412 465 550 564 543 505 412 313 310 430 398 328 139 182 166 124 61 0 0 0 0 0 0 0 8 4 2 0 0 2 6
863 876 490 519 553 485 435 353 301 322 327 391 436 476 582 599 564 527 456 362 276 302 372 287 194 191 142 29 0 0 0 0 0 0 2 2 7 2 0 0 2 2 3
507 397 294 255 154 161 275 291 279 344 398 458 471 450 406 348 306 338 360 364 325 220 266 271 252 162 52 0 0 0 0 0 0 0 1 0 0 0 0 0 0 0 2
393 79 268 206 49 0 318 302 340 340 355 396 385 271 261 250 243 262 275 361 401 288 235 287 256 88 0 0 0 0 0 0 0 1 6 4 6 0 0 0 0 0 2
409 337 209 117 17 2 192 392 390 439 352 283 256 187 64 39 20 26 98 241 316 325 213 147 84 0 0 0 0 0 0 0 0 0 3 0 18 12 0 0 0 0 0
384 463 203 129 33 36 288 310 352 262 180 156 122 55 35 77 37 13 20 168 116 84 20 0 0 0 0 0 0 0 0 0 0 0 0 0 0 20 10 2 0 0 1
366 253 110 12 5 63 142 352 329 279 281 136 143 75 152 105 71 60 21 43 18 3 0 0 0 0 0 0 0 0 0 0 0 0 0 0 0 1 24 13 1 1 0
79 5 6 5 19 1 96 173 189 121 99 84 90 112 151 120 92 94 138 210 88 21 2 0 0 0 0 0 0 0 0 0 0 0 0 0 0 0 9 40 2 6 4
31 29 14 4 3 1 25 122 153 185 100 44 94 108 89 49 93 153 136 93 34 10 10 0 0 0 0 0 0 0 0 0 0 0 0 0 0 0 4 23 36 9 5
19 24 6 2 1 101 116 141 175 173 72 110 76 179 238 102 172 314 177 50 29 20 10 3 0 0 0 0 0 0 0 0 0 0 0 0 0 0 0 1 72 31 1
0 3 0 44 109 153 274 157 39 56 18 8 68 485 497 443 361 223 96 30 24 5 3 0 0 0 0 0 0 0 0 0 0 0 0 0 0 0 0 0 14 7 19
17 47 92 33 157 337 355 166 0 24 18 29 354 537 577 484 334 164 44 32 31 22 0 0 0 0 0 0 0 0 0 0 0 0 0 0 0 0 0 0 0 4 4
77 88 124 106 145 555 619 189 87 48 107 178 565 567 477 225 90 59 33 37 39 0 0 0 0 0 0 0 0 0 0 0 0 0 0 0 0 0 0 0 0 0 0
192 126 60 132 469 583 616 325 57 9 92 516 831 697 468 202 52 37 29 43 11 0 0 0 0 0 0 0 0 0 0 0 0 0 0 0 0 0 0 0 0 0 0
400 291 280 400 509 602 743 466 117 57 203 677 745 834 411 325 79 54 48 4 0 0 0 0 0 0 0 0 0 0 0 0 0 0 0 0 0 0 0 0 0 0 0
533 553 492 398 498 754 814 694 174 310 196 416 629 731 573 394 54 5 0 0 0 0 10 0 0 0 0 0 0 0 0 0 0 0 0 0 0 0 0 0 0 0 0
466 487 521 573 806 810 768 672 283 473 634 704 588 342 327 134 109 6 6 4 3 0 0 0 0 0 0 0 0 1 0 0 0 0 0 0 0 0 0 0 0 0 0
528 521 498 656 937 909 912 768 476 342 358 507 480 139 59 100 44 20 27 22 24 0 0 0 0 0 11 14 6 0 0 0 0 0 0 0 0 0 0 0 0 0 0
517 585 611 667 1100 986 945 916 853 718 625 685 370 32 61 67 68 42 52 47 43 37 1 0 0 10 5 11 4 0 0 0 0 0 0 0 0 0 0 0 0 0 0
835 800 781 781 893 1096 1095 1025 1110 1200 1111 481 128 96 107 91 61 83 89 56 43 12 5 2 1 19 11 6 0 0 0 0 0 0 0 0 0 0 0 0 0 13 16

GFSSE_con_mucape_045.txt.gz
CAPE
845 745 1271 1506 1416 1329 1194 1072 976 888 857 776 578 411 338 293 233 171 266 433 641 768 541 318 157 3 30 78 99 52 104 148 91 66 32 0 1 0 0 123 175 75 302
938 781 1164 1402 1439 1390 1283 1144 986 858 778 598 437 364 329 263 184 272 470 548 579 646 567 199 0 0 0 1 6 15 0 34 125 138 139 0 5 4 2 0 5 4 109
970 885 1298 1266 1396 1374 1298 1139 944 810 615 476 392 343 273 272 345 405 433 464 541 622 464 115 0 8 43 25 47 18 0 0 0 22 178 0 3 13 11 14 60 6 6
885 904 1492 1227 1244 1243 1105 972 810 592 415 446 387 314 356 466 521 592 721 736 715 756 523 200 62 58 44 63 77 40 0 0 0 163 4 0 0 82 36 13 3 14 8
592 666 1477 1104 1093 1072 911 781 528 438 389 368 357 507 622 604 614 742 994 1049 1011 995 647 276 98 96 87 219 176 65 0 12 69 0 0 0 0 5 0 3 16 17 16
479 551 969 1029 977 912 765 560 442 394 308 328 482 646 675 639 614 674 936 1205 1261 1102 790 242 116 39 193 198 122 7 0 17 77 3 0 0 0 2 1 2 7 7 6
857 905 1072 730 776 748 706 537 465 385 389 534 579 577 602 595 655 528 571 835 1126 1109 566 195 58 114 187 131 14 0 0 22 2 7 0 0 0 1 0 0 1 6 11
1222 843 512 771 658 566 442 435 407 391 519 588 588 623 656 656 557 445 426 550 689 664 386 269 238 161 74 2 0 0 0 18 0 13 2 0 0 0 0 0 0 3 8
692 494 319 267 547 282 215 235 239 425 546 581 612 664 584 443 400 370 305 356 437 321 281 251 211 143 0 2 0 0 0 15 6 8 3 0 0 0 0 0 0 2 3
429 368 276 5 190 343 218 224 294 385 451 490 409 312 281 286 338 355 292 278 312 321 333 237 159 47 0 0 0 0 0 0 0 8 1 0 1 0 0 0 0 2 4
384 313 80 0 58 103 208 371 441 480 379 351 337 257 137 87 62 51 219 353 301 304 302 162 22 0 0 0 0 0 0 0 0 0 0 0 11 9 5 0 0 3 16
389 311 194 0 22 29 1 157 282 366 292 246 193 190 130 164 136 90 169 254 215 147 144 59 0 0 0 0 0 0 0 0 0 0 0 0 5 25 19 2 2 3 8
320 323 197 139 50 5 2 134 302 335 320 239 242 246 309 283 220 95 85 18 2 0 0 0 0 0 0 0 0 0 0 0 0 0 0 0 0 10 23 10 3 10 7
221 258 127 104 25 0 3 80 244 255 265 243 287 455 388 259 421 280 116 145 67 31 2 0 0 0 0 0 0 0 0 0 0 0 0 0 0 0 4 26 9 9 6
10 85 97 37 22 5 22 109 155 205 152 171 271 297 383 354 481 290 278 298 204 127 57 2 0 0 0 0 0 0 0 0 0 0 0 0 0 0 0 5 18 10 5
0 22 15 11 4 1 3 76 207 279 160 402 326 407 506 272 398 230 301 262 173 101 35 1 0 0 0 0 0 0 0 0 0 0 0 0 0 0 0 0 65 20 9
12 2 5 4 4 12 3 4 81 335 276 329 311 591 344 452 605 453 398 249 147 73 30 5 1 0 0 0 0 0 0 0 0 0 0 0 0 0 0 0 22 38 31
4 0 0 0 1 119 153 137 140 279 255 133 135 335 614 338 415 512 401 301 145 61 32 3 1 0 0 0 0 0 0 0 0 0 0 0 0 0 0 0 0 0 0
4 0 2 44 71 148 176 251 163 200 105 30 179 249 620 707 694 546 439 305 151 51 25 10 0 0 0 0 0 0 0 0 0 0 0 0 0 0 0 0 0 0 0
21 4 0 86 145 390 547 236 100 8 115 54 107 352 608 685 542 517 411 266 121 41 18 0 0 0 0 0 0 0 0 0 0 0 0 0 0 0 0 0 0 0 0
86 207 155 145 146 426 485 214 50 2 4 59 256 401 620 692 502 459 394 268 138 52 4 0 0 0 0 0 0 0 0 0 0 0 0 0 0 0 0 0 0 0 0
252 217 167 120 167 539 592 505 119 28 0 62 254 658 740 762 617 440 478 221 104 10 1 0 0 0 0 0 0 0 0 1 0 0 0 0 0 0 0 0 0 0 0
334 286 263 307 476 529 506 561 387 61 72 51 292 503 791 760 705 478 405 144 32 10 6 1 0 0 0 0 0 2 1 5 0 0 0 0 0 0 0 0 0 0 0
591 582 605 574 574 552 612 791 466 121 244 478 682 626 640 837 622 360 148 46 5 16 17 18 0 0 0 0 4 0 3 0 0 0 0 0 0 0 0 0 0 0 0
801 672 746 662 635 753 880 746 1042 485 398 545 718 771 825 587 399 156 38 25 36 37 32 24 1 0 2 0 7 0 0 0 0 0 0 0 0 0 0 0 0 0 0
387 943 1318 719 659 774 978 940 1061 1044 892 1059 1063 734 498 371 190 62 58 61 35 33 39 24 0 0 9 8 0 0 0 2 0 0 0 0 0 0 0 1 0 1 5

GFSSE_con_mucape_048.txt.gz
CAPE
685 1140 1481 1482 1445 1258 1153 1054 986 947 926 801 631 544 472 406 395 390 611 839 886 561 42 30 27 0 0 0 0 10 90 83 64 96 84 2 0 0 0 129 167 149 286
469 1541 1569 1574 1552 1459 1313 1134 1045 994 862 712 562 464 335 328 536 701 826 883 904 321 0 0 0 0 0 0 0 0 92 150 129 122 53 9 12 15 16 0 56 3 107
126 1656 1762 1602 1668 1550 1412 1277 1152 1014 829 712 553 388 325 529 679 699 679 838 862 252 0 0 0 0 0 0 34 0 8 31 88 150 3 2 13 18 22 29 31 14 10
786 1569 1865 1608 1612 1501 1360 1217 1082 868 722 656 483 388 516 644 684 704 700 754 783 424 0 0 0 0 0 32 2 27 81 118 182 56 0 0 5 23 19 19 23 21 10
1183 1593 1397 1415 1277 1300 1229 1082 914 809 656 502 410 611 723 792 911 980 815 785 857 583 82 16 0 0 8 86 53 41 22 24 22 0 0 0 0 2 2 7 8 13 8
994 1375 1217 962 896 1017 1186 971 815 666 516 439 584 731 812 951 1191 1205 1002 933 1003 675 116 18 0 0 99 21 0 32 37 52 0 0 0 0 0 1 2 6 6 9 12
1065 1198 889 681 514 763 1013 854 698 607 553 662 688 680 734 920 1168 1250 1098 1033 1022 602 211 45 42 79 60 0 9 17 35 23 0 0 0 0 0 1 0 4 7 12 13
1134 1105 764 799 667 691 737 737 557 605 688 673 645 662 765 624 676 906 1099 1025 755 392 303 253 204 125 51 0 0 0 0 31 3 0 0 0 0 0 0 1 4 6 13
718 742 611 406 425 318 414 371 461 630 667 681 640 618 513 345 366 600 777 710 442 320 275 227 183 99 35 0 0 0 0 17 12 0 0 0 2 3 3 2 3 4 10
740 673 293 171 78 53 197 407 470 500 536 557 406 274 231 262 299 344 398 359 337 297 255 214 167 73 0 0 0 0 0 0 0 0 0 0 0 1 0 0 1 3 5
560 449 314 110 59 0 95 443 522 542 416 327 274 221 101 35 20 102 260 346 358 295 207 135 29 0 0 0 0 0 0 0 0 0 0 0 3 2 0 0 3 7 6
495 311 239 162 110 40 3 199 340 375 284 262 169 134 44 45 115 114 197 231 258 228 137 14 0 0 0 0 0 0 0 0 0 0 0 0 0 13 8 0 1 2 6
344 307 272 140 32 7 0 13 108 196 237 277 243 240 251 156 140 153 106 5 7 11 0 0 0 0 0 0 0 0 0 0 0 0 0 0 0 12 13 2 2 6 4
238 247 153 85 19 3 1 0 98 194 240 214 227 328 333 218 210 154 75 74 0 0 0 0 0 0 0 0 0 0 0 0 0 0 0 0 0 0 6 8 8 13 6
132 164 118 111 10 7 2 6 75 217 205 160 166 339 316 285 282 178 169 115 40 21 0 23 0 0 0 0 0 0 0 0 0 0 0 0 0 0 0 17 24 22 13
34 71 22 59 38 7 3 24 28 112 180 97 115 363 310 355 289 356 460 416 325 150 106 6 0 0 0 0 0 0 0 0 0 0 0 0 0 0 0 0 31 32 18
1 4 1 12 5 0 2 23 49 143 252 328 300 330 381 475 364 552 369 434 178 156 112 41 0 0 0 0 0 0 0 0 0 0 0 0 0 0 0 0 5 47 39
8 6 3 0 3 1 12 13 63 93 243 268 225 347 396 478 393 408 520 366 262 108 51 5 0 0 0 0 0 0 0 0 0 0 0 0 0 0 0 0 0 0 0
2 0 0 1 2 3 26 1 0 18 146 159 147 240 425 436 518 559 500 418 205 80 38 11 0 3 0 0 0 0 0 0 0 0 0 0 0 0 0 1 0 0 0
0 0 0 0 0 0 62 0 7 28 88 71 61 110 397 531 572 522 417 258 87 100 39 8 1 0 0 0 0 0 0 0 0 0 0 0 0 0 0 0 0 0 0
0 0 0 0 0 15 35 9 33 5 37 60 43 75 465 462 551 507 374 271 108 104 25 19 0 0 0 0 0 0 0 0 0 0 0 0 0 0 0 0 0 0 0
0 0 0 0 0 22 30 48 81 2 0 16 60 197 615 457 459 394 375 232 95 124 46 0 0 0 0 0 0 0 0 0 0 0 0 0 0 0 0 0 0 0 0
7 0 0 0 0 5 162 282 246 31 2 0 34 537 695 675 547 457 354 398 154 120 11 5 4 1 1 0 0 0 0 0 0 0 0 0 0 0 0 0 0 0 0
104 85 145 85 49 9 363 344 397 104 31 0 6 384 567 613 547 534 496 416 178 63 23 14 14 23 11 0 0 0 1 0 0 0 0 0 0 0 0 0 0 0 0
320 319 256 175 186 285 349 470 320 490 34 135 118 372 452 559 600 567 409 472 132 39 31 23 36 31 23 1 3 1 2 11 1 0 0 0 0 0 0 0 0 0 0
481 574 428 403 348 476 408 290 593 479 399 429 633 490 575 477 533 463 717 227 69 43 61 40 46 62 48 3 1 15 20 5 11 2 0 0 0 0 0 0 0 0 0

GFSSE_con_mucape_051.txt.gz
CAPE
718 1262 1401 1649 1601 1429 1312 1117 1005 962 931 832 690 614 579 487 653 889 745 367 308 196 0 0 0 0 0 0 0 15 112 35 0 16 24 12 5 6 14 16 152 92 231
352 614 1190 1523 1651 1591 1423 1252 1074 937 894 792 620 616 606 734 959 978 627 316 276 81 0 0 0 0 0 0 12 122 131 43 22 0 18 13 25 26 10 11 102 65 175
33 560 631 1256 1599 1599 1520 1374 1180 1054 923 714 598 704 880 978 1044 1022 446 230 236 131 0 0 0 0 0 0 33 78 53 23 37 16 4 1 4 25 29 14 20 21 28
26 118 130 703 1437 1643 1551 1343 1145 1028 896 685 668 916 990 980 1035 1039 362 248 299 195 0 0 0 0 0 12 31 42 26 0 0 0 0 0 0 15 14 15 11 11 18
390 465 762 859 1213 1534 1432 1210 1022 937 708 621 780 951 1002 1019 1029 1072 470 369 386 203 0 0 0 0 0 6 11 9 12 0 0 0 0 0 0 6 9 7 9 17 20
875 1008 940 821 1010 1367 1290 1121 978 689 503 619 784 1007 1162 1185 1130 1072 744 486 476 183 0 0 0 0 0 0 4 0 0 0 0 0 0 0 0 8 11 13 20 14 24
1286 1112 1094 876 639 539 719 1080 790 533 607 763 878 1082 1277 1324 1221 1106 950 537 415 192 19 0 0 0 0 0 7 8 7 0 0 0 0 0 0 3 8 9 10 10 10
1056 948 556 743 429 310 418 643 653 650 758 749 909 1212 1448 1423 1236 1204 1027 529 382 220 188 85 43 0 0 0 4 2 1 0 0 0 0 0 4 2 4 6 10 11 11
679 566 516 553 396 249 165 358 578 547 603 672 638 702 793 961 1072 1121 822 530 368 251 165 101 34 0 0 0 0 0 0 0 0 0 0 0 2 2 4 3 6 8 10
625 540 394 350 257 205 46 224 408 439 437 377 316 272 594 702 775 680 512 351 277 198 153 85 22 0 0 0 0 0 0 0 0 0 0 0 1 1 2 6 7 13 11
518 431 518 330 239 81 72 331 440 380 258 212 164 112 169 330 357 207 269 314 255 172 133 73 0 0 0 0 0 0 0 0 0 0 0 0 0 2 0 2 5 10 13
422 325 362 281 123 24 72 193 237 161 82 50 17 1 16 55 117 222 284 270 209 126 75 14 0 0 0 0 0 0 0 0 0 0 0 0 0 7 2 0 6 11 13
425 272 181 170 59 31 41 93 73 56 73 25 3 13 67 82 116 142 179 130 101 11 0 0 0 0 0 0 0 0 0 0 0 0 0 0 0 16 13 12 11 6 9
389 268 176 72 69 48 9 1 0 16 48 22 90 100 129 80 79 74 40 53 16 0 0 0 0 0 0 0 0 0 0 0 0 0 0 0 0 0 17 10 11 9 2
331 239 201 54 62 30 10 0 0 21 55 70 127 152 131 116 76 65 65 9 0 0 0 0 0 0 0 0 0 0 0 0 0 0 0 0 0 0 0 15 11 17 8
398 199 27 21 20 10 4 4 5 4 52 71 99 164 238 155 151 107 128 136 58 28 28 0 0 0 0 0 0 0 0 0 0 0 0 0 0 0 0 0 11 35 15
65 39 60 10 20 35 22 8 3 3 35 48 54 147 249 249 185 245 241 192 179 83 56 0 0 0 0 0 0 0 0 0 0 0 0 0 0 0 0 0 0 74 41
11 12 32 49 13 5 4 3 0 0 81 115 166 182 147 266 332 264 192 238 108 84 41 19 0 0 0 0 0 0 0 0 0 0 0 0 0 0 0 0 17 27 34
21 19 14 8 4 2 7 1 3 1 56 126 111 103 134 163 214 156 312 244 143 92 37 3 0 0 0 0 0 0 0 0 0 0 0 0 0 0 0 0 0 0 0
1 6 0 0 2 4 3 0 2 10 30 34 14 27 178 107 128 341 326 265 192 97 22 0 0 0 0 0 0 0 0 0 0 0 0 0 0 0 0 0 0 0 0
0 0 0 0 0 0 1 0 0 0 6 3 11 25 53 162 229 350 330 255 230 97 52 19 1 0 0 0 0 0 0 0 0 0 0 0 0 0 0 0 0 0 0
0 0 0 0 0 0 0 0 0 0 9 32 6 38 15 171 248 355 360 362 216 125 55 33 35 5 0 0 0 3 0 0 0 0 0 0 0 0 0 0 0 0 0
0 0 0 0 0 0 0 0 0 13 45 0 7 0 21 317 302 331 438 333 236 167 56 53 44 25 7 1 0 0 0 0 0 0 0 4 1 0 0 0 0 0 0
0 0 0 0 0 0 0 0 0 0 33 1 0 1 256 319 285 360 385 284 260 237 79 84 28 23 18 28 15 2 0 0 0 0 0 2 1 0 0 0 0 0 0
0 0 0 0 0 0 0 0 0 8 31 0 0 0 284 383 371 303 312 278 274 238 163 73 45 68 56 32 29 29 3 1 0 0 8 7 3 0 0 0 0 0 0
18 0 0 0 0 0 0 0 37 129 146 53 0 0 217 262 296 258 179 217 251 240 198 48 47 65 125 83 40 20 3 0 0 10 4 0 0 0 0 0 0 0 0

GFSSE_con_mucape_054.txt.gz
CAPE
1372 1381 1559 1740 1587 1501 1215 1069 930 850 809 761 644 749 907 895 606 461 390 348 276 91 0 1 5 2 2 2 0 19 16 14 24 34 33 19 34 33 57 115 110 51 153
1388 1151 1111 1500 1716 1554 1360 1180 980 863 815 804 726 978 1061 854 563 534 460 354 182 32 1 4 3 3 8 14 40 61 56 21 15 20 29 29 20 20 20 29 168 41 40
944 1092 966 628 1407 1602 1449 1277 1120 1009 902 844 938 1220 1236 858 608 531 407 261 61 32 0 0 0 1 5 26 40 88 37 9 2 13 5 1 7 19 17 15 40 36 33
342 1020 953 854 1364 1329 1411 1277 1137 959 891 942 1160 1338 1378 895 633 530 405 227 29 31 23 0 0 0 0 0 0 40 0 0 0 0 0 0 2 18 18 22 22 18 13
357 973 1103 1083 874 913 1461 1235 995 756 798 1033 1199 1402 1482 917 741 639 418 223 50 27 0 0 0 0 0 0 0 0 0 0 0 0 0 0 0 8 13 21 8 9 11
430 830 432 486 896 1063 1373 1186 850 657 789 955 1070 1366 1505 1014 865 683 446 274 127 28 0 0 0 0 0 0 8 0 0 0 0 0 0 0 0 14 18 15 15 15 25
870 741 581 658 586 664 682 559 727 676 760 869 1057 1201 1363 1130 910 700 473 272 132 32 0 0 0 0 0 3 0 0 0 0 0 0 0 0 0 8 9 12 13 18 15
1045 856 801 591 464 480 325 130 458 732 874 926 1034 1169 1249 1209 861 714 507 288 226 158 17 0 0 0 0 0 0 0 0 0 0 0 0 0 2 5 9 11 12 15 16
563 550 416 393 439 244 107 70 180 803 1027 1141 1149 1143 1057 1052 808 640 483 359 242 104 31 0 0 0 7 0 0 0 0 0 0 0 0 0 1 1 5 8 9 13 15
337 419 388 304 253 68 5 8 101 639 759 850 1037 1032 948 905 668 457 300 234 141 81 25 0 0 0 0 0 0 0 0 0 0 0 0 0 1 4 5 10 12 12 11
27 160 233 79 154 79 0 6 131 487 407 561 767 809 717 497 269 66 107 148 151 83 12 0 0 0 0 0 0 0 0 0 0 0 0 0 1 3 5 5 14 11 11
316 406 240 212 108 32 8 49 195 257 264 433 541 499 386 310 96 74 107 119 119 101 35 0 0 0 0 0 0 0 0 0 0 0 0 0 5 5 6 11 14 13 19
485 400 313 179 146 62 0 0 166 57 82 122 310 341 275 131 32 39 36 33 41 35 0 0 0 0 0 0 0 0 0 0 0 0 0 0 0 7 11 15 17 20 21
308 323 301 236 165 73 25 107 23 6 0 0 27 76 102 34 0 10 22 14 0 11 1 0 0 0 0 0 0 0 0 0 0 0 0 0 0 8 17 13 12 14 12
207 230 209 214 165 131 113 18 6 0 0 3 26 16 5 1 0 4 3 2 6 3 0 0 0 0 0 0 0 0 0 0 0 0 0 0 0 0 9 15 17 16 9
152 139 195 110 71 110 22 10 2 0 0 48 33 11 12 0 0 0 0 0 0 0 0 0 0 0 0 0 0 0 0 0 0 0 0 0 0 0 0 0 17 24 17
222 44 99 40 49 61 11 2 6 1 36 64 57 68 36 13 20 0 14 31 47 35 21 21 0 0 0 0 0 0 0 0 0 0 0 0 0 0 0 0 0 8 31
28 18 106 10 53 36 44 18 3 16 74 83 71 97 96 96 80 83 74 78 56 80 69 56 4 0 0 0 0 0 0 0 0 0 0 0 0 0 0 0 3 65 50
13 21 33 16 23 22 14 6 5 24 21 45 1 57 109 113 197 202 202 155 197 120 83 59 5 0 0 0 0 0 0 0 0 0 0 0 0 0 0 0 0 0 0
13 5 1 21 21 22 29 11 4 3 2 2 9 64 79 65 102 188 143 188 96 82 87 34 9 0 0 0 0 0 0 0 0 0 0 0 0 0 0 0 0 0 0
0 2 4 0 3 0 1 3 4 3 10 0 24 24 6 32 55 106 186 212 131 77 77 56 16 0 0 0 0 0 0 0 0 0 0 0 0 0 0 0 0 0 0
0 0 1 1 3 4 13 1 0 8 2 0 0 0 0 0 36 61 95 211 150 117 88 55 29 17 1 2 1 1 0 0 0 0 0 0 0 0 0 0 0 0 0
0 0 0 0 0 0 0 0 0 1 0 0 0 0 0 0 0 48 144 215 214 125 175 70 61 20 37 21 21 34 23 3 3 0 0 0 0 0 0 0 0 0 0
0 0 0 0 0 0 0 0 0 0 0 0 0 0 0 0 0 49 112 197 159 181 201 148 63 38 35 36 38 37 26 22 23 0 0 0 0 9 0 0 0 0 0
0 0 0 0 0 0 0 0 0 0 0 0 0 0 0 0 32 45 119 179 147 105 117 154 67 52 49 55 40 21 34 28 16 11 0 0 0 3 0 0 0 0 0
0 0 0 0 0 0 0 0 0 0 0 0 2 23 16 2 48 86 145 176 128 88 102 134 63 68 53 57 67 44 9 0 9 7 1 0 0 8 1 0 0 0 0

GFSSE_con_mucape_057.txt.gz
CAPE
1258 1504 1528 1564 1503 1453 1299 1178 1123 955 955 970 976 969 805 696 571 481 374 192 126 209 20 6 6 4 5 11 20 20 34 36 28 38 63 55 48 52 106 65 87 19 123
1429 1471 1436 1542 1545 1496 1285 1282 1173 1049 1177 1225 1200 971 746 608 574 524 283 192 325 310 40 26 16 16 13 10 9 8 6 24 36 38 31 24 32 31 62 60 161 109 62
1328 1204 863 884 898 754 997 1283 1319 1235 1400 1462 1294 927 843 773 690 432 263 300 470 427 87 70 45 17 16 27 20 5 1 0 14 16 7 2 6 27 26 22 30 37 57
1114 571 619 485 562 440 367 1125 1356 1307 1517 1572 1349 1037 969 816 592 366 260 310 513 452 47 12 4 2 2 59 5 0 0 0 0 0 0 0 2 29 22 25 14 14 17
1126 1107 765 349 209 335 161 1037 1236 1150 1416 1606 1303 1048 980 807 604 323 200 350 494 439 7 0 0 0 65 8 0 0 0 0 0 0 0 0 1 18 24 12 11 23 15
584 1287 976 473 109 432 634 1030 957 1136 1249 1433 1259 1021 974 848 625 292 164 327 577 335 0 0 0 1 0 0 0 0 0 0 0 0 0 0 0 19 15 14 16 15 17
859 1089 926 733 706 901 1024 544 657 1177 1217 1326 1297 867 873 819 577 319 157 256 349 180 0 0 0 70 0 0 0 0 0 0 0 0 0 0 2 14 16 19 15 16 19
479 972 797 803 764 596 450 382 306 714 1055 1196 1198 823 916 731 493 356 216 152 86 8 0 0 6 51 0 0 0 0 0 0 0 0 0 0 7 13 16 16 17 15 15
857 662 461 463 259 141 85 2 32 302 796 846 875 840 743 601 407 336 232 87 0 0 0 0 0 0 1 0 0 0 0 0 0 0 0 0 9 13 15 15 15 13 12
563 372 467 264 243 153 4 13 8 317 671 560 677 951 566 509 357 236 61 0 0 0 0 0 0 11 0 0 0 0 0 0 0 0 0 0 6 6 11 10 12 11 12
439 282 202 115 118 52 56 0 45 322 669 730 823 843 360 163 21 0 0 0 0 0 0 0 0 5 5 0 0 0 0 0 0 0 0 10 6 8 11 9 8 7 7
180 158 151 153 143 106 47 1 35 224 350 559 649 547 231 54 0 0 0 0 5 5 8 1 0 0 0 0 0 0 0 0 0 0 0 8 6 7 6 7 6 8 9
25 178 100 68 58 16 3 7 49 202 192 300 416 358 174 24 5 0 0 0 0 1 0 0 0 0 0 0 0 0 0 0 0 0 0 3 2 3 10 15 13 16 17
112 168 131 99 34 0 0 0 2 134 95 199 256 259 138 1 0 6 4 0 0 0 0 0 0 0 0 0 0 0 0 0 0 0 0 0 3 2 7 17 23 18 11
120 152 117 99 75 9 7 7 23 3 1 135 206 215 87 1 0 12 3 0 0 4 0 0 0 0 0 0 0 0 0 0 0 0 0 0 0 12 7 15 15 24 19
65 43 52 106 85 69 54 4 4 14 69 156 165 155 20 0 13 10 2 2 6 9 14 4 0 0 0 0 0 0 0 0 0 0 0 0 0 0 0 25 26 29 24
109 20 32 75 38 64 46 5 5 47 100 119 117 83 9 0 2 1 5 19 18 20 6 0 0 0 0 0 0 0 0 0 0 0 0 0 0 0 0 0 6 23 20
47 42 81 53 26 46 34 28 7 8 27 33 26 34 15 1 1 2 11 6 18 48 16 35 19 0 0 0 0 0 0 0 0 0 0 0 0 0 0 0 0 0 19
11 13 60 31 33 4 19 15 8 39 67 76 89 71 51 23 22 35 44 88 65 73 64 78 41 16 0 0 0 0 0 0 0 0 0 0 0 0 0 0 0 0 61
22 23 9 24 11 15 17 4 16 99 83 72 82 113 119 136 204 162 162 177 140 67 41 97 63 37 0 0 0 0 0 0 0 0 0 0 0 0 0 0 0 0 0
4 3 0 8 6 6 35 30 2 74 82 41 63 72 114 142 140 186 177 159 195 164 153 112 89 51 12 5 0 0 0 0 0 0 0 0 0 0 0 0 0 0 0
0 5 2 0 4 4 23 11 5 5 20 6 27 15 50 64 71 78 119 180 160 103 91 83 69 56 30 26 13 12 1 0 0 1 0 2 0 0 0 0 0 0 0
0 0 0 2 1 5 3 2 4 1 8 14 9 0 14 4 5 0 37 29 134 146 93 76 59 48 58 58 31 33 25 4 0 1 2 7 1 0 0 0 0 0 0
0 0 0 0 0 0 0 6 0 1 0 5 6 3 9 3 0 0 1 25 81 151 151 125 101 89 70 57 39 29 32 19 17 0 2 1 12 0 0 0 0 0 0
0 0 0 0 0 0 0 0 0 0 0 0 0 0 0 0 0 0 7 41 53 121 146 148 103 103 86 61 40 40 50 36 59 9 0 0 2 8 0 0 1 0 0
0 0 0 0 0 0 0 0 0 0 0 0 0 0 0 0 0 0 9 29 20 49 151 113 93 89 54 55 58 81 62 54 11 21 0 20 10 6 0 0 0 1 8

GFSSE_con_mucape_060.txt.gz
CAPE
1036 1265 1488 1651 1604 1462 1334 1152 1196 1263 1421 1382 1241 1207 1104 1043 907 749 601 434 372 379 68 34 32 31 26 26 16 17 29 44 67 153 202 83 64 47 63 94 99 40 173
1201 1275 1342 1472 1482 1440 1364 1224 1234 1273 1352 1464 1280 1144 1054 1014 852 489 432 424 453 371 29 9 16 13 14 21 24 26 31 29 27 37 57 57 57 54 75 70 137 85 172
1258 1295 1368 1364 1424 1481 1562 1375 1419 1513 1554 1481 1277 1122 1050 925 600 533 577 552 583 543 118 79 47 10 9 10 17 11 10 12 24 19 4 0 12 36 31 37 58 61 54
1351 1170 1016 1334 1376 1512 1443 1434 1515 1597 1600 1395 1234 1107 1055 886 679 759 608 520 597 635 302 104 188 72 7 8 7 1 0 0 0 0 0 3 3 19 13 16 7 13 29
1304 841 883 1144 1150 1251 1331 1355 1521 1557 1448 1229 1201 1170 1034 810 807 798 566 520 649 598 209 209 169 77 3 8 6 2 0 0 0 0 0 0 2 14 22 14 21 23 19
1309 784 527 537 837 877 765 1307 1492 1445 1200 1041 1054 1077 967 756 825 730 497 512 567 379 85 28 189 2 0 0 0 0 0 0 0 0 0 1 0 18 18 17 16 22 17
1060 1118 947 398 770 812 846 1133 1128 1324 1095 966 916 845 788 634 721 596 515 395 188 29 18 111 1 0 0 0 0 0 0 0 0 0 0 0 2 18 16 17 17 16 18
1011 968 1138 784 768 784 841 540 471 612 616 814 699 718 643 454 452 586 410 199 36 84 175 231 15 0 0 0 0 0 0 0 0 0 0 0 16 15 17 16 16 16 14
946 648 1044 706 638 401 215 60 67 153 522 680 585 648 546 414 343 362 217 28 7 96 258 76 0 0 0 0 0 0 0 0 0 0 0 0 11 13 13 10 10 9 9
665 693 827 306 287 128 61 29 64 18 396 623 684 580 438 364 256 112 0 0 0 0 49 42 0 0 0 0 0 0 0 0 0 0 0 3 12 12 13 10 11 8 8
537 422 384 250 230 94 31 24 4 5 137 409 560 408 293 151 53 0 0 0 0 0 2 12 33 1 0 0 0 0 0 0 0 0 0 16 13 12 13 11 9 7 8
356 331 229 119 43 17 50 6 0 0 7 111 425 316 174 70 0 0 0 0 0 0 4 27 43 12 0 0 0 0 0 0 0 0 0 16 14 12 14 13 9 7 7
108 82 70 51 40 41 48 21 4 0 49 101 376 277 131 30 2 0 0 0 0 0 0 0 0 0 0 0 0 0 0 0 0 0 1 16 11 10 12 9 12 13 0
31 54 37 78 72 39 39 30 46 3 28 82 213 233 77 0 0 0 0 0 0 0 0 0 0 0 0 0 0 0 0 0 0 0 0 5 10 6 10 17 20 20 10
5 77 54 59 36 3 1 0 1 5 10 60 152 215 80 13 0 0 0 0 0 0 0 0 0 0 0 0 0 0 0 0 0 0 0 0 2 6 8 22 28 25 27
52 55 81 94 52 3 6 3 0 0 9 58 120 165 66 0 0 0 0 9 5 0 0 0 0 0 0 0 0 0 0 0 0 0 0 0 0 2 9 13 21 34 34
33 75 50 78 56 44 37 4 45 2 15 65 105 149 46 0 1 12 4 18 9 5 3 12 6 12 0 0 0 0 0 0 0 0 0 0 0 0 0 2 28 28 34
22 28 82 41 31 20 26 20 42 37 18 64 125 137 88 18 17 21 25 5 19 10 23 21 27 14 8 0 0 0 0 0 0 0 0 0 0 0 0 0 0 61 60
25 39 14 41 41 13 16 20 23 99 72 137 130 139 119 23 14 25 22 22 14 32 23 38 71 71 24 2 0 0 0 0 0 0 0 0 0 0 0 0 0 0 58
8 18 36 21 40 43 35 5 66 90 139 117 126 136 66 29 21 16 15 20 49 61 59 84 106 90 65 18 1 0 0 0 0 0 0 0 0 0 0 0 0 0 30
2 0 0 15 29 19 3 9 3 0 31 42 59 66 64 75 79 56 65 74 77 82 61 67 77 92 72 46 9 8 12 0 0 0 0 0 0 0 0 0 0 0 0
0 0 0 1 6 5 1 9 4 0 39 89 100 101 100 106 134 179 201 161 167 130 147 134 123 102 71 51 22 10 1 0 3 1 1 0 1 2 10 2 0 0 0
0 0 0 1 9 4 34 12 4 60 4 60 84 37 28 39 61 77 118 141 180 148 123 107 86 67 83 50 29 25 21 4 6 4 3 0 2 21 12 11 6 0 0
0 0 0 0 8 2 2 6 5 3 3 0 5 40 41 46 48 16 26 35 53 93 113 115 83 53 44 31 23 23 34 23 26 0 2 0 15 9 7 19 17 0 0
0 0 0 0 0 0 1 0 0 2 5 5 0 0 0 4 10 8 12 7 6 40 90 82 77 65 52 63 60 49 46 35 33 34 33 14 18 0 19 17 6 9 0
0 0 0 0 0 0 0 0 0 0 0 1 0 0 0 0 0 0 5 0 3 43 47 34 73 79 77 75 61 56 28 0 0 47 28 30 4 15 11 24 1 1 0

GFSSE_con_mucape_063.txt.gz
CAPE
1097 1348 1239 1390 1586 1697 1763 1551 1434 1489 1484 1361 1211 1155 1260 1303 1224 1159 1033 899 805 763 327 226 208 47 21 30 71 50 189 256 222 202 213 97 46 59 38 202 141 87 305
1167 1263 1027 1465 1611 1623 1782 1733 1604 1576 1565 1438 1330 1281 1239 1206 1075 906 811 731 664 505 38 30 33 19 21 29 37 19 3 27 68 141 186 55 45 52 40 104 143 57 93
1323 1237 1232 1378 1576 1670 1754 1825 1783 1763 1709 1563 1459 1358 1193 993 818 716 587 490 460 340 21 25 33 42 31 24 26 16 0 3 14 25 38 20 19 18 11 15 31 19 25
1467 1370 1404 1462 1565 1664 1703 1764 1800 1934 1797 1594 1468 1331 1087 870 827 784 641 473 452 390 20 17 18 26 40 19 14 0 0 0 0 2 3 9 3 13 6 4 10 15 21
1606 1605 1617 1407 1499 1660 1697 1816 1857 1736 1574 1430 1329 1284 948 1003 974 891 656 549 588 574 195 32 11 9 10 17 9 1 0 0 0 2 3 8 12 19 25 24 22 15 23
1325 1363 1190 1198 1164 1724 1808 1890 1760 1492 1285 1238 1144 1068 986 1103 1049 842 605 642 656 621 477 25 4 5 10 2 0 0 0 0 0 0 4 15 8 22 23 18 23 13 21
1368 1186 976 869 1049 1378 1866 1903 1694 1345 1183 1149 997 784 942 1054 921 707 593 548 542 531 516 63 0 0 1 0 0 0 0 0 0 0 2 6 16 24 26 21 20 19 18
1250 1189 899 660 896 1054 1289 1228 1402 1235 1179 1005 846 685 870 773 605 517 397 282 288 474 422 63 0 0 0 0 0 0 0 0 0 0 3 10 32 19 25 21 14 14 14
925 800 1229 838 996 933 860 631 891 1021 1061 870 696 540 486 309 339 383 186 190 271 434 208 2 0 0 0 0 0 0 0 0 0 0 1 10 14 16 15 15 13 11 9
567 650 1216 703 986 938 570 577 416 574 742 660 496 341 235 221 298 234 126 261 411 377 140 0 0 0 0 0 0 0 0 0 0 1 4 7 17 14 13 13 11 8 7
846 698 955 452 475 554 268 191 187 203 325 443 408 279 196 401 165 14 17 158 352 148 25 0 0 7 0 0 0 0 0 0 0 0 2 21 18 12 11 12 8 8 7
330 457 433 379 279 167 124 48 23 45 87 168 337 297 223 103 0 0 5 44 121 107 73 13 11 5 0 0 0 0 0 0 0 1 2 26 22 18 16 12 10 11 9
103 169 137 47 150 120 91 15 15 12 96 118 214 204 159 33 0 3 0 3 50 65 37 8 1 0 0 0 0 0 0 0 0 2 6 20 22 16 18 14 11 10 5
115 44 34 73 59 45 40 17 20 6 2 87 143 256 164 1 1 0 0 3 8 0 35 13 0 0 0 0 0 0 0 0 0 0 5 16 25 15 15 15 11 10 7
62 68 22 39 40 2 6 5 29 11 3 20 142 233 71 9 5 11 2 1 0 0 2 0 0 0 0 0 0 0 0 0 0 0 5 8 17 27 17 20 20 17 14
53 47 27 19 38 28 6 0 21 9 4 63 153 231 114 43 19 12 7 0 0 0 0 0 0 0 0 0 0 0 0 0 0 0 0 3 2 15 22 19 26 28 25
28 49 37 28 13 9 2 0 0 4 3 35 167 208 128 70 79 48 14 0 0 0 6 0 0 0 0 0 0 0 0 0 0 0 0 0 0 0 0 25 20 31 33
16 23 6 14 24 29 2 12 1 4 48 12 59 130 121 100 65 33 6 3 6 6 16 6 10 19 1 0 0 0 0 0 0 0 0 0 0 0 0 0 0 51 39
16 6 21 21 50 31 24 8 3 3 69 24 3 45 90 82 69 58 19 26 28 35 32 35 51 53 37 10 1 0 0 0 0 0 0 0 0 0 0 0 0 0 93
41 52 3 21 62 24 5 1 11 3 64 67 46 21 76 56 51 71 63 57 47 38 52 56 72 85 71 62 30 6 0 0 0 0 0 0 0 0 0 0 0 0 0
17 4 2 36 19 2 0 12 4 1 65 106 75 28 79 51 63 121 128 94 90 115 86 57 56 83 82 83 53 18 0 4 6 0 0 0 1 0 0 0 5 3 0
0 0 0 10 10 7 10 4 11 0 5 57 73 46 72 65 86 124 155 178 134 148 114 75 66 77 67 93 79 35 0 0 0 4 6 7 11 3 0 13 10 5 3
0 0 0 0 1 3 16 12 5 5 77 56 72 60 86 107 148 182 189 200 206 256 231 175 83 86 110 52 59 31 0 0 0 2 1 7 16 8 13 13 6 0 0
0 0 0 0 0 4 18 3 0 9 7 5 45 57 56 99 138 118 110 121 175 225 180 141 58 103 111 83 50 35 25 0 0 2 0 2 9 30 27 1 5 0 2
0 0 0 0 3 0 9 8 6 0 0 8 0 53 82 72 53 61 55 95 130 184 208 215 112 121 121 94 64 28 28 19 9 1 6 0 4 8 35 11 2 0 6
1 10 0 0 0 1 0 5 12 12 8 3 7 0 46 47 42 64 50 76 114 120 140 190 187 131 98 91 74 47 50 41 25 19 0 8 8 13 12 2 3 9 15

GFSSE_con_mucape_066.txt.gz
CAPE
1185 1656 1365 1628 1894 1799 1695 1456 1379 1455 1498 1412 1257 1186 1161 1228 1346 1080 1025 960 875 838 409 290 354 109 99 134 183 228 429 389 391 394 344 196 169 175 158 341 305 184 327
1348 1560 1326 1637 1916 1946 1723 1574 1564 1634 1612 1512 1306 1359 1341 1411 1350 1262 1093 923 829 738 212 22 18 69 105 55 48 313 398 307 281 293 366 173 136 158 138 254 263 93 177
1411 1459 1319 1578 1940 2009 1888 1815 1855 1867 1734 1577 1517 1537 1522 1494 1361 1197 912 768 690 696 119 12 18 32 24 10 45 79 26 97 67 218 235 46 32 33 31 34 90 26 31
1524 1504 1272 1538 1817 2044 1972 1945 1917 1952 1775 1646 1669 1628 1532 1387 1200 996 698 484 465 501 84 21 15 18 21 11 16 0 0 0 11 109 8 18 27 16 14 16 17 15 14
1584 1548 1386 1486 1341 1953 2013 1982 1958 1830 1677 1664 1607 1599 1441 1248 1053 787 463 322 346 318 14 20 43 21 16 21 0 0 0 0 0 2 0 4 14 15 10 6 11 11 17
1796 1440 1324 1334 1292 1534 2027 2042 1966 1727 1594 1546 1443 1441 1499 1315 1104 754 451 403 410 253 14 18 30 24 16 0 0 0 0 0 8 0 0 3 11 13 16 9 12 9 9
2068 1552 1832 1246 971 627 1097 1594 1901 1610 1507 1401 1266 1345 1350 1301 1098 734 576 532 532 298 22 13 10 5 1 0 0 0 0 0 0 0 2 5 16 17 14 13 11 12 8
1663 1737 1646 794 595 460 792 1437 1509 1345 1341 1215 1151 1247 1304 1126 903 784 707 675 520 245 41 11 6 3 0 0 0 0 0 0 0 0 2 7 27 17 19 16 15 11 10
1275 1584 1413 993 874 801 663 1030 1042 1157 1156 1046 1089 1094 1007 819 686 656 623 621 531 191 49 6 5 0 0 0 0 0 0 0 0 1 3 7 20 17 19 14 10 11 10
1110 940 1359 1691 1235 1048 1165 693 605 875 843 853 984 857 582 507 374 250 251 529 420 181 87 19 0 0 0 0 0 0 0 0 0 2 3 13 26 22 18 13 14 10 9
1308 1150 1352 1084 1089 905 731 749 674 598 515 605 730 490 402 486 266 140 148 390 261 126 88 16 0 0 0 0 0 0 0 0 2 2 4 26 22 16 15 12 13 9 10
655 761 1321 1095 1051 886 588 687 558 288 288 240 334 259 346 403 222 26 195 252 195 103 90 27 0 0 0 0 0 0 0 0 1 4 5 28 21 16 13 14 12 12 9
265 627 697 546 314 373 326 80 113 202 86 109 228 224 381 384 78 110 333 358 181 52 3 0 0 0 0 0 0 0 0 0 0 0 1 25 16 21 18 17 12 11 7
199 85 71 155 119 98 101 124 52 40 4 24 82 202 263 186 183 167 184 187 127 63 34 1 0 0 0 0 0 0 0 0 0 0 3 20 26 12 11 13 16 12 7
127 22 22 0 9 5 59 17 10 7 25 20 4 100 278 201 168 83 192 214 179 207 148 70 25 0 0 0 0 0 0 0 0 4 6 11 23 24 15 18 14 12 7
48 24 0 18 39 36 25 25 24 33 3 70 52 123 249 213 163 81 76 67 66 158 163 81 40 3 0 0 0 0 0 0 0 3 5 3 8 26 38 26 28 21 20
32 21 14 1 25 8 33 35 20 36 10 4 56 170 306 174 145 175 78 62 54 63 59 37 33 8 0 0 0 0 0 0 0 0 0 6 1 6 22 40 49 32 28
6 21 0 0 5 5 21 10 37 12 10 3 55 137 177 164 160 163 108 87 58 50 25 23 24 18 7 1 0 0 0 0 0 0 0 0 1 2 0 5 68 77 45
34 10 11 4 12 1 12 3 8 6 3 64 101 143 103 163 179 131 105 71 128 96 27 18 31 13 2 0 0 0 0 0 0 0 0 0 0 0 0 0 0 29 88
19 24 22 23 29 19 4 3 4 4 7 55 62 136 115 85 107 94 80 110 121 173 133 98 108 74 39 15 11 9 8 3 0 0 0 0 0 0 0 0 0 0 7
13 19 12 11 23 19 9 0 0 2 80 23 37 70 138 103 146 196 103 126 153 167 235 200 200 155 97 76 57 61 53 36 17 4 0 0 0 0 0 0 0 4 5
0 2 7 12 1 10 9 2 0 7 7 18 12 43 75 121 81 119 167 144 150 165 208 266 251 210 219 122 199 250 226 63 34 33 29 31 5 2 3 7 2 10 9
0 0 0 0 4 3 5 7 3 8 2 53 66 68 68 100 33 79 166 162 202 215 220 237 244 278 282 211 189 258 213 204 214 68 1 0 4 9 17 7 9 5 15
0 0 0 0 0 5 1 10 10 0 0 3 38 43 42 108 62 69 200 246 273 330 291 293 286 267 322 303 195 181 278 248 163 127 2 2 2 4 8 20 10 0 4
8 3 20 0 0 2 1 3 4 3 0 3 1 72 31 67 129 139 249 273 311 409 316 490 321 372 373 479 248 215 152 195 187 211 164 92 8 0 8 8 11 0 0
2 12 16 17 0 0 6 4 3 0 8 0 9 28 26 26 93 93 123 249 277 254 301 316 356 503 333 430 409 430 279 234 184 164 52 158 67 0 0 14 3 0 0

GFSSE_con_mucape_069.txt.gz
CAPE
1080 1748 1554 1740 1942 1694 1499 1425 1397 1454 1556 1416 1325 1241 1416 1293 1156 1029 967 927 934 1006 738 613 541 481 411 322 296 664 606 517 414 421 432 396 297 277 256 397 374 261 437
1324 1928 1436 1767 2026 1925 1787 1576 1548 1620 1619 1566 1374 1334 1447 1273 1230 1154 1167 1126 1079 1022 478 383 373 320 343 294 482 536 480 350 323 385 496 301 257 273 208 374 349 181 360
1544 2074 1500 1647 1951 2075 1930 1730 1759 1841 1777 1584 1498 1498 1588 1422 1436 1383 1205 1082 1020 803 120 258 263 210 193 141 232 365 383 432 470 463 239 34 47 71 54 18 144 20 20
1571 1804 1429 1580 1938 2059 1822 1730 1822 1959 1826 1661 1682 1741 1756 1666 1535 1319 1103 967 853 606 68 211 169 95 42 12 63 105 111 165 283 310 15 22 18 21 14 6 7 8 16
1724 1686 1665 1625 1860 1970 1837 1817 1836 1820 1663 1686 1731 1896 1828 1686 1467 1185 830 790 747 447 36 57 79 35 9 12 0 0 0 0 0 43 18 20 25 14 11 14 11 11 18
1820 1618 1358 1453 1670 1568 1760 1762 1822 1683 1471 1614 1664 1788 1723 1588 1312 979 723 687 668 527 274 22 31 9 8 0 0 0 0 0 24 2 3 16 16 21 10 5 9 10 10
2233 1822 1533 1197 1314 1334 1499 1002 960 1533 1445 1577 1560 1504 1462 1326 1054 766 576 458 332 344 226 35 13 3 0 0 0 0 0 0 1 0 2 6 13 9 12 12 9 9 8
2203 2019 1727 1281 1224 1052 731 367 9 749 1392 1331 1370 1370 1340 1073 880 758 595 390 190 119 98 38 11 1 0 0 0 0 0 6 5 3 1 3 20 10 12 12 12 12 11
1853 2191 1850 1752 1168 521 184 51 0 334 1180 1154 1197 1285 1106 834 754 840 741 377 148 94 51 9 5 0 0 0 0 0 0 6 4 1 0 3 14 12 15 16 11 12 11
1749 1810 1984 1781 1052 500 246 49 125 231 746 972 1147 1053 833 819 835 812 644 276 126 90 25 4 3 0 0 0 0 0 0 0 1 0 1 6 16 17 18 15 14 14 10
1523 1413 1693 1576 1517 990 680 665 428 450 261 784 961 707 724 901 766 634 339 173 88 27 7 2 0 0 0 0 0 0 0 6 4 0 0 20 19 16 14 13 13 9 9
1068 1300 1305 1341 1390 1189 945 679 652 321 599 651 730 429 415 548 682 557 332 127 46 0 0 0 0 0 0 0 0 0 6 13 6 0 2 27 19 17 14 13 9 7 4
409 677 831 898 1177 1291 1215 1165 681 593 324 222 246 378 373 302 156 511 455 98 0 0 0 0 0 0 0 0 0 7 6 20 10 2 5 26 22 17 13 13 8 4 4
187 374 580 643 640 323 800 415 348 488 143 64 16 79 84 111 145 338 317 37 0 0 0 0 0 18 0 0 0 0 3 19 7 2 4 22 21 16 17 14 11 8 5
187 214 63 1 165 98 63 129 284 64 44 40 23 3 17 75 150 310 247 90 21 73 0 0 21 6 1 0 0 0 5 21 10 3 4 15 24 24 10 10 16 11 8
129 70 13 5 1 16 163 39 20 83 43 13 5 19 44 73 179 259 236 279 167 164 88 39 44 5 0 0 0 0 2 4 18 15 2 5 18 31 31 15 11 13 13
111 43 21 0 4 0 9 6 5 12 15 9 22 49 72 121 236 208 328 285 272 191 287 176 67 3 0 0 0 0 0 0 1 25 1 1 4 8 32 58 29 11 15
17 33 24 0 0 1 1 0 11 23 36 16 18 11 46 187 304 325 262 193 244 283 251 151 55 10 0 0 0 0 0 0 0 0 4 35 2 3 0 41 71 62 33
2 5 3 0 1 3 3 26 43 11 9 20 7 10 74 189 241 282 237 260 391 274 264 189 116 61 29 13 0 0 0 0 0 0 0 0 13 4 8 0 8 39 50
15 29 6 3 5 1 0 1 8 2 4 4 4 55 136 149 201 187 207 302 253 163 125 189 200 122 100 56 1 0 0 0 0 0 0 0 0 0 0 5 0 0 6
0 23 3 3 14 9 2 0 2 4 2 9 8 56 135 169 171 208 166 248 268 259 214 308 280 342 186 145 19 0 0 0 0 0 0 0 0 0 0 0 0 0 0
14 0 0 0 15 10 6 1 0 4 1 1 4 49 134 184 152 143 144 167 208 273 386 389 341 302 246 274 123 184 134 31 29 26 11 3 0 0 0 0 0 0 0
14 0 0 0 3 0 7 0 0 7 1 0 2 0 73 128 120 121 182 218 215 316 410 443 478 436 251 349 276 367 189 173 259 153 65 1 0 0 0 0 3 4 6
10 2 0 0 3 0 0 0 0 0 0 0 0 2 2 121 92 117 173 181 275 338 401 439 437 464 238 218 261 235 376 358 249 104 157 85 53 0 0 0 0 2 10
4 0 0 0 2 0 0 0 0 1 1 2 2 0 0 62 125 78 122 154 144 353 389 498 374 372 351 178 157 446 341 218 298 191 121 88 9 6 0 21 0 5 7
48 17 21 0 0 0 0 0 1 33 0 0 0 3 0 35 155 144 96 102 160 237 366 292 198 191 224 377 224 363 311 178 168 263 274 384 323 69 5 7 4 0 0

GFSSE_con_mucape_072.txt.gz
CAPE
1764 1456 1689 1878 1680 1561 1498 1438 1436 1457 1410 1304 1432 1417 1344 1197 994 917 866 829 786 899 812 679 733 476 519 536 606 714 601 549 538 562 580 617 354 356 533 527 373 236 581
1947 1579 1685 1986 1925 1789 1689 1609 1574 1626 1513 1473 1504 1450 1338 1198 1083 1071 1027 980 1209 1223 732 683 589 420 429 407 672 586 555 489 422 439 528 376 304 226 280 434 352 278 485
2315 1807 1604 1902 2181 1954 1857 1760 1801 1855 1779 1613 1622 1456 1380 1354 1271 1269 1222 1239 1148 1101 704 617 567 451 351 494 528 526 519 500 338 280 286 29 27 125 60 108 236 115 41
1810 1890 1714 1712 2008 2016 1871 1772 1842 1968 1864 1678 1711 1570 1535 1511 1549 1426 1205 1031 1004 1038 546 325 388 278 198 406 387 510 565 510 183 44 4 13 7 24 12 11 13 9 14
1693 1807 2010 1637 1785 2078 1876 1715 1587 1804 1683 1660 1709 1777 1718 1804 1642 1429 1081 893 861 994 447 320 156 95 57 55 61 46 65 83 97 14 0 5 8 16 10 11 18 21 21
1877 1818 1671 1507 1812 2025 1904 1714 1483 1633 1506 1571 1637 1829 1941 1800 1634 1336 967 733 758 766 343 160 15 0 7 0 0 0 0 3 15 0 0 9 7 31 14 16 10 3 9
2100 2263 1690 1446 1722 1787 1839 1506 952 1214 1332 1461 1741 1722 1714 1532 1289 1070 863 706 546 514 336 52 8 0 0 0 0 0 0 7 0 0 0 1 6 14 22 16 16 15 15
2210 2527 2185 1407 1475 1256 1198 834 219 65 222 1296 1490 1563 1502 1207 951 894 790 655 561 358 178 68 2 0 0 0 0 0 0 6 0 0 0 2 31 20 20 16 16 15 14
2036 2485 2276 1568 999 868 605 341 162 28 43 356 1147 1239 1028 780 692 751 655 540 364 199 86 9 0 0 0 0 0 0 0 19 0 0 0 4 24 20 18 13 9 9 9
2032 2049 1921 1825 1206 762 300 135 16 33 33 166 811 771 622 640 710 618 431 300 224 107 12 2 0 0 0 0 0 0 0 13 0 0 0 6 22 14 11 10 8 8 8
1491 1806 1734 1445 1468 824 370 166 79 22 0 5 742 549 519 580 602 336 165 134 127 29 6 1 0 0 0 0 0 0 1 1 0 0 0 30 21 14 10 7 7 7 8
977 1679 1405 1151 1031 852 611 218 94 81 0 64 526 426 450 474 520 299 113 60 29 4 3 0 0 0 0 0 0 0 1 4 0 0 0 25 16 13 11 11 10 7 7
687 864 784 824 698 704 455 280 295 118 37 14 251 235 296 429 246 126 16 11 0 0 0 0 0 0 0 0 0 0 7 2 0 0 5 23 16 16 15 11 9 7 3
295 442 617 549 670 623 628 315 374 237 223 179 116 216 193 110 146 75 0 0 0 0 0 0 0 0 0 0 0 0 23 3 0 0 3 23 16 13 17 14 9 6 3
219 319 282 132 373 357 347 312 299 218 166 117 85 96 64 45 64 60 0 0 0 0 0 0 0 0 0 0 0 0 29 7 0 0 0 15 27 17 15 13 9 6 2
191 213 1 0 0 55 142 150 114 157 77 65 6 19 12 42 17 32 26 0 5 0 4 0 0 0 0 0 0 0 20 8 0 0 0 2 13 22 14 13 10 9 5
204 44 0 0 1 20 34 41 75 71 66 41 39 20 1 3 1 22 113 29 48 19 21 0 0 0 0 0 0 0 5 20 5 0 0 0 0 7 15 21 14 5 10
127 7 0 0 2 0 41 57 55 28 5 24 34 4 7 0 1 12 117 151 105 79 119 56 3 5 0 0 0 0 0 0 7 0 0 0 0 0 2 34 33 25 15
43 9 0 0 0 0 1 4 39 41 27 10 12 15 2 1 8 51 116 164 204 146 174 33 23 1 3 2 0 0 0 0 0 0 0 0 0 0 0 1 19 22 25
15 3 0 1 8 0 0 1 10 27 23 4 4 13 5 3 15 90 78 92 78 32 153 75 51 60 8 1 0 0 0 0 0 0 0 0 0 0 0 0 0 0 1
16 5 4 0 0 1 0 0 5 0 0 0 9 25 18 11 76 128 132 195 161 130 121 195 178 167 131 100 11 0 0 0 0 0 0 0 0 0 0 0 0 0 0
4 6 0 0 0 3 0 0 0 1 0 0 9 7 7 22 67 78 88 132 164 163 157 173 157 143 118 91 32 14 7 1 0 0 0 0 0 0 0 0 0 0 0
4 5 0 4 0 1 2 0 4 9 3 0 0 1 1 24 33 58 71 102 143 156 169 182 160 144 125 123 117 59 49 33 24 12 1 0 0 0 0 0 0 0 0
4 4 6 5 0 0 0 0 0 0 0 0 3 2 5 42 56 72 83 96 92 126 218 197 201 174 153 73 136 119 171 201 57 54 43 18 2 0 0 0 0 0 0
0 3 2 0 0 0 4 6 0 0 0 0 0 5 4 0 25 56 81 135 127 130 191 188 175 152 115 62 79 43 77 98 123 46 53 6 11 0 0 0 0 0 1
6 2 4 4 1 1 1 0 0 0 0 0 0 0 4 5 43 23 47 112 128 179 183 107 106 79 94 33 36 88 70 44 76 65 82 74 35 2 4 0 0 0 0

GFSSE_con_mucape_075.txt.gz
CAPE
1307 1643 1531 1620 1571 1593 1561 1531 1494 1394 1488 1594 1526 1393 1267 1181 1059 947 869 753 743 912 807 761 941 831 759 695 855 835 699 600 563 665 751 727 459 414 341 533 421 255 752
1551 1694 1721 1695 1684 1732 1728 1673 1651 1514 1664 1693 1587 1424 1255 1182 1109 1054 929 1043 1180 1073 609 671 783 392 601 540 733 652 552 487 468 510 579 393 291 219 262 460 432 297 542
1813 1684 1989 1776 1781 1800 1850 1818 1815 1748 1819 1775 1640 1402 1297 1312 1251 1111 1281 1325 1344 1342 862 495 313 291 532 781 659 557 420 239 152 181 220 29 63 264 160 190 326 193 176
2021 1688 1827 2026 1884 1856 1807 1828 1903 1920 1880 1793 1672 1498 1459 1510 1470 1493 1326 1245 1336 1358 764 416 463 492 671 638 525 517 335 184 86 41 6 77 29 100 103 62 43 32 22
1898 1810 1649 1972 1975 1897 1811 1801 1850 1829 1697 1672 1634 1637 1623 1691 1697 1467 1242 1216 1312 1172 798 508 391 435 583 507 559 326 193 60 5 0 6 7 23 33 23 18 17 17 15
1530 1713 1713 1704 2063 1984 1870 1816 1777 1709 1539 1560 1573 1660 1819 1827 1692 1293 1043 1193 1251 1104 885 410 277 222 86 71 74 32 25 23 0 0 1 11 7 26 18 12 9 14 13
1706 1738 1682 1572 1929 2041 1986 1830 1618 1456 1051 1559 1556 1620 1734 1713 1517 1090 947 1021 988 970 570 460 174 58 2 7 5 4 4 0 0 0 0 6 13 23 14 9 2 8 17
1803 1841 1667 1518 1825 1906 1822 1451 1025 487 131 178 212 1179 1601 1451 1064 802 735 756 734 493 183 198 73 0 0 0 0 0 0 0 0 0 0 3 27 24 22 17 17 16 15
1497 1952 1823 1534 1399 1497 1520 1251 763 189 107 37 3 475 779 900 755 736 635 572 488 317 132 52 14 1 0 0 0 0 0 0 0 0 1 4 26 17 20 18 16 14 13
1425 1417 1842 1554 1350 1027 873 919 471 161 73 45 29 73 354 559 635 593 456 388 322 218 60 27 3 0 0 0 0 0 0 0 0 0 1 9 25 16 19 17 15 10 10
1389 1319 1136 1416 1180 1051 696 448 332 152 41 6 13 0 313 343 288 206 207 231 117 36 34 5 0 0 0 0 0 0 0 0 0 0 0 27 18 15 13 12 10 10 10
740 813 1179 1142 860 878 686 312 149 71 34 29 1 1 219 201 115 115 70 54 20 7 5 0 0 0 0 0 0 0 0 0 0 0 0 23 16 12 14 9 9 10 9
515 758 693 406 484 447 533 316 143 98 76 22 12 7 135 111 62 6 3 2 3 0 0 0 0 0 0 0 0 0 0 0 0 0 3 16 17 11 9 8 6 7 6
207 223 409 390 348 355 306 224 90 40 44 30 86 59 120 42 13 0 1 1 1 0 0 0 0 0 0 0 0 0 0 0 0 0 1 16 23 12 11 8 6 6 5
246 363 267 306 333 434 341 219 141 69 54 23 110 110 75 33 20 0 0 0 0 0 0 0 0 0 0 0 0 0 0 0 0 0 0 10 19 21 13 11 8 5 4
220 192 80 27 72 228 287 138 162 136 63 49 88 67 73 68 37 0 6 0 0 0 0 0 0 0 0 0 0 0 0 0 0 0 0 0 11 12 21 10 7 5 5
164 126 2 0 0 3 31 76 83 75 79 61 68 14 62 60 13 0 0 0 0 0 0 0 0 0 0 0 0 0 2 0 0 0 0 0 0 3 14 17 12 7 8
171 38 2 0 0 2 2 25 48 55 48 32 12 1 31 15 1 1 6 0 0 0 0 0 4 0 0 0 0 0 0 0 0 0 0 0 0 0 0 4 10 11 11
66 2 0 0 0 0 7 14 39 62 18 31 35 13 0 11 2 2 2 3 22 7 32 22 27 0 0 0 0 0 0 0 0 0 0 0 0 0 0 0 2 10 23
6 14 0 0 0 0 0 11 13 36 13 33 25 10 20 1 2 0 17 37 66 37 104 52 33 0 0 0 0 0 0 0 0 0 0 0 0 0 0 0 0 0 1
0 62 4 0 0 0 0 0 19 16 12 23 37 3 1 1 6 4 5 58 72 89 77 66 36 0 0 0 0 0 0 0 0 0 0 0 0 0 0 0 0 0 0
0 4 2 0 0 0 0 0 16 21 26 4 9 3 7 13 4 8 8 17 49 56 67 46 46 56 14 2 0 0 0 0 0 0 0 0 0 0 0 0 0 0 0
0 3 6 0 0 0 0 0 0 1 12 17 0 9 6 13 9 9 6 1 18 30 38 41 64 54 50 21 0 3 0 0 0 0 0 0 0 0 0 0 0 0 0
0 4 7 4 0 0 0 0 0 0 0 0 0 6 31 24 11 14 15 43 29 0 0 71 72 63 46 15 26 49 53 37 43 31 4 0 0 0 0 0 0 0 0
0 1 2 0 6 0 0 0 0 1 0 1 5 19 27 22 13 18 10 8 47 69 85 123 120 104 74 69 46 18 42 57 49 7 0 0 15 2 0 0 0 0 0
0 1 0 4 1 0 2 0 0 0 0 0 0 6 15 22 12 6 12 22 30 71 103 109 157 131 131 65 47 53 32 28 26 30 13 2 14 16 7 0 0 0 0

GFSSE_con_mucape_078.txt.gz
CAPE
1290 1353 1545 1668 1667 1603 1538 1495 1423 1541 1631 1534 1491 1423 1394 1325 1229 1142 1053 1033 1138 1307 1069 1083 1169 1116 1029 863 981 1060 988 892 795 743 821 671 532 434 463 593 524 235 616
1348 1520 1576 1702 1757 1739 1719 1673 1595 1709 1776 1704 1570 1445 1319 1251 1129 1055 1052 1106 1282 1325 985 977 1087 767 777 701 880 809 792 686 592 657 730 482 384 278 277 366 463 342 519
1545 1670 1584 1645 1829 1850 1846 1829 1866 1946 1911 1788 1600 1461 1343 1291 1173 1074 1074 1163 1197 1308 1031 826 786 783 671 754 706 690 604 509 421 414 401 187 159 199 319 306 537 525 387
1556 1784 1619 1677 1833 1912 1908 1888 1911 1982 1891 1768 1613 1519 1470 1380 1458 1496 1287 1118 1189 1291 1102 663 606 663 819 659 486 425 339 229 118 93 13 62 96 203 239 152 93 52 32
1808 1832 1829 1729 1797 1940 1911 1910 1870 1905 1844 1676 1555 1660 1563 1629 1789 1616 1435 1413 1304 1226 468 549 679 804 696 473 357 249 89 20 4 1 10 24 38 141 81 24 17 9 8
1907 1651 1998 1800 1789 1950 1979 1989 1903 1802 1597 1544 1516 1683 1758 1865 1836 1609 1428 1360 1392 1265 1087 885 950 809 523 365 56 26 0 0 0 1 18 8 5 51 23 17 19 13 12
1802 1679 1868 2039 1860 1969 2074 2058 1905 1640 1574 1460 1431 1576 1775 1826 1694 1457 1320 1240 1227 1070 970 959 771 392 100 3 0 0 0 0 0 0 3 7 4 13 9 9 4 3 14
1504 1718 1704 1987 2073 1991 1949 1810 1071 903 666 376 144 57 584 1215 1344 1340 1224 1105 996 852 768 586 208 31 0 0 2 0 0 0 0 0 0 1 15 7 8 16 13 19 15
1705 1727 1656 1623 2016 2109 1901 1451 768 626 296 78 43 18 27 393 503 1169 1117 922 636 555 517 257 41 6 6 0 0 0 0 0 0 0 0 6 25 20 19 14 15 16 16
1640 1757 1676 1553 1971 1800 1843 1273 773 566 341 64 60 33 1 254 410 676 766 568 433 369 282 122 2 8 0 0 0 0 0 0 0 0 0 8 22 17 12 10 15 15 14
1022 1298 1604 1224 1220 1333 1239 1110 666 482 193 61 19 0 79 109 211 390 357 355 302 199 149 47 0 0 0 0 0 0 0 0 0 0 0 27 20 16 18 14 12 13 13
1153 993 921 1379 1216 962 1002 800 625 327 83 49 3 0 87 151 194 231 236 188 115 106 67 3 0 0 0 0 0 0 0 0 0 0 0 26 20 15 16 16 17 16 15
720 673 1042 1128 1145 829 722 552 135 116 99 36 21 12 123 149 137 181 65 26 2 4 1 0 0 0 0 0 0 0 0 0 0 0 5 18 18 16 16 16 16 17 12
494 650 738 497 454 509 489 444 88 68 46 19 30 18 87 105 94 48 4 1 0 0 0 0 0 0 0 0 0 0 0 0 0 0 5 15 20 14 18 14 14 11 11
238 298 374 386 375 402 363 217 89 68 70 50 6 10 5 71 18 25 0 0 0 0 0 0 0 0 0 0 0 0 0 0 0 0 0 10 13 13 12 13 9 10 10
250 258 254 273 324 436 311 270 141 76 59 44 96 16 40 16 1 0 0 0 0 0 0 0 0 0 0 0 0 0 0 0 0 0 0 0 5 13 14 8 5 6 5
257 175 77 26 56 218 350 327 107 78 54 55 118 72 52 27 0 0 0 0 0 0 0 0 0 0 0 0 0 0 0 0 0 0 0 0 0 1 11 14 9 5 4
185 166 46 3 0 1 41 165 180 99 38 38 82 67 51 27 0 0 0 3 0 0 0 0 0 0 0 0 0 0 0 0 0 0 0 0 0 0 0 9 13 11 6
173 130 4 0 0 2 3 50 94 103 62 32 56 50 29 15 0 0 6 1 0 0 0 0 0 0 0 0 0 0 0 0 0 0 0 0 0 0 0 0 1 3 10
149 39 0 0 4 0 3 27 43 76 70 35 35 36 11 29 3 0 2 1 0 0 0 0 0 0 0 0 0 0 0 0 0 0 0 0 0 0 0 0 0 0 0
124 89 0 0 0 0 7 9 27 51 59 6 32 17 12 25 5 6 4 2 12 0 0 5 0 0 0 0 0 0 0 0 0 0 0 0 0 0 0 0 0 0 0
104 85 0 0 0 4 3 3 6 27 38 11 9 2 35 12 2 3 11 4 6 0 6 14 3 11 0 0 0 0 0 0 13 12 2 1 0 0 0 0 0 0 0
102 37 0 0 0 0 0 0 10 32 14 6 10 7 11 15 6 1 0 9 19 14 13 15 12 21 2 0 7 0 0 0 0 0 0 2 0 0 0 0 0 0 0
85 1 0 0 0 0 0 1 0 3 0 10 24 21 9 1 10 8 1 20 11 58 30 34 33 39 10 9 14 2 1 0 0 0 0 0 0 0 0 0 0 0 0
57 0 0 1 0 0 0 0 0 0 0 12 8 8 7 8 11 11 5 13 31 49 64 47 50 41 39 4 0 34 44 29 47 31 7 0 0 0 0 0 0 0 0
12 0 1 5 1 0 0 0 0 0 0 0 0 0 0 6 5 4 17 8 15 7 9 21 25 34 66 59 34 30 51 61 40 34 19 8 0 0 0 1 0 0 0

GFSSE_con_mucape_081.txt.gz
CAPE
1032 1122 1450 1612 1666 1584 1422 1461 1483 1579 1702 1784 1790 1739 1608 1538 1473 1388 1335 1401 1482 1474 1353 1232 1650 1644 1173 907 977 1067 990 896 848 840 807 672 610 634 549 535 550 273 757
1032 1174 1443 1669 1762 1674 1565 1646 1648 1702 1807 1836 1788 1716 1616 1550 1417 1357 1443 1518 1562 1475 906 1170 1391 1112 1027 1004 1127 1052 934 728 625 649 599 593 534 475 480 427 604 471 717
1227 1333 1449 1601 1792 1813 1720 1844 1873 1923 1966 1884 1774 1694 1620 1530 1439 1413 1490 1508 1446 1403 1323 1107 1130 980 716 1041 959 899 798 666 596 577 571 63 244 293 443 647 549 603 367
1406 1364 1463 1608 1789 1901 1860 1959 2029 2084 1995 1890 1763 1641 1570 1475 1456 1490 1505 1417 1458 1578 1458 1064 978 821 933 906 765 678 577 428 319 205 31 95 108 281 266 231 210 206 239
1573 1440 1443 1622 1759 1910 1928 2019 2043 2027 1915 1787 1657 1652 1577 1482 1520 1592 1439 1380 1437 1514 1508 1052 1019 849 797 575 479 349 217 113 42 19 19 27 49 172 194 82 22 22 18
1545 1683 1519 1613 1737 1915 2011 2070 2070 1969 1735 1652 1620 1648 1632 1766 1734 1523 1345 1391 1454 1446 897 1360 1083 849 478 347 157 50 16 2 2 0 3 39 26 93 24 20 14 7 17
1618 1745 1714 1617 1756 1934 2134 2127 2040 1852 1657 1598 1192 1326 1581 1550 1715 1608 1360 1267 1141 842 1064 1204 946 664 292 73 15 0 0 0 0 1 7 16 19 41 39 22 8 7 13
1674 1486 1808 1657 1756 1878 2034 1971 1640 1295 932 549 343 409 969 888 962 999 1167 1292 1127 993 942 771 614 357 71 36 0 0 0 0 0 0 2 3 21 18 7 2 6 14 13
1643 1505 1631 2138 1833 1834 1924 1723 1213 973 553 445 109 56 208 202 292 597 1027 911 1034 886 607 503 261 38 126 18 0 0 0 0 0 0 1 3 27 9 23 15 14 15 14
1489 1583 1681 1840 2076 1959 1600 1539 1073 879 480 241 147 23 46 40 236 433 415 596 702 667 339 219 33 50 45 1 0 0 0 0 0 0 1 0 13 24 24 20 21 15 15
1508 1558 1610 1516 1572 1784 1786 1367 1234 937 495 188 67 31 19 22 107 186 190 399 532 400 234 81 14 12 6 0 0 0 0 0 0 0 0 7 22 25 20 20 20 18 16
1295 1543 1514 1248 1077 1261 1342 1346 872 683 560 147 91 54 15 26 85 132 154 270 287 237 125 13 0 0 0 0 0 0 0 0 0 0 0 25 26 24 26 18 2 4 7
900 801 1163 1288 1140 986 920 776 672 668 430 243 103 59 45 69 86 100 146 173 183 141 5 0 0 0 0 0 0 0 0 0 0 0 8 28 28 21 20 3 3 2 9
854 872 778 981 1005 1034 843 645 444 561 197 79 71 42 67 65 120 123 113 125 91 61 0 0 0 0 0 0 0 0 0 0 0 0 7 19 23 18 21 17 13 15 13
532 625 700 880 775 730 551 478 491 49 47 67 50 31 63 58 88 134 96 80 12 38 0 0 0 0 1 0 0 0 0 0 0 0 0 11 15 22 17 13 13 11 11
493 448 429 332 355 240 392 246 181 36 40 54 44 48 61 83 139 95 50 14 4 14 3 0 0 0 0 0 0 0 0 0 0 0 0 0 7 17 22 11 11 11 11
234 186 199 255 359 279 373 157 241 39 24 42 47 58 53 125 90 41 50 0 1 4 11 0 0 0 0 0 0 0 0 0 0 0 0 0 2 5 13 17 12 10 11
169 144 149 139 205 441 218 167 101 75 42 41 59 41 15 63 60 65 23 4 0 0 0 0 0 0 0 0 1 0 0 0 0 0 0 0 0 0 4 14 14 17 11
142 99 73 2 0 32 354 101 168 108 51 42 94 34 26 14 48 64 8 0 0 0 0 0 0 0 0 0 2 0 0 0 0 0 0 0 0 0 0 4 7 9 14
120 130 93 5 0 0 4 54 144 69 62 36 71 30 8 3 76 75 2 0 0 0 0 0 0 0 0 0 0 2 0 0 0 0 0 0 0 0 0 0 0 0 1
130 141 93 32 1 4 1 7 5 45 33 15 22 34 40 68 62 0 0 8 1 0 0 0 2 0 0 0 3 10 4 0 0 0 0 0 0 0 0 0 0 0 0
150 141 102 31 1 2 3 3 5 29 37 37 36 32 62 47 7 4 0 9 7 0 0 0 0 1 2 0 5 24 6 6 3 0 0 0 1 0 0 0 0 0 0
132 154 113 0 0 0 0 0 2 12 2 2 8 45 63 25 12 5 0 4 7 2 1 0 0 0 0 0 2 18 3 1 14 19 11 2 14 13 3 2 0 0 0
127 155 108 0 0 0 0 0 4 0 0 19 31 53 24 10 8 7 8 10 16 14 0 4 12 3 5 5 3 10 1 0 5 0 0 0 24 13 6 0 0 0 0
141 169 84 0 0 0 0 3 0 5 0 25 5 20 26 12 45 9 8 2 2 8 19 37 46 46 45 18 3 0 0 2 6 0 0 0 5 0 0 0 0 0 0
141 164 15 0 0 0 0 0 0 0 0 0 8 4 39 21 11 6 12 6 2 22 11 45 66 61 48 35 43 1 9 21 25 17 13 19 33 20 4 0 0 6 3

GFSSE_con_mucape_084.txt.gz
CAPE
878 799 1256 1439 1535 1403 1479 1546 1616 1769 1925 1860 1804 1778 1789 1791 1759 1616 1534 1522 1587 1676 1569 1334 1701 1677 1311 1251 1206 1150 1209 1063 927 939 947 895 570 632 664 761 681 463 861
797 1048 1239 1298 1730 1440 1570 1629 1705 1896 2119 2103 1977 1894 1855 1822 1691 1659 1773 1657 1760 1736 1368 1595 1803 1591 1263 1051 1149 1074 1025 907 821 786 891 719 633 462 545 635 658 541 768
990 1140 1305 1361 1682 1601 1689 1737 1891 2081 2276 2250 2087 1987 1967 1896 1765 1776 1846 1716 1767 1485 1030 1635 1662 1410 1227 1252 1094 995 900 810 707 686 699 283 347 516 559 606 732 748 754
1065 1133 1331 1488 1588 1531 1767 1783 1974 1932 2181 2226 2165 2096 2018 1920 1843 1897 1680 1600 1574 1657 1725 1685 1320 1259 1300 1142 977 890 839 679 519 329 152 136 380 505 490 427 472 448 380
1282 1197 1297 1545 1549 1716 1809 1823 1914 1992 1756 2104 2102 2149 2050 1981 1961 2007 1590 1668 1784 1792 1822 1462 1446 1389 1119 871 771 663 501 323 155 42 53 95 116 263 243 144 125 190 275
1436 1319 1335 1550 1585 1828 1830 1938 1933 1937 1811 1821 1930 2000 2075 2027 2018 1928 1643 1655 1550 1523 1732 1614 1535 1155 795 599 477 333 183 70 11 35 56 87 30 82 32 14 28 31 36
1543 1289 1381 1549 1653 1902 1737 2021 1976 1797 1676 1741 1774 1400 1609 1434 1181 1533 1107 1138 1273 1309 1481 1370 1198 805 590 344 253 93 35 27 17 17 9 1 9 36 30 6 10 8 7
1552 1761 2098 1612 1692 1853 1790 1892 1760 1612 1625 1484 1307 1166 1172 1257 1157 973 1001 1070 1066 1108 1368 1084 779 577 358 165 77 24 29 13 3 0 0 17 120 45 28 7 8 15 17
1649 1605 2224 2000 1729 1573 1812 1568 1532 1182 1192 833 744 775 922 814 753 726 1080 1027 703 950 902 703 493 334 168 71 30 16 4 0 0 0 5 10 38 31 20 5 8 14 5
1689 1516 1875 2046 2506 1670 1636 1436 1374 996 841 569 339 349 249 238 250 418 652 636 907 708 755 514 209 252 115 28 19 14 1 0 0 0 1 8 35 30 17 4 4 6 10
1412 1531 1472 1983 2450 1682 1578 1492 1249 982 701 486 261 120 77 39 67 132 271 370 246 343 445 210 237 154 46 12 0 0 0 0 0 0 0 33 16 11 10 7 4 9 16
1387 1523 1651 1644 2151 1889 1465 1406 1293 992 871 549 290 84 58 51 28 19 147 133 205 194 232 168 132 39 0 0 0 0 0 0 0 0 0 22 25 17 21 9 15 12 4
1216 1426 1601 1630 1549 1321 1637 1572 1301 1065 619 366 305 71 44 29 53 55 94 92 80 110 193 91 37 26 13 0 0 0 0 0 0 0 4 27 45 18 18 16 14 14 12
916 1346 1499 1503 1209 893 954 1345 1111 892 515 269 320 55 63 55 28 81 86 66 52 66 121 85 8 11 13 0 0 0 0 0 0 0 7 22 35 29 18 20 17 6 3
790 921 1105 1297 1149 941 926 968 918 782 497 302 245 59 57 41 34 27 126 58 59 67 68 11 0 0 0 0 0 0 0 0 0 0 1 15 24 39 22 21 13 20 15
463 891 907 797 817 584 684 548 558 475 390 295 321 82 73 48 72 70 108 69 23 41 25 9 11 1 5 0 0 0 0 0 0 0 0 5 16 33 18 14 11 19 16
344 506 811 713 803 886 689 707 423 419 548 257 156 57 61 39 62 79 82 59 52 46 6 0 3 0 0 0 0 0 0 0 0 0 0 0 5 14 24 28 27 16 13
303 448 581 546 304 498 532 266 167 85 192 32 41 40 54 34 52 74 71 104 66 0 1 0 0 0 0 0 0 0 0 0 0 0 0 0 0 3 10 19 25 29 14
233 424 342 195 255 394 435 179 151 66 122 35 23 38 53 52 72 68 51 66 58 31 2 0 0 0 0 0 0 0 0 0 0 0 0 0 0 0 0 9 12 13 20
187 296 188 139 138 257 175 238 31 139 60 23 11 16 38 23 76 69 34 40 67 5 32 2 0 0 1 10 0 0 0 0 0 0 0 0 0 0 0 0 2 4 5
181 165 146 121 97 5 75 18 25 16 30 72 34 72 30 4 34 37 28 33 71 1 10 0 0 7 4 5 0 2 0 0 0 0 0 0 0 0 0 0 0 0 0
193 137 129 151 91 2 0 2 3 17 18 35 35 28 6 35 34 41 28 55 23 0 7 0 0 0 1 26 7 0 0 0 0 1 0 0 0 0 0 0 0 0 0
162 125 136 153 106 2 3 3 5 24 29 26 25 31 49 27 22 69 55 88 0 0 0 0 0 0 0 11 13 1 0 2 3 8 3 0 5 2 3 1 7 1 0
135 141 155 160 96 2 2 3 1 0 0 6 20 21 22 21 51 76 71 14 10 0 0 0 0 0 8 10 19 15 16 7 16 18 12 5 18 15 9 5 32 29 14
126 143 160 166 37 0 3 0 0 7 9 4 22 5 29 55 59 56 15 0 0 0 0 3 0 29 15 13 11 18 18 14 0 0 0 28 29 20 20 17 41 28 17
108 164 152 170 0 1 0 1 4 5 0 16 10 38 19 22 57 25 6 6 12 10 8 4 34 47 42 27 6 13 14 20 14 10 3 0 11 13 3 40 42 31 37

GFSSE_con_mucape_087.txt.gz
CAPE
848 1133 1081 974 1136 1553 1597 1631 1727 1780 1807 1861 1928 1908 1883 1897 1867 1869 1780 1811 1742 1745 1571 1304 1653 1615 1437 1209 1467 1419 1280 1124 984 962 1082 1053 802 780 731 900 796 631 906
1117 1290 962 1069 1284 1593 1684 1732 1837 1912 1987 2073 2033 1963 1933 1966 1935 1857 1781 1775 1803 1907 1653 1617 1957 1854 1552 1560 1447 1328 1181 1043 950 970 1030 963 836 736 688 818 759 674 905
1378 1401 1182 1027 1287 1605 1784 1802 2041 2263 2262 2255 2153 2094 2069 2054 1958 1923 1974 1943 1936 1985 1977 1889 2056 1807 1381 1444 1286 1196 1125 963 831 822 841 573 545 705 642 818 752 800 845
1382 1508 1428 1062 1138 1595 1771 1890 1764 2438 2483 2353 2306 2243 2192 2087 2037 2080 2072 1955 1955 2054 2105 1892 1824 1617 1491 1319 1132 1075 1004 859 751 711 536 460 502 658 572 532 753 745 674
1390 1384 1469 1006 1326 1325 1727 1878 1802 2414 2356 2292 2290 2356 2299 2206 2214 2209 2037 1834 1871 2031 2061 1949 1735 1627 1354 1058 997 927 811 535 425 408 451 561 558 550 563 520 584 494 505
1376 1350 1287 1094 1514 1461 1723 1916 1940 1979 2141 2135 2187 2328 2321 2294 2211 1684 1604 1809 2039 2185 2050 1670 1684 1457 1115 911 784 623 407 247 241 258 277 488 271 273 64 46 285 255 238
1539 1477 1249 1280 1293 1528 1735 1922 1943 1676 1824 2000 2133 2129 2175 2208 1683 1525 1268 1283 1355 1738 1738 1602 1330 1164 901 691 558 299 106 132 276 397 354 274 147 25 3 11 12 24 26
1567 1673 1571 1729 1391 1388 1687 1797 1759 1612 1619 1786 1958 1935 1627 1480 1273 1336 1244 962 1276 1552 1400 1298 1099 898 719 492 257 93 39 65 205 275 223 165 101 17 20 22 22 25 25
1507 1182 1383 1998 1767 1353 1513 1672 1586 1608 1633 1697 1616 1445 1395 1135 980 1132 1030 1000 939 1284 1125 972 831 612 505 249 122 58 35 17 135 130 61 33 140 20 29 23 25 25 22
1794 1760 1846 1769 2068 2194 1869 1557 1509 1479 1492 1402 1209 944 785 716 849 891 862 977 1021 1165 1023 777 572 411 239 144 95 63 46 18 25 10 10 29 68 30 29 24 14 24 15
1639 1562 2127 1644 2159 2006 1905 1724 1417 1399 1194 957 721 424 412 705 664 572 379 409 445 655 610 494 328 252 170 111 69 40 29 0 0 7 3 36 40 31 20 14 20 16 23
1486 1583 1765 2007 1908 1987 1485 1348 1357 1235 1094 701 689 421 665 581 455 208 247 176 278 375 261 280 197 201 126 88 56 43 13 2 2 0 5 23 40 23 21 21 15 18 19
1343 1442 1507 1986 2075 2416 1661 1514 1572 1195 1067 737 539 433 244 180 85 67 143 127 149 110 95 255 185 200 109 72 30 17 0 0 0 1 5 27 39 24 22 15 8 14 12
1353 1385 1383 1652 2124 2059 2066 1654 1220 1146 920 1011 624 257 265 83 47 41 310 299 107 76 81 241 223 101 31 6 4 0 0 0 0 1 7 24 43 31 28 11 21 25 22
1160 1441 1197 1532 1693 1810 1961 1617 1332 1108 1056 921 508 165 148 97 34 86 228 233 78 51 60 170 85 15 11 0 0 0 0 0 0 5 9 21 30 35 21 36 33 33 25
978 1155 1358 1344 1543 1467 1267 1261 1026 1020 727 633 577 257 143 49 47 161 391 118 112 26 35 70 85 23 17 0 0 0 0 0 0 13 13 18 15 31 36 33 32 28 20
781 911 1050 1280 1513 1187 955 742 728 701 544 380 536 262 231 94 137 200 153 169 36 32 16 109 101 67 0 0 0 0 0 0 2 15 16 29 18 21 28 48 32 14 13
543 666 757 904 1061 992 595 453 281 689 509 433 395 342 147 105 160 124 108 60 30 36 57 105 63 0 0 2 0 0 0 0 15 19 17 26 28 18 8 20 28 31 24
424 541 610 786 879 695 606 383 428 598 376 274 200 135 217 143 96 114 42 22 23 42 62 87 49 25 4 1 0 0 0 0 10 11 9 19 22 22 14 12 17 21 20
348 475 517 598 694 577 326 200 203 83 94 31 86 82 91 76 137 99 48 41 27 42 40 89 43 7 0 1 0 1 4 5 8 12 8 8 21 25 21 18 16 10 11
264 329 307 475 477 210 257 229 104 17 29 48 81 56 49 68 93 83 56 44 20 41 47 34 0 0 5 0 3 0 0 0 7 8 9 5 6 13 10 11 11 8 6
151 202 275 419 268 174 184 197 134 49 34 20 58 66 30 44 90 69 50 38 19 46 57 34 0 1 1 1 0 1 1 1 10 6 7 4 10 9 8 3 2 2 1
61 105 268 304 254 181 145 3 23 50 25 36 28 44 26 25 42 57 37 22 24 40 8 10 3 0 0 1 0 25 36 39 5 8 10 6 2 4 4 3 0 5 13
28 54 211 275 210 196 118 9 13 14 25 2 41 1 17 40 36 18 56 15 19 20 49 27 5 14 28 22 14 13 23 40 80 51 0 1 2 1 2 0 2 10 11
4 72 216 222 196 197 5 5 15 3 14 1 0 15 25 51 54 13 21 43 24 37 45 0 26 15 43 46 20 33 32 18 43 57 68 17 20 21 29 25 29 10 6
0 88 197 183 199 182 1 7 1 20 15 0 8 5 17 47 26 68 69 52 40 67 1 0 30 17 6 38 68 111 57 46 36 88 67 82 113 65 60 58 35 25 20

GFSSE_con_mucape_090.txt.gz
CAPE
864 1103 1176 1298 1340 1580 1640 1666 1796 1814 1853 1879 1993 2023 2000 2035 2029 2050 2058 2094 2077 2132 1988 1564 1557 1476 1393 1234 1415 1631 1523 1307 1180 1293 1275 1282 1070 955 955 1085 952 775 932
1074 1426 964 1190 1360 1695 1767 1803 1907 1922 1981 2067 2075 2076 2048 2108 2156 2215 2187 2085 2187 2262 1889 1647 1722 1612 1504 1663 1707 1497 1333 1240 1170 1174 1162 1130 960 897 830 903 885 701 934
1476 1666 1338 1141 1458 1804 1890 2002 2135 2174 2198 2228 2234 2150 2153 2234 2292 2193 2205 2092 2122 2250 1981 1783 1758 1723 1607 1862 1539 1412 1324 1201 1117 947 1043 892 847 865 780 874 870 941 926
1493 1849 1732 1121 1382 1803 1927 2079 2243 2404 2425 2402 2320 2176 2324 2311 2255 2220 2166 2078 2173 2228 2219 1862 1872 1801 1708 1560 1401 1312 1186 1066 974 979 852 750 755 755 645 649 676 817 726
1569 1652 1858 1088 1122 1734 1924 2054 2216 2378 2367 2359 2350 2476 2453 2384 2361 2378 2173 2074 2188 2376 2325 2024 1909 1838 1599 1309 1209 1140 1041 916 882 787 886 805 647 790 750 651 594 625 686
1376 1543 1427 936 1138 1683 1943 2018 1812 2348 2272 2229 2293 2472 2477 2456 2474 2346 2017 2085 2246 1956 2029 1933 1770 1665 1272 1129 1070 897 733 723 647 733 623 659 580 562 587 465 623 548 474
1566 1653 1771 927 1127 1506 1963 2030 1809 1996 2125 2160 2296 2356 2374 2418 2306 1970 1889 2026 2056 2010 1760 1690 1764 1358 1106 931 775 567 448 474 476 627 561 503 532 315 215 195 137 182 134
1955 1993 1987 1125 1198 1389 1791 1955 1609 1822 1997 2116 2163 2175 2315 2133 1655 1653 1649 1684 1693 1569 1484 1465 1342 1106 889 690 493 381 276 348 534 430 287 280 186 56 4 24 23 27 15
2300 2215 1865 1732 1482 1229 1497 1773 1709 1416 1689 2018 1999 1932 1779 1454 1274 1457 1385 1557 1317 1364 1330 1272 1047 829 702 500 406 343 234 189 358 359 239 115 193 2 6 17 23 19 14
2396 2417 2072 1773 1835 1937 1925 1531 1665 1560 1501 1640 1715 1666 1356 1187 1115 1221 1123 1126 1272 1317 1222 1040 694 633 493 366 290 176 97 157 242 212 281 145 121 4 19 23 22 18 21
2526 2285 2208 1924 2127 1955 2180 2041 1446 1537 1619 1654 1578 1554 1523 1831 1431 1006 612 464 629 794 890 720 558 455 367 257 191 113 71 222 193 110 82 79 113 22 22 16 17 15 16
2342 2657 2088 2316 2177 2225 2078 2319 2082 2011 1981 2012 1857 1611 1895 1492 1308 753 325 165 336 453 588 415 318 291 315 337 208 114 278 167 111 45 40 56 92 30 11 22 19 18 20
1929 2341 2529 2180 2088 2353 2307 2090 2199 2311 2135 1833 1726 1667 1554 1436 950 765 483 442 499 321 296 219 191 482 366 349 316 275 139 197 75 72 10 27 46 23 25 16 20 23 21
1510 2141 1879 2246 2256 2271 2323 1790 1700 1756 1976 1726 1657 1252 1231 820 855 642 171 171 240 354 231 140 230 520 308 246 271 219 176 117 64 40 14 12 44 40 33 23 13 17 17
1344 2108 2206 1861 2051 2173 1971 1529 1385 1381 1414 1468 1406 1083 773 510 479 280 117 197 481 184 106 89 183 316 313 237 197 193 138 55 41 20 24 19 38 61 31 21 37 25 20
647 1674 2401 1752 1839 2029 1953 1719 1531 1483 1053 1097 1188 760 890 384 258 180 214 407 544 231 117 98 134 311 280 232 222 172 71 31 20 5 16 22 26 41 44 46 39 33 32
296 1095 2155 2034 1551 2050 2351 1636 1485 1290 1108 842 735 548 515 313 153 200 180 166 392 186 46 74 215 303 250 200 179 124 29 16 9 8 15 24 15 19 40 57 51 38 28
78 671 1811 1909 1461 1626 1865 1885 1295 1216 992 676 513 272 208 185 109 444 150 108 235 94 38 65 202 273 207 172 138 96 14 9 12 25 15 21 20 16 26 40 39 41 32
7 539 1532 2061 1490 1481 1619 1476 1340 884 644 508 386 194 106 107 79 202 260 143 75 34 37 87 162 213 166 148 93 48 19 28 18 9 8 57 34 18 23 16 18 23 27
14 472 1150 1824 1557 1258 1277 1253 1020 728 358 288 160 110 213 53 80 141 98 78 48 35 29 59 165 201 187 140 64 34 75 25 17 9 12 30 37 23 21 23 18 15 12
13 545 953 1634 1215 1127 1126 1046 820 570 281 114 40 88 156 93 88 136 82 40 21 30 26 127 160 214 150 159 74 60 88 19 21 29 34 30 32 33 30 27 23 14 4
64 576 909 1394 953 1183 1404 1239 732 358 282 112 12 7 21 44 91 108 72 40 18 25 19 201 188 176 180 172 93 78 40 51 22 23 29 24 38 38 30 28 42 15 6
176 580 829 1213 949 1288 1056 817 565 444 242 190 30 8 15 32 112 80 50 51 22 16 8 130 201 150 110 162 136 93 67 26 42 31 28 19 21 27 22 20 21 16 14
266 516 743 978 1177 1018 845 716 608 424 182 129 23 10 44 46 42 78 42 44 33 24 42 130 221 212 196 135 136 103 59 44 92 87 83 50 20 15 31 19 20 17 21
278 562 644 941 873 686 582 565 370 186 113 234 188 53 33 5 6 47 45 40 45 11 109 161 187 189 113 154 113 140 161 183 162 100 107 109 108 75 89 114 51 41 37
388 176 382 747 731 558 474 328 276 172 32 103 21 3 0 14 16 22 23 32 23 12 73 89 42 196 194 212 148 149 153 133 177 143 100 164 164 158 146 120 100 104 91

GFSSE_con_mucape_093.txt.gz
CAPE
465 1122 1241 1533 1560 1696 1686 1823 1731 1702 1805 1894 2020 2038 2056 2117 2110 2135 2136 2101 2082 2279 2076 1835 1697 1568 1400 1286 1411 1761 1613 1487 1424 1469 1498 1490 1059 931 931 1021 913 841 1053
721 1191 1147 1436 1569 1719 1769 1800 1921 1861 1923 2022 2100 2105 2133 2188 2253 2254 2257 2230 2235 2337 1955 1875 1755 1667 1487 1567 1788 1593 1481 1404 1371 1337 1351 1269 1080 963 851 920 1024 830 1002
1006 1343 1287 1208 1529 1754 1851 1940 2093 2138 2142 2172 2214 2181 2237 2334 2409 2382 2365 2357 2391 2368 2045 1892 1825 1738 1623 1761 1642 1576 1500 1337 1240 1251 1351 869 961 953 924 928 947 976 875
875 1480 1458 1221 1537 1846 1939 2038 2211 2365 2346 2264 2287 2256 2199 2423 2475 2463 2296 2317 2363 2326 2198 1996 1916 1898 1936 1741 1576 1509 1415 1262 1117 1097 784 773 846 949 842 793 1029 999 813
637 1273 1846 1214 1482 1828 1963 2087 2239 2355 2302 2269 2288 2257 2413 2452 2471 2500 2245 2239 2388 2317 2383 2163 1877 1973 1796 1511 1393 1345 1250 1124 969 927 675 718 863 891 755 756 630 663 668
725 1027 1564 973 1315 1795 1982 2155 2288 2298 2250 2212 2215 2287 2478 2402 2490 2412 1932 2288 2447 2461 2273 2183 1892 1765 1435 1293 1242 1194 1070 906 691 554 780 685 717 669 731 649 758 712 632
898 1348 1783 916 1178 1727 2017 2099 1936 2106 2250 2172 2228 2291 2014 2394 1965 1807 1953 2200 1996 2196 2087 1953 1875 1487 1276 1156 1086 965 864 583 815 589 791 839 791 767 620 424 370 413 316
1153 1531 1989 970 1155 1512 1871 1834 1522 1935 2273 2220 2198 2175 2252 2148 1699 1959 1993 1899 2015 1922 1665 1711 1436 1275 1120 971 824 669 638 475 496 413 679 519 574 576 442 201 154 237 121
1691 2038 2197 1610 1402 1196 1488 1733 1430 1659 2021 2123 2066 1993 1998 1861 1592 1818 1747 1541 1422 1624 1630 1440 1224 1021 922 746 641 550 452 309 708 441 406 263 370 209 119 67 16 20 35
2263 2427 2382 2152 1868 1841 1812 1591 1607 1549 1763 2035 1903 1662 1518 1299 1282 1316 1285 1374 1329 1386 1308 1215 1002 846 698 592 523 362 390 205 291 338 306 172 219 0 0 8 15 15 22
2450 2570 2567 2255 2121 2067 1942 1796 1575 1562 1499 1749 1830 1667 1484 1841 1787 1454 1138 1053 956 847 673 704 682 669 512 469 401 289 228 372 420 175 265 110 215 7 7 13 20 19 21
2454 2456 2719 2495 2266 2183 1746 2093 1925 1915 1941 2059 1922 1894 2050 1668 1687 1164 752 489 384 411 479 449 363 483 397 504 366 216 347 364 106 67 86 125 174 21 16 19 16 12 19
2110 2296 2527 2554 2557 2417 1875 1950 1968 2244 1990 2053 2092 1764 1601 1643 1691 1669 967 417 301 246 598 355 213 313 644 782 644 493 336 135 44 29 26 78 102 27 25 26 18 14 26
1299 1898 2679 2437 2592 2683 2328 1987 1892 1888 2424 2185 2260 2459 2215 1873 1888 1475 934 527 300 209 517 252 199 220 338 457 589 372 188 122 113 58 13 10 38 35 28 21 30 23 19
261 1547 2574 2270 2534 2572 2833 2402 2267 2244 2082 2172 2363 2141 1929 1676 1612 1152 527 529 663 325 120 87 119 165 168 278 320 296 243 224 78 82 14 0 28 52 35 17 19 29 14
0 559 2880 2628 2523 2468 2611 2528 2424 2207 2014 2102 1972 2151 1822 1774 1399 864 563 367 262 201 114 94 103 107 139 135 298 195 186 127 42 33 13 9 19 40 47 35 21 30 30
0 0 2567 3174 2359 2583 2341 2289 2097 2003 1978 1869 1910 2077 1796 1522 1158 817 445 439 805 177 279 84 80 61 99 140 228 229 93 42 27 15 20 25 23 15 33 44 61 34 27
0 0 637 2280 2235 2222 1986 2153 2004 1905 1983 1876 1555 1687 1552 1269 855 525 194 481 261 170 148 72 65 59 67 107 179 105 50 44 27 16 20 32 23 8 20 37 50 44 41
0 0 332 2034 2375 1847 2248 1920 1838 1857 1783 1818 1690 1347 1075 838 639 341 736 226 122 57 92 162 52 57 69 135 127 140 58 17 20 14 43 19 15 10 27 20 19 24 33
0 0 146 1649 2566 1718 1884 1868 1607 1832 1566 1233 1228 1165 732 629 485 620 327 121 282 39 71 100 48 15 104 148 94 65 49 44 15 13 19 15 4 16 15 34 17 18 16
0 0 214 1164 2517 1913 1856 1875 1375 1511 1175 1265 1047 882 559 373 262 110 85 137 91 16 33 19 41 42 63 282 148 90 129 112 61 26 31 27 33 34 15 43 29 18 1
0 0 256 794 1806 1735 1742 1715 1747 1402 1243 932 739 363 333 232 132 21 98 57 19 25 35 23 32 32 55 154 124 80 77 51 67 41 33 28 63 30 30 46 19 15 13
0 0 172 707 1490 1616 1691 1727 1610 1247 811 819 568 544 402 226 65 45 87 46 37 30 30 13 39 32 105 94 125 18 51 39 36 20 54 21 70 27 35 22 18 13 20
0 28 265 677 1516 1300 1694 1659 1550 807 577 639 615 417 122 15 5 47 36 59 62 23 7 29 36 47 92 111 137 150 83 55 41 33 24 36 33 35 62 21 17 9 7
0 44 426 749 1364 1375 1735 1562 1583 1188 1015 662 586 499 179 6 11 76 34 47 52 14 7 25 16 118 112 161 146 137 162 127 150 104 45 65 35 26 26 75 33 44 36
0 380 721 912 1183 1302 1485 1434 1379 1136 809 394 609 615 184 43 5 22 39 42 31 20 24 6 64 91 133 236 219 173 168 132 120 127 120 154 153 110 99 133 160 106 74

GFSSE_con_mucape_096.txt.gz
CAPE
981 1198 1301 1503 1691 1779 1738 1561 1523 1584 1671 1810 1898 1896 1972 2031 2047 2062 2110 2122 2252 2406 2191 1883 1825 1613 1424 1295 1637 1755 1603 1456 1375 1536 1570 1568 1156 1006 1040 1037 979 796 1172
1064 1277 1296 1499 1662 1733 1866 1756 1615 1657 1776 1938 1977 1974 2031 2082 2124 2183 2164 2182 2386 2483 2087 1897 1802 1624 1594 1694 1683 1587 1496 1406 1331 1362 1436 1437 1128 1007 989 1183 1001 972 1095
1000 1436 1388 1406 1619 1736 1838 1993 1860 1883 1958 2073 2092 2069 2124 2201 2241 2272 2247 2259 2420 2519 2210 1937 1876 1718 1810 1703 1594 1565 1500 1381 1246 1167 1078 719 843 1174 1053 1101 1102 1101 919
1197 1179 1334 1279 1508 1738 1822 1906 2077 2129 2130 2151 2189 2198 2239 2309 2095 2212 2327 2315 2395 2354 2292 2007 1962 1878 1838 1654 1549 1483 1395 1294 1068 1153 697 736 704 1054 959 914 1098 960 899
1174 1123 1316 1180 1434 1782 1855 1938 2107 2196 2145 2110 2177 2291 2279 2256 2255 2308 2114 2323 2311 2390 2398 2151 2113 2043 1718 1432 1393 1383 1283 1041 876 764 718 682 602 858 962 898 799 912 621
1066 1355 898 1083 1364 1752 1896 2000 2086 2167 2090 2083 2124 2232 2414 2278 2325 2112 2009 2326 2413 2035 2238 2225 2232 1850 1427 1272 1253 1216 1078 804 579 548 611 631 388 853 796 774 854 780 580
1297 1911 1190 1089 1321 1703 1986 2100 2055 2092 2066 2053 2120 2185 2340 2290 2214 1827 1713 2071 2137 2076 2171 2025 1922 1519 1303 1201 1174 1030 817 544 535 485 584 577 582 822 876 613 621 562 379
2589 2360 1448 1050 1261 1560 1840 1810 1946 2026 2018 2195 2018 2161 2147 2188 1694 1694 1772 1843 1947 1918 1905 1578 1559 1367 1237 1134 1014 843 649 479 601 524 460 473 693 731 586 410 297 272 107
2605 2658 1681 1325 1327 1341 1545 1497 1400 1505 1663 2092 2173 2085 2030 1942 1518 1635 1674 1578 1435 1477 1415 1537 1346 1183 1136 990 819 691 571 277 401 464 332 359 694 521 418 178 40 55 34
2933 3062 2205 1872 1572 1418 1423 1429 1213 1425 1751 2253 2196 1997 2039 1779 1400 1493 1423 1332 1163 1255 1205 1199 977 917 926 806 676 563 359 305 371 262 130 139 488 361 236 95 16 31 41
2959 2969 2876 2355 1965 1842 1709 1490 1316 1421 1520 2041 1958 1917 1991 1732 1496 1428 1292 1112 916 794 694 514 434 606 691 610 537 396 253 200 223 176 138 210 360 73 41 15 35 20 9
2781 3068 2781 2702 2323 2221 1801 1704 1595 1659 1596 1705 1817 1885 1731 1786 1579 1339 1113 883 611 614 443 414 310 293 316 297 391 240 123 227 124 96 56 154 233 17 5 0 10 19 7
2541 2530 2840 2578 2601 2550 1769 2057 1670 1737 1642 1779 1939 2008 2125 1610 1553 1249 901 690 429 348 269 215 202 167 263 287 207 160 151 119 92 43 37 82 107 20 8 9 10 2 19
2062 2601 2529 2649 2708 2707 2246 2151 1861 1780 1725 1837 1893 2032 1817 1571 1552 1254 818 575 356 222 175 185 131 139 106 235 214 290 116 71 19 57 39 28 32 28 23 20 15 31 24
46 2201 2649 2409 2679 2757 2681 2049 2249 1862 1832 1968 2114 2115 1944 1634 1553 1237 1001 637 452 309 184 134 71 43 91 100 132 184 131 71 25 29 25 1 0 7 27 15 10 21 18
0 246 2716 2443 2630 2524 2467 2452 2132 2413 2323 2151 2079 2015 1916 1747 1613 1201 903 702 461 374 231 120 63 52 32 71 104 154 130 73 46 36 8 0 1 4 33 12 25 11 20
0 0 2767 2551 2496 2566 2493 2484 2302 2040 1942 2038 2008 1945 1798 1626 1444 1054 840 605 465 329 162 99 66 6 66 82 71 76 143 92 36 29 2 0 7 6 20 43 42 30 20
0 0 2270 2807 2539 2528 2457 2287 1893 2050 1855 1683 1677 1941 1839 1689 1318 1056 767 574 410 252 130 105 64 76 53 38 34 58 120 29 26 0 0 0 0 11 22 25 36 34 35
0 0 129 2832 2760 2340 2208 1780 2391 1674 1817 1536 1437 1436 1723 1617 1217 864 569 510 350 189 136 80 56 46 9 39 37 39 53 25 6 0 0 0 0 3 8 20 15 21 33
0 0 35 2978 2669 2255 2048 1598 2315 2268 1823 1638 1521 1294 1423 1293 1068 814 518 373 255 137 102 72 44 34 15 12 160 73 46 4 0 12 6 0 0 1 3 5 9 14 16
0 0 61 1808 2601 2146 1824 1529 2289 2207 1830 1914 1467 1356 1168 1089 684 802 712 236 148 89 83 45 40 35 16 35 37 38 78 3 0 17 12 0 0 0 15 11 3 0 4
0 0 31 1191 2460 1910 1664 1501 1236 1967 1714 1528 1328 904 972 1154 612 749 356 182 99 55 16 50 38 49 9 33 1 0 0 33 44 19 28 18 4 0 0 0 0 0 0
0 9 37 457 2481 2132 1692 1367 1172 1402 1426 1523 1430 759 1023 1075 813 483 264 164 97 35 29 42 29 39 6 24 24 0 0 0 18 28 29 12 28 16 1 0 0 0 0
0 13 0 161 730 2225 1636 1239 1411 1434 1111 860 727 1044 734 301 278 237 136 97 53 22 33 39 25 28 33 0 30 3 3 0 0 11 22 21 30 16 18 11 5 4 0
0 54 67 199 454 1872 1624 1429 1495 1317 1074 801 785 536 494 386 230 158 90 43 54 66 24 48 38 51 8 1 2 0 28 15 0 0 0 1 21 10 0 3 2 0 0
0 34 281 476 948 1705 1565 1524 1740 1311 1064 775 645 555 309 128 49 40 35 26 39 13 42 60 26 18 15 13 20 1 9 44 3 0 1 0 0 0 0 0 3 8 0

GFSSE_con_mucape_099.txt.gz
CAPE
910 1098 1396 1531 1503 1433 1374 1344 1347 1422 1570 1744 1700 1657 1727 1822 1853 1908 2019 2169 2280 2305 2142 1858 2095 1956 2039 1699 1810 1762 1667 1357 1436 1436 1715 1717 1300 1217 1245 1287 1108 880 1261
951 1085 1377 1539 1626 1568 1487 1406 1407 1507 1725 1849 1778 1755 1792 1857 1923 1981 2121 2285 2407 2427 1986 1881 1840 1762 1830 1691 1784 1719 1596 1151 1264 1387 1546 1538 1305 1271 1146 1236 1077 1044 1168
959 1146 1265 1446 1653 1745 1682 1588 1567 1721 1890 1937 1854 1843 1946 2018 2061 2025 2108 2302 2396 2437 2012 1965 1865 1900 1724 1723 1652 1630 1528 1280 1221 1140 1169 846 933 1334 1197 1246 1183 1202 1160
1220 1189 1248 1369 1535 1717 1785 1678 1697 1908 2006 2034 1976 2005 2110 2151 2174 2137 2103 2182 2444 2501 2183 2018 1925 1725 1681 1645 1560 1524 1383 1244 1190 1043 805 878 986 1230 1207 1108 1169 1184 1124
999 1249 1329 1392 1504 1623 1708 1818 1784 1916 1922 1981 2001 2155 2237 2251 2281 2257 2071 2145 2398 2341 2193 2073 2031 1813 1596 1415 1372 1348 1265 1147 910 757 726 807 776 948 1068 999 1104 987 764
873 1229 1183 1277 1464 1627 1719 1824 1873 1863 1810 1870 1942 2149 2264 2302 2370 2234 1994 2224 2349 2251 2311 2447 2232 1716 1351 1229 1226 1192 1043 824 737 710 683 716 570 927 919 960 831 708 358
1210 1133 1006 1234 1442 1620 1794 1871 1897 1927 1861 1877 1903 1978 2159 2265 2226 2032 1895 2073 2046 2183 2262 1963 1843 1479 1271 1145 1157 986 703 606 549 560 475 588 675 957 879 712 759 567 349
1624 1207 1055 1306 1459 1593 1672 1688 1840 1939 1829 1601 1866 1935 2098 2126 1901 1709 1698 1690 1851 1922 1842 1691 1513 1349 1232 1134 1003 722 517 581 548 542 566 521 831 993 738 508 370 382 101
1719 1351 1104 1276 1424 1481 1514 1593 1757 1926 1864 1339 1606 1922 2056 1951 1638 1588 1646 1538 1591 1599 1351 1473 1317 1204 1210 1048 817 599 526 526 486 407 420 497 700 882 553 382 110 2 5
1919 1557 1089 1146 1285 1320 1332 1455 1669 1780 1477 1414 1965 1685 1918 1886 1572 1497 1441 1290 1204 1400 1445 1075 898 853 913 722 628 532 360 464 376 357 332 383 719 676 437 150 14 14 26
2120 1932 1610 1275 1216 1209 1247 1216 1241 1294 1235 1736 2182 1587 1751 1759 1496 1381 1428 1203 1085 1121 823 692 594 450 514 427 373 421 303 325 244 225 198 398 731 468 350 200 83 33 30
2437 2163 2013 1616 1441 1262 1345 1273 1143 1389 1293 1452 1972 2416 1814 1742 1586 1360 1308 1115 914 817 494 298 247 246 302 271 130 183 186 241 203 131 89 273 631 431 143 10 22 18 8
2352 2605 2308 2127 1717 1647 1625 1194 1219 1272 1431 1331 1756 1869 1797 1610 1465 1390 1218 992 762 558 337 175 111 111 163 161 109 112 107 174 121 138 29 135 366 97 16 2 2 8 4
2366 2642 2491 2372 2132 1927 1743 1596 1133 1306 1305 1381 1477 1686 1699 1550 1107 1098 1035 844 704 442 349 205 90 141 153 253 142 129 92 96 109 49 32 51 86 19 11 7 6 8 14
1917 2548 2638 2468 2294 2237 1981 1775 1394 1496 1379 1401 1533 1667 1824 1450 1093 1066 1117 878 725 497 405 277 130 93 86 107 92 102 86 90 79 26 17 15 2 15 14 13 15 27 26
0 2322 2646 2522 2299 2075 2130 2002 1625 1638 1428 1538 1524 1576 1598 1352 1226 1065 1045 938 819 667 545 383 181 100 60 68 72 82 42 69 63 19 11 0 0 2 11 23 28 9 21
0 6 2381 2559 2400 2226 2063 1975 1977 1712 1695 1721 1737 1710 1653 1382 1364 1220 1123 985 918 758 673 398 199 107 41 55 50 79 55 52 54 37 12 0 0 0 0 38 34 26 19
0 0 2064 2327 2476 2445 2243 2265 1876 1871 1898 1792 1805 1792 1686 1460 1405 1286 1161 1034 824 687 504 327 213 89 46 33 36 12 45 54 61 46 21 0 0 0 0 21 34 30 27
0 0 1392 2372 2339 2598 2379 2160 2101 1918 1666 1912 1862 1762 1657 1478 1359 1226 1066 979 792 653 434 283 134 73 30 28 34 32 25 31 42 48 2 0 0 0 0 10 19 26 30
0 0 221 2391 2368 2503 2443 2298 2208 1767 1889 1566 1704 1664 1540 1544 1348 1202 1067 946 739 573 447 240 84 54 67 45 50 40 33 13 30 5 0 0 0 0 0 3 11 14 16
0 0 32 2400 2330 2340 2466 2331 2216 1645 1519 1639 1291 1247 1345 1721 1470 1231 965 947 782 517 362 122 46 65 69 46 17 63 37 29 3 0 3 0 0 0 0 0 8 7 9
0 0 69 2428 2394 2252 2390 2116 1889 1419 1337 1383 1992 1704 1207 1899 1611 1640 1105 574 531 461 314 77 44 49 61 42 14 1 4 29 4 1 1 0 0 0 0 0 1 0 0
0 0 919 2440 2340 2297 2191 1902 1661 1393 1166 1195 1628 1650 1771 995 1188 1458 976 583 458 218 134 65 54 41 34 29 5 0 13 17 0 3 0 0 0 0 0 0 0 0 0
0 0 813 2436 2385 2304 1944 1627 1458 1226 1053 936 919 1129 1340 1397 1164 996 892 887 430 202 148 70 102 23 40 12 38 14 0 0 0 0 10 8 5 0 0 0 0 0 0
0 0 445 2286 2196 1987 1735 1569 1260 1160 1042 873 1297 1686 1320 1264 1154 858 752 572 423 146 165 60 11 10 17 18 1 0 0 3 0 0 0 8 14 1 0 0 0 0 0
0 0 0 2028 2139 1933 1588 1434 1244 1059 1108 905 1204 989 929 838 723 700 294 151 142 71 82 73 36 9 32 19 0 6 1 2 0 0 0 0 0 0 2 0 0 0 0

GFSSE_con_mucape_102.txt.gz
CAPE
872 1230 1283 1439 1510 1473 1375 1321 1317 1372 1558 1556 1550 1707 1800 1836 1844 1957 2059 2099 2126 2266 1911 1750 2086 2118 2022 1735 1924 1728 1585 1431 1548 1654 1630 1584 1420 1402 1334 1434 1255 1011 1381
916 1304 1346 1437 1528 1548 1479 1416 1397 1528 1726 1699 1631 1688 1760 1819 1913 2065 2135 2155 2203 2199 1775 1724 1918 2031 1843 1790 1809 1665 1633 1525 1494 1558 1596 1595 1350 1212 1256 1355 1296 1263 1389
1046 1363 1418 1425 1521 1589 1628 1596 1622 1795 1892 1822 1743 1761 1856 1927 2017 2127 2187 2224 2247 2242 1920 1725 1928 1936 1802 1816 1714 1612 1544 1509 1501 1526 1496 1154 1187 1197 1244 1280 1251 1317 1297
1106 1376 1463 1504 1567 1610 1588 1637 1727 1947 1944 1902 1895 1953 1994 2049 2060 2182 2165 2170 2284 2342 2022 1855 1790 1722 1700 1674 1578 1484 1457 1286 1201 1137 1024 1069 1044 1306 1247 1184 1151 1273 1298
1139 1273 1440 1591 1667 1654 1602 1630 1729 1904 1911 1882 1928 2104 2143 2195 2166 2208 2089 2234 2383 2452 2200 1894 1605 1661 1577 1402 1381 1355 1334 1107 900 911 977 981 1144 1141 1218 1182 1122 1157 1095
1180 1210 1423 1571 1690 1788 1741 1731 1761 1810 1771 1775 1892 2137 2266 2364 2322 2143 2006 2291 2462 2425 2409 2142 1765 1548 1248 1167 1206 1212 1012 847 794 875 887 897 861 1125 1159 967 1051 944 838
1117 1232 1410 1540 1617 1755 1930 1908 1800 1737 1726 1741 1882 2040 2181 2350 2321 2014 1984 2158 2229 2316 2348 2210 1781 1328 1146 1083 1120 913 721 785 726 743 696 676 826 1081 946 781 795 585 412
957 1080 1355 1510 1642 1779 1847 1837 1773 1708 1725 1723 1816 1942 2118 2182 2080 1874 1846 1892 1953 2055 1924 1729 1405 1223 1119 1079 927 665 659 732 671 565 579 751 1014 1094 974 554 442 407 121
1031 983 1192 1429 1575 1694 1736 1730 1788 1792 1765 1773 1768 1886 1979 1943 1801 1762 1758 1730 1768 1608 1573 1480 1229 1125 1136 955 669 593 588 558 536 520 624 649 992 1017 894 463 228 35 3
1140 982 1151 1378 1518 1470 1584 1663 1806 1845 1699 1551 1703 1860 1938 1821 1642 1528 1630 1625 1457 1346 1374 1071 915 840 936 698 546 529 559 534 464 461 544 530 894 953 759 387 81 10 6
1481 1074 1110 1224 1387 1332 1353 1568 1778 1886 1706 1373 1403 1609 1921 1790 1615 1457 1403 1368 1295 1296 908 749 721 599 497 409 342 331 460 448 412 360 351 650 951 881 531 154 27 13 17
1684 1517 1284 1085 1213 1344 1337 1525 1708 1779 1481 1355 1279 1173 1932 1762 1601 1432 1410 1250 1177 1064 707 417 326 275 232 155 195 176 337 326 275 229 302 483 955 690 442 192 74 19 16
1938 1811 1639 1270 1108 1291 1390 1288 1411 1416 1105 1192 1919 1462 1519 1775 1584 1391 1366 1250 1059 927 714 416 278 294 168 126 101 144 95 146 203 211 208 369 815 649 449 11 0 15 18
2157 2019 1970 1855 1492 1186 1390 1175 1193 1501 1157 1167 1614 1642 1717 1838 1622 1410 1292 1093 966 882 650 484 186 74 126 89 57 36 45 81 132 138 148 291 493 648 185 16 3 9 16
2058 2382 2201 2215 2013 1675 1507 1312 1059 1268 1452 1126 1241 1356 1731 1707 1465 1380 1254 1018 908 815 676 525 354 179 164 160 107 62 38 51 78 110 94 171 224 309 65 14 15 16 13
2018 2420 2372 2331 2277 2107 1635 1685 1416 1101 1131 1241 1374 1492 1613 1564 1360 1227 1090 984 881 831 716 593 538 503 178 186 179 91 55 51 46 75 47 61 10 9 23 16 15 19 21
574 2299 2550 2453 2453 2340 2137 1782 1813 1482 1172 1165 1222 1452 1731 1517 1278 1020 1048 1011 932 870 803 738 678 654 319 77 84 48 42 56 46 56 38 30 0 0 0 21 39 35 25
0 407 2531 2523 2532 2490 2354 1960 1920 1836 1340 1303 1363 1363 1625 1636 1348 1093 1089 1169 1112 1012 985 880 794 776 409 122 70 60 49 42 50 52 36 12 0 0 0 4 34 37 44
0 0 1969 2473 2485 2570 2420 2159 1993 1966 1577 1569 1461 1414 1549 1624 1429 1286 1217 1206 1109 1043 917 1188 1231 792 277 189 117 58 45 32 46 51 45 33 0 0 0 8 17 21 36
0 0 847 1971 2264 2423 2402 2228 2000 1870 1893 1886 1726 1720 1583 1662 1509 1365 1325 1293 1197 1052 806 1066 1076 743 268 136 59 74 34 27 39 45 34 70 13 0 0 0 9 6 16
0 0 0 1605 2002 2298 2368 2111 1845 1565 1961 1986 2020 1874 1757 1655 1544 1457 1411 1304 1128 1001 583 705 905 629 198 95 72 14 22 20 36 35 42 19 0 0 0 0 4 9 8
0 0 0 1256 1857 2217 2168 2086 1680 1670 1725 1699 1884 1927 1817 1627 1505 1434 1267 1137 995 1055 1254 389 595 205 138 75 53 39 5 0 10 18 34 2 0 0 0 0 0 4 0
0 0 0 607 1810 2103 2113 2012 1876 1710 1458 1587 1439 1418 1546 1712 1628 1402 1283 1452 1182 822 451 573 319 275 29 27 58 41 0 0 0 5 3 5 0 0 0 0 0 0 0
0 0 0 271 1775 2032 2150 1986 1840 1544 1477 1507 1363 1031 955 1051 946 1715 1351 1348 802 631 429 233 208 92 80 33 48 54 12 0 1 0 1 5 0 0 0 0 0 0 0
16 0 429 1180 1916 2023 2107 1980 1960 1608 1322 1377 1285 1073 1119 1138 1154 1208 825 1025 775 471 533 338 126 72 38 55 27 24 13 3 0 4 0 0 0 0 0 0 0 0 0
146 45 201 2200 2136 1993 2003 2090 2026 1589 1468 1248 1097 983 1006 997 1125 1201 1111 1144 807 726 475 255 128 66 38 35 42 39 16 0 1 10 23 0 0 0 0 0 0 0 0

GFSSE_con_mucape_105.txt.gz
CAPE
786 1102 1308 1505 1589 1479 1356 1246 1229 1316 1508 1688 1729 1783 1862 1952 1964 1956 1986 1988 2077 2064 1830 1676 2033 2036 1753 1756 2050 1787 1744 1746 1752 1768 1725 1678 1521 1570 1503 1498 1385 1067 1442
829 1249 1332 1519 1636 1565 1476 1356 1362 1418 1553 1748 1808 1764 1765 1887 1984 2082 2123 2160 2213 2160 1666 1717 2089 1871 1666 1705 1764 1642 1699 1642 1589 1697 1742 1751 1576 1358 1418 1438 1334 1193 1376
1094 1263 1364 1589 1646 1620 1635 1582 1630 1668 1674 1725 1803 1824 1882 2007 2079 2096 2122 2164 2110 2122 1795 1743 1802 1833 1754 1763 1717 1719 1705 1590 1535 1647 1753 1213 1327 1309 1374 1431 1462 1380 1538
1205 1274 1378 1551 1657 1681 1641 1655 1755 1891 1782 1747 1825 1943 2025 2146 2178 2177 2106 2056 2157 2260 1901 1924 1893 1857 1781 1712 1619 1641 1611 1465 1368 1320 1081 1272 1506 1443 1417 1272 1323 1418 1406
1299 1333 1377 1517 1636 1671 1666 1713 1791 1844 1717 1711 1817 2073 2144 2251 2335 2296 2070 2095 2272 2329 1937 1625 1713 1741 1643 1413 1393 1366 1303 1133 1146 1129 1036 1169 1154 1282 1461 1385 1278 1239 1243
1399 1422 1479 1513 1604 1699 1787 1799 1826 1737 1606 1623 1787 2092 2238 2318 2395 2247 2054 2218 2377 2353 2036 1721 1536 1559 1272 1178 1254 1134 968 931 991 1036 857 1032 1276 1243 1288 1223 1044 1189 1259
1325 1397 1500 1574 1608 1733 1885 1899 1845 1699 1580 1628 1801 1975 2198 2280 2293 2103 2015 2248 2309 2217 2262 1907 1624 1272 1102 1076 1092 873 770 791 899 926 886 894 1089 1202 1199 1040 1017 1022 845
1238 1376 1532 1656 1689 1770 1853 1832 1804 1669 1615 1646 1774 1915 2194 2200 2040 1968 1857 1989 2097 2101 1829 1680 1289 1146 1017 1008 768 811 715 719 803 799 762 857 1069 1219 1102 751 803 790 584
1187 1288 1457 1606 1695 1776 1858 1767 1768 1686 1668 1690 1762 1835 2030 2048 1887 1873 1821 1844 1926 1921 1645 1369 1150 1050 1016 894 598 629 701 610 657 607 697 736 1216 1159 1030 612 453 301 122
1122 1221 1348 1557 1573 1621 1706 1768 1773 1754 1715 1699 1759 1786 1846 1904 1846 1796 1758 1709 1500 1435 1338 1273 1027 981 902 608 537 547 634 544 520 463 586 628 1067 1065 921 377 248 90 28
913 1101 1249 1439 1628 1574 1545 1685 1796 1849 1769 1765 1774 1827 1811 1721 1742 1747 1734 1685 1246 1386 1114 1030 883 775 728 499 450 476 494 423 400 443 473 510 1068 931 827 326 112 30 9
1121 981 1126 1313 1532 1436 1344 1630 1764 2119 1801 1651 1699 1820 1778 1681 1664 1593 1623 1619 1278 1213 951 911 808 678 684 471 364 480 498 406 366 398 362 515 680 792 664 264 64 18 11
1358 1043 1106 1210 1225 1234 1356 1475 1578 2064 1795 1507 1582 1627 1613 1741 1663 1534 1537 1440 1291 1100 816 701 594 481 487 463 331 360 371 315 307 337 311 391 578 899 346 184 71 16 15
1795 1504 1205 1134 1206 1245 1259 1285 1493 1675 1845 1505 1528 1201 1870 1717 1682 1546 1521 1363 1254 1073 792 536 337 236 308 246 281 138 199 157 143 126 174 295 405 961 560 148 12 0 12
1878 1956 1688 1523 1369 1285 1141 1021 1213 1350 1283 1161 1111 1492 1356 1709 1618 1540 1468 1377 1223 1033 879 654 464 267 237 122 162 233 96 119 76 83 90 202 317 630 736 139 23 11 10
888 2011 2113 1851 1684 1493 1214 1002 896 1001 1093 1142 1252 1832 1289 1783 1676 1566 1435 1333 1181 1031 905 742 638 430 251 213 167 124 100 65 58 66 63 103 241 401 439 289 40 11 18
0 1355 2230 2176 2048 1880 1680 1489 1277 908 1055 1237 1521 1388 1548 1824 1698 1595 1413 1297 1064 980 897 806 683 641 563 446 283 238 122 53 55 46 50 70 160 134 67 120 77 29 21
0 5 1953 2369 2270 2222 2080 1926 1731 1456 925 1071 1272 1263 1388 1818 1649 1399 1247 1192 1102 948 908 829 767 707 681 457 345 294 149 90 72 60 57 67 104 20 0 0 12 32 47
0 0 188 2418 2475 2447 2356 2261 2023 1802 1309 945 997 1106 1278 1518 1602 1360 1233 990 955 917 896 884 822 800 818 663 537 289 131 91 54 71 50 48 43 3 0 0 2 19 38
0 0 0 1458 2464 2566 2494 2302 2228 2021 1593 1492 1285 1109 1161 1338 1628 1499 1185 993 930 981 969 919 934 707 764 952 609 273 121 82 68 62 55 50 36 5 0 0 2 19 23
0 0 0 283 2208 2336 2417 2213 2201 2140 1887 1753 1631 1287 1249 1301 1605 1653 1378 1176 1055 1085 1036 979 885 637 557 696 440 155 99 44 27 37 59 50 41 35 16 1 0 2 6
0 0 0 87 1633 2147 2221 2226 2005 1948 1933 1690 1570 1583 1490 1402 1462 1666 1590 1449 1298 1226 1128 874 672 411 358 341 159 118 33 52 19 40 18 48 44 43 22 0 0 0 0
0 0 0 9 794 1890 2149 2079 2047 1729 1615 1653 1589 1734 1685 1639 1543 1613 1668 1427 1244 1599 1012 638 408 271 191 161 134 56 39 3 0 27 33 26 34 33 9 0 0 0 0
4 0 0 0 663 1611 2064 1923 1713 1545 1387 1570 1533 1680 1784 1717 1757 1542 1538 1392 1280 1247 1300 637 434 232 174 128 111 81 38 11 13 0 5 26 20 15 0 0 0 0 0
255 172 43 0 244 1348 1987 1898 1644 1498 1315 1314 1356 1493 1647 1628 1553 1389 1629 1365 1267 921 1065 807 531 296 172 144 58 35 76 44 38 0 0 0 3 1 9 0 0 0 0
335 204 156 574 743 1646 2049 1914 1605 1532 1418 1394 1258 1114 1267 1303 1303 1203 1169 1066 1000 1100 1037 596 501 576 214 197 45 19 30 32 10 3 17 1 2 3 10 0 0 0 0

GFSSE_con_mucape_108.txt.gz
CAPE
566 1049 1363 1576 1579 1413 1285 1290 1315 1364 1680 1897 1980 1905 1809 1840 1787 1842 1907 2002 2158 2133 1919 1807 2120 2060 2193 2075 1974 1881 1832 1819 1748 1892 1852 1831 1638 1566 1462 1658 1490 1228 1547
675 1164 1414 1610 1646 1536 1393 1348 1392 1490 1712 1952 1969 1981 1904 1887 1901 1950 1972 2068 2132 2155 1704 1804 2085 1914 1810 2163 1828 1749 1786 1546 1630 1752 1836 1780 1739 1630 1546 1452 1500 1511 1597
973 1204 1411 1628 1703 1639 1578 1526 1567 1722 1829 1905 1908 1949 1994 2055 2071 2076 2089 2119 2146 2076 1901 1771 1773 1628 1708 1756 1683 1772 1688 1625 1576 1642 1600 1284 1275 1479 1520 1637 1673 1683 1583
1193 1281 1447 1516 1772 1829 1683 1664 1687 1881 1894 1841 1927 1990 2066 2139 2168 2162 2095 1983 2107 2155 2117 1805 1811 1754 1676 1629 1636 1676 1639 1559 1470 1206 962 1219 1218 1478 1413 1409 1640 1638 1437
1245 1289 1504 1630 1740 1843 1805 1803 1769 1738 1701 1767 1865 2058 2176 2224 2259 2208 1980 2002 2211 2315 2186 1973 1897 1791 1533 1396 1424 1472 1378 1316 1281 953 1208 1366 1704 1262 1347 1439 1571 1511 1405
1331 1388 1607 1722 1770 1834 1893 1938 1876 1648 1528 1661 1847 2064 2270 2343 2344 2148 1964 2119 2310 2294 1678 1525 1833 1638 1217 1184 1186 1164 1222 1220 1096 819 1200 1129 1556 1308 1290 1312 1292 1205 1364
1442 1485 1629 1804 1821 1869 2019 2049 1913 1609 1507 1667 1889 2019 2223 2363 2316 2035 1990 2105 2170 2113 1807 1384 1750 1316 1115 1055 1031 1026 1051 1103 1018 824 858 929 1032 1292 1295 1107 1137 1335 1265
1458 1518 1576 1821 1830 1876 1977 1969 1826 1602 1560 1662 1879 1993 2189 2247 2098 1980 1849 2022 1948 1977 1707 1621 1334 1178 1060 944 823 826 867 959 946 754 694 792 1230 1290 1206 1052 1072 912 803
1437 1539 1576 1769 1838 1877 1918 1876 1787 1648 1631 1671 1809 2005 2073 2060 1959 1903 1901 1833 1829 1722 1551 1331 1121 1021 1012 741 643 637 730 816 889 799 731 734 1193 1220 1099 969 835 687 511
1388 1473 1706 1817 1818 1819 1813 1839 1800 1716 1667 1686 1724 1940 1985 1857 1856 1872 1797 1703 1539 1532 1407 1181 963 916 868 616 681 659 646 685 735 661 633 607 949 1260 1001 589 612 377 181
1252 1446 1652 1994 1909 1795 1779 1814 1816 1776 1758 1735 1724 1805 1911 1807 1747 1828 1749 1643 1502 1489 1245 1038 876 838 727 566 532 652 624 583 551 491 555 563 909 1122 916 510 266 192 52
1005 1290 1470 1854 1697 1537 1643 1761 1732 1770 1807 1763 1732 1752 1737 1751 1767 1745 1731 1670 1381 1278 1194 959 858 795 677 528 517 586 604 574 484 389 439 466 776 1025 783 433 230 100 32
1107 964 1289 1624 1632 1653 1506 1660 1894 1856 1970 1782 1738 1761 1662 1609 1694 1700 1695 1676 1339 1185 1084 968 819 729 683 512 464 459 506 505 429 402 386 451 704 1004 737 373 195 93 43
1777 1551 1018 1213 1376 1371 1312 1732 2291 2634 2118 1777 1772 1782 1896 1792 1575 1652 1592 1617 1360 1187 923 924 756 656 661 536 454 468 514 483 430 346 284 371 473 857 709 304 117 61 15
1298 1957 1821 1128 1371 1411 1379 1316 1536 2100 2106 1633 1630 1679 1737 1634 1464 1553 1553 1536 1438 1180 892 789 734 520 592 572 487 445 407 345 265 226 229 217 292 547 889 481 190 27 8
190 1216 2071 1984 1262 1237 1249 1234 1146 1376 1588 1737 1655 1620 1409 1407 1555 1800 1501 1522 1403 1218 1023 752 652 426 460 430 463 363 319 318 244 111 40 82 151 195 527 612 258 61 20
0 2 1561 2132 2170 1681 1195 1130 1148 1227 1420 1470 1097 1210 1158 1703 1791 1976 1487 1482 1386 1289 1081 881 658 536 482 291 290 342 404 309 331 74 43 57 67 81 304 236 315 168 30
0 0 0 1769 1855 2171 1873 1563 1158 1050 1067 881 754 913 1138 1362 1972 2127 1717 1435 1405 1290 1177 998 854 723 505 348 319 275 326 314 201 112 90 74 73 73 145 118 119 36 36
0 0 0 827 1913 1869 2150 2071 1538 1325 1139 1168 1051 1130 1118 1931 1815 1890 1725 1488 1332 1285 1153 1043 900 773 652 473 270 623 286 291 172 122 98 100 79 79 121 65 19 1 17
0 0 0 12 1576 1838 1920 2066 1923 1599 1458 1420 1287 1140 1193 1528 2032 2193 1506 1495 1363 1502 1078 1006 935 848 653 602 453 525 315 281 178 111 81 97 76 102 51 17 2 0 9
0 0 0 0 34 1798 1931 1773 1780 1749 1834 1652 1430 1052 1079 1241 1743 1825 1703 1341 1289 1222 1263 860 911 841 754 563 452 221 317 307 73 83 83 48 56 73 31 9 1 0 1
0 0 0 0 0 1172 1459 1867 1774 1763 1770 1485 1401 1334 976 1003 1184 1522 1588 1165 1204 1051 929 822 679 629 934 443 241 270 127 96 59 47 44 37 55 46 70 7 4 0 0
0 0 0 0 0 434 1397 1992 1913 1973 1673 1574 1491 1580 1466 1173 1058 1184 990 1082 1145 1030 986 863 725 593 873 317 150 135 77 70 12 10 32 29 32 47 49 30 13 0 0
0 0 0 2 0 459 1680 1923 1715 1621 1561 1260 1605 1702 1555 1430 1163 1044 1051 1087 1035 1117 1222 924 703 1101 590 301 80 181 139 11 2 0 0 25 12 7 31 35 40 2 0
4 63 40 17 79 0 1510 1757 1866 1722 1512 1288 1372 1592 1627 1618 1495 1480 1421 1347 1272 1303 1047 1113 901 1075 361 204 165 146 60 35 31 17 60 0 33 24 8 58 41 9 6
124 250 179 151 402 1 1394 1868 1889 1662 1493 1351 1335 1208 1932 1593 1487 1566 1625 1557 1437 1203 1165 1047 789 511 564 329 197 252 112 15 8 26 14 1 0 1 23 27 29 5 4

GFSSE_con_mucape_111.txt.gz
CAPE
712 1550 1461 1644 1542 1407 1338 1246 1451 1724 1972 2051 1816 1676 1735 1777 1738 1880 2050 2167 2191 2090 1898 1784 2142 2382 2087 1949 2134 2040 1815 1758 1858 1693 1659 1689 1549 1540 1566 1614 1480 1384 1690
971 1659 1484 1669 1650 1566 1504 1390 1504 1824 2096 2163 1869 1770 1760 1778 1798 1974 2072 2179 2155 2290 1795 1790 2110 2328 2185 1885 1866 1842 1723 1665 1679 1692 1723 1698 1586 1476 1524 1635 1535 1601 1704
1441 1723 1770 1650 1702 1672 1642 1603 1697 2061 2225 2231 2067 1930 1877 1895 1942 1965 2031 2112 2215 2224 2108 1836 1770 1867 2047 1840 1633 1693 1637 1603 1603 1629 1676 1508 1454 1570 1508 1715 1701 1668 1638
1644 1814 1927 1645 1716 1764 1738 1711 1806 2148 2215 2187 2171 2139 2098 2068 2079 2066 2029 2023 2100 2253 2269 1800 1737 1859 1780 1666 1612 1612 1610 1552 1491 1392 1539 1323 1249 1494 1489 1527 1587 1610 1538
1694 1809 1983 1697 1743 1829 1818 1839 1928 1984 2018 2065 2148 2274 2285 2280 2323 2219 1970 1991 2176 2381 2333 1911 1874 1759 1562 1430 1440 1477 1394 1335 1205 1083 1268 1279 1309 1317 1456 1504 1449 1430 1431
1742 1828 1693 1740 1796 1870 1917 1973 1985 1865 1801 1941 2104 2306 2404 2450 2459 2186 1952 2079 2354 2436 2506 2334 2085 1611 1290 1284 1275 1211 1228 1162 1008 1239 1154 1226 1185 1413 1378 1533 1497 1445 1455
1814 1961 1826 1807 1873 1945 2086 2084 1912 1708 1734 1849 2071 2210 2327 2459 2371 2071 2027 2167 2312 2276 1999 2182 1809 1359 1179 1162 1113 1103 1137 1123 1364 1153 1131 1057 1403 1439 1424 1207 1295 1319 1426
1944 2020 2080 1985 1947 1988 2087 2028 1739 1592 1702 1871 2022 2186 2351 2361 2170 2022 2060 2131 2098 1879 1557 1655 1423 1258 1129 1085 1041 1060 1086 1073 1165 1314 996 1064 1350 1420 1273 1122 1259 1249 1212
1873 2072 2115 1953 2125 2019 2066 1979 1702 1558 1678 1881 1960 2129 2326 2276 2075 2027 2052 2021 1968 1713 1607 1520 1262 1130 1088 978 952 940 1008 976 1427 1291 1013 878 1500 1412 1206 1100 1101 915 776
1560 2046 2082 1883 2412 2314 2413 1996 1734 1596 1628 1799 1939 2070 2207 2170 2055 1986 2007 1969 1945 1669 1530 1330 1112 1040 928 845 796 789 862 889 1509 1399 1309 1323 1185 1284 1236 899 1079 811 555
1466 1524 1734 1863 2233 2243 2441 2245 1888 1705 1623 1704 1865 1992 2144 2500 2463 2224 2120 1970 1891 1696 1374 1132 1012 978 833 705 624 657 703 1216 1476 1439 1397 817 948 1103 1065 874 874 537 241
1353 1544 1889 1928 2127 2095 2074 2174 2395 2226 2149 2120 2092 2229 2397 2403 2499 2277 2039 1831 1734 1616 1246 1009 932 947 888 1212 1055 653 1197 1267 1303 1314 1150 578 959 1094 1042 666 482 286 189
1348 1402 1390 1729 2158 2366 2058 2081 2080 2059 2177 2064 1956 2026 2160 2157 2367 2387 2397 2117 2167 1634 1765 1168 1172 1376 1392 1315 1347 1372 1339 1264 1227 1190 903 541 1026 1299 1025 532 262 156 62
1899 1541 1560 1462 1534 1884 2034 2081 1972 1972 1984 1965 2849 1922 1925 1846 1934 2087 2226 2309 2238 2049 2036 1726 1748 1552 1526 1262 1228 1244 1238 1279 1277 1040 544 449 614 1127 1053 620 290 118 23
1436 2108 1638 1632 1616 1333 1975 1978 1819 1620 1727 2457 2344 2361 2135 1893 1854 1788 1965 2104 2133 1915 1726 1724 1519 1488 1444 1213 1103 1133 1090 1143 1040 1031 1052 340 501 564 920 794 412 176 38
112 643 2262 1668 1691 1552 1307 1450 1782 1577 1630 2337 1984 2088 2132 2155 1941 1979 1718 1846 1896 1666 1471 1497 1346 1282 1325 1240 1143 1102 1060 1079 985 975 1045 724 203 227 471 698 560 228 56
233 93 406 2187 1785 1586 1673 1679 1461 1611 1542 1756 2033 2293 2130 2198 2003 1916 1553 1611 1566 1394 1236 1112 1150 1152 1273 1074 1185 1064 997 993 938 817 688 300 267 105 134 277 542 434 141
1 153 77 380 1946 1848 1894 1931 1905 1743 1878 1866 2032 2003 2238 2189 1944 1787 1609 1744 1485 1469 1357 1157 975 1009 1075 1023 1007 911 1001 908 857 783 464 340 205 80 34 47 132 205 160
0 0 0 0 1018 1965 2062 2016 1932 1813 1896 1990 1926 1965 1954 2042 1562 1572 1570 2200 1491 1413 1377 1277 1058 997 863 720 720 763 789 679 654 719 470 340 190 72 70 85 118 102 43
0 0 0 0 0 1469 2033 2281 2027 1922 1862 1826 1728 1477 1436 1477 1157 1803 1610 1807 1890 1327 1315 1262 1211 1058 915 866 544 673 693 457 848 656 396 284 223 78 100 87 79 119 7
0 0 0 0 0 123 1345 1759 1638 1378 1747 1761 1484 1510 1354 1243 1209 1662 1609 1506 2067 1342 1173 1139 1111 1136 1065 806 597 309 322 462 406 408 414 272 169 74 61 72 90 118 21
0 0 0 0 0 0 587 1523 1716 1613 1571 1760 1602 1333 1227 1198 1256 1236 1551 1099 1846 1494 1051 909 1066 957 990 804 324 309 296 341 496 536 466 245 206 91 50 31 64 43 60
0 0 0 0 0 0 0 890 2009 2103 2166 1504 1365 1420 1463 1461 1262 1178 1296 1330 1695 1568 1009 983 911 838 693 521 505 284 185 174 109 189 142 98 47 61 45 49 31 40 39
0 0 0 0 0 0 0 93 1733 1766 1554 1406 1604 1617 1435 1435 1489 1042 1117 1530 1482 1379 957 754 721 779 525 387 202 351 416 135 168 25 22 30 89 24 15 28 36 36 9
0 0 0 0 0 0 0 110 1844 2052 1983 1902 2153 2051 1551 1424 1765 1160 1128 1093 1400 1189 746 768 709 721 658 401 225 261 287 192 46 50 39 8 0 29 34 26 20 1 23
5 5 3 0 14 0 144 154 1715 2196 2060 2175 2203 1816 1829 1488 1446 1408 1203 1096 1291 1211 679 709 825 896 643 461 555 438 222 179 27 47 34 11 30 2 8 16 15 4 24

GFSSE_con_mucape_114.txt.gz
CAPE
1312 2263 1528 1657 1695 1649 1626 1776 1817 1806 1867 1955 1867 1857 1905 1900 1914 2118 2215 2185 2336 2502 2334 2118 2110 1940 1570 1654 2057 1976 1941 1896 1840 1860 1761 1635 1578 1574 1563 1681 1431 1326 1790
1247 2419 1527 1652 1708 1755 1716 1813 1908 2065 2196 2109 1948 1954 1951 1925 2004 2174 2266 2343 2279 2501 2144 1926 2333 2014 1974 2247 2144 1863 1873 1726 1621 1670 1758 1620 1627 1573 1447 1436 1408 1570 1749
1591 2342 1976 1591 1717 1821 1863 1972 2154 2366 2468 2249 2087 2104 2070 2061 2166 2248 2253 2275 2400 2458 2099 1843 2184 2044 1923 2001 1855 1821 1834 1666 1570 1648 1697 1303 1523 1512 1459 1617 1601 1626 1741
1803 2192 2046 1568 1696 1845 1870 2016 2284 2572 2562 2300 2221 2221 2192 2204 2312 2314 2281 2258 2451 2528 2309 1771 1919 2306 1953 1739 1707 1701 1693 1590 1461 1501 1513 1285 1420 1400 1545 1436 1494 1621 1568
1956 2142 2251 1652 1685 1820 1873 2024 2300 2443 2367 2328 2264 2372 2378 2374 2422 2408 2220 2231 2491 2656 2466 1976 2091 2028 1715 1520 1551 1574 1563 1402 1335 1347 1313 1444 1343 1375 1417 1468 1531 1501 1433
2098 2257 2177 1680 1711 1872 1928 2052 2225 2258 2267 2246 2286 2460 2506 2554 2557 2399 2142 2323 2617 2654 2627 2500 2115 1765 1432 1365 1425 1391 1282 1184 1009 1285 1401 1292 1200 1402 1506 1583 1375 1518 1489
2173 2364 2547 1730 1777 1912 2045 2125 2076 2085 2219 2296 2374 2439 2523 2629 2560 2254 2126 2349 2557 2644 2615 2467 1936 1520 1366 1305 1324 1231 1195 1075 1386 1147 1210 1423 1430 1446 1294 1308 1247 1506 1514
2403 2587 2687 1826 1860 1948 2048 2008 1827 1884 2116 2287 2387 2421 2562 2552 2333 2162 2168 2339 2419 2465 2273 2024 1593 1442 1321 1250 1207 1191 1121 987 1128 1157 1211 1233 1340 1422 1334 1113 1224 1179 1399
2632 2757 2788 2267 2213 1990 2022 1881 1719 1725 1884 2106 2258 2397 2498 2396 2190 2140 2229 2273 2240 1842 1724 1736 1461 1328 1312 1178 1127 1128 1108 1051 1242 1358 1055 1050 1294 1287 1294 1188 1147 1327 1287
2619 2903 3027 2444 2557 2628 2525 1906 1701 1648 1763 1907 2103 2317 2416 2305 2138 2113 2190 2176 2075 1807 1747 1617 1339 1259 1221 1120 1096 1117 1111 1035 1456 1079 1153 1216 1421 1331 1228 1033 1198 1112 1027
2384 2504 2689 2451 2313 2742 2841 2441 1793 1640 1712 1849 1954 2150 2426 2546 2629 2546 2170 2097 2063 1855 1700 1491 1277 1226 1142 1035 1003 1001 1046 1302 1231 1116 1157 1016 1106 1186 1101 1123 1099 835 651
2364 2501 2221 2246 2169 2469 2627 2842 2686 2444 2249 2224 2170 2419 2474 2464 2533 2385 2182 2117 2027 1870 1615 1306 1209 1162 1100 1437 1271 837 1373 985 1087 1050 1237 860 1184 1187 1094 1016 1021 627 466
1341 2352 2314 2120 2204 2366 2689 2513 2657 2598 2571 2578 2605 2597 2441 2465 2631 2666 2543 2462 2533 1921 2231 1341 1544 1643 1404 1303 1255 1316 1148 1257 1069 1019 934 660 1124 1255 1029 777 701 482 273
339 1860 2258 2396 2291 2544 2591 2129 2262 2800 2531 2554 2658 2807 2628 2836 2751 2579 2641 2482 2423 2621 2277 1940 1740 1606 1564 1452 1387 1380 1337 1248 859 1160 1131 632 623 1201 1192 939 594 403 218
51 619 1990 2276 2323 2355 2440 2241 2096 2521 2493 2653 2554 2439 2728 2719 2543 2568 2481 2430 2495 2308 2415 2149 1904 1815 1691 1496 1477 1455 1404 1308 1083 1231 1227 537 552 621 1117 837 651 358 149
0 308 560 1534 2302 2305 2352 2428 2460 2590 2410 2443 2257 2296 2573 2575 2482 2285 2465 2528 2470 2296 2431 2352 2078 1988 1825 1679 1483 1320 1297 1298 1165 1089 1056 1023 406 515 838 1019 768 512 221
0 21 287 703 1326 2469 2389 2354 2348 2290 2245 2202 2078 2594 2360 2354 2542 2189 2294 2433 2311 2689 2312 2429 2037 1820 1620 1714 1563 1365 1443 1263 1095 952 1075 961 564 334 492 464 646 357 366
0 0 26 105 413 1685 2430 2347 2187 2146 2187 2114 2148 2599 2879 2267 2537 2299 2187 2299 2537 2754 2474 2267 2019 1897 1804 1644 1591 1328 1241 1173 1098 1031 949 858 686 694 246 197 137 148 257
0 0 0 0 58 567 1766 2401 2609 2376 2259 2178 2195 2348 2577 2823 2988 2712 2370 2132 2353 2114 2322 2163 2075 2011 1745 1479 1401 1327 1409 1127 1101 917 875 850 730 501 409 105 68 35 116
0 0 0 0 0 0 718 1872 1937 2327 2551 2321 2291 2373 2554 2903 2801 2965 2313 2348 2242 1924 2095 2204 2127 1866 1893 1596 1393 1315 1316 1255 1166 1054 990 866 922 739 333 327 193 103 96
0 0 0 0 0 0 2 418 1027 1966 2146 2408 2536 2476 2492 2808 2845 2713 2137 2142 1648 1507 1875 1798 1770 1897 2024 1818 1508 1313 1321 1031 1018 937 864 846 949 662 366 232 172 149 55
0 0 0 0 0 0 0 0 717 1271 1652 1799 2369 2797 2635 2448 2498 2679 2377 2082 1607 1458 1664 1665 1345 1291 1231 1342 936 852 844 899 905 921 892 758 795 677 208 143 89 106 98
0 0 0 0 0 0 0 0 0 884 1395 1691 2279 2877 2917 2396 2394 2727 2262 1877 1488 1464 1079 1783 1417 1117 1175 953 1455 919 878 572 522 762 860 760 785 588 130 85 33 68 96
0 0 0 0 0 0 0 0 0 22 954 1568 1771 2152 2554 2809 2464 2280 2097 1896 1498 1377 1110 1403 1427 1342 1165 875 709 1258 903 618 481 425 448 504 735 533 124 50 45 18 75
0 0 0 0 0 0 0 6 5 5 1126 1322 2036 1943 2164 2276 1977 1910 1872 1934 1485 1509 1134 1202 1548 1305 1114 937 579 724 1111 969 639 456 553 497 211 469 510 94 22 28 18
0 0 0 0 0 0 0 0 15 199 482 1442 1657 2146 2386 2306 1652 1576 1512 1685 1525 1371 1116 1024 1375 1176 1165 957 636 1268 959 830 793 484 407 305 347 270 189 107 33 10 2

GFSSE_con_mucape_117.txt.gz
CAPE
944 2048 1569 1744 1881 1893 2008 2052 2049 1926 1935 2034 2018 1998 2094 2116 2154 2220 2322 2345 2508 2727 2493 2109 2116 1970 1536 1336 1713 1832 1861 1891 1948 1908 1879 1777 1615 1609 1381 1574 1459 1271 1648
948 2331 1409 1708 1905 1970 2108 2104 2043 1978 2151 2195 2122 2134 2138 2153 2257 2363 2403 2480 2669 2819 2392 2343 2135 1793 1763 2193 2153 2040 1974 1787 1684 1788 1778 1727 1611 1546 1385 1364 1455 1423 1690
1228 2848 1874 1583 1872 2002 2237 2285 2269 2301 2396 2321 2246 2276 2239 2263 2411 2474 2449 2491 2668 2757 2196 2142 2047 2038 2128 2423 1942 2015 1863 1689 1662 1739 1834 1384 1367 1521 1503 1452 1536 1666 1599
1661 2779 2165 1540 1822 1995 2193 2368 2448 2645 2549 2381 2351 2418 2368 2411 2514 2530 2479 2419 2483 2728 2183 2266 2170 2216 2116 1976 1860 1902 1796 1682 1568 1616 1541 1455 1281 1522 1525 1490 1549 1567 1651
1944 2521 2527 1567 1736 1971 2160 2400 2566 2680 2466 2339 2381 2527 2528 2577 2661 2624 2416 2463 2736 2811 2309 2027 2552 2238 1848 1699 1692 1725 1703 1525 1428 1336 1260 1458 1357 1552 1515 1490 1266 1375 1498
2145 2321 2264 1535 1671 1929 2160 2433 2573 2543 2391 2299 2342 2546 2628 2711 2737 2619 2353 2513 2849 2927 2670 2616 2448 1974 1558 1526 1577 1587 1479 1412 1239 1428 1408 1308 1284 1507 1545 1395 1416 1572 1587
2208 2528 2616 1620 1664 1893 2178 2429 2441 2436 2380 2329 2408 2503 2599 2700 2741 2452 2296 2507 2799 2867 2833 2668 2148 1662 1477 1459 1491 1381 1287 1219 1511 1147 1109 1228 1470 1642 1338 1413 1539 1363 1531
2412 2650 3169 1978 1720 1835 2022 2160 2180 2305 2360 2384 2445 2500 2657 2630 2502 2298 2280 2430 2624 2676 2582 2197 1701 1562 1463 1417 1321 1262 1202 1088 1318 1207 1098 1184 1453 1419 1258 1357 1043 1314 1518
2851 2812 3397 2546 2114 1825 1845 1876 1983 2141 2308 2410 2502 2500 2612 2507 2280 2197 2260 2389 2499 2480 2269 1875 1564 1443 1424 1309 1218 1199 1121 1005 1365 1082 1036 1158 1419 1387 1362 1326 1249 1437 1428
2854 3149 3491 2851 2595 2324 2047 1708 1742 1972 2194 2365 2409 2457 2495 2412 2202 2161 2216 2307 2390 2193 1903 1715 1435 1355 1318 1171 1160 1148 1094 1023 1492 1141 868 1241 1498 1294 1370 1245 1330 1274 1317
2554 2921 3494 2957 2914 2769 2483 2092 1624 1652 1920 2157 2279 2391 2585 2811 2740 2597 2267 2173 2197 1908 1732 1625 1348 1273 1227 1119 1099 1088 1092 1112 772 1087 698 1035 1556 1358 1286 1491 1431 1358 1218
861 2686 2974 3027 2885 3307 2707 2884 2251 2084 1969 2190 2337 2729 2805 2541 2793 2264 2113 2096 2067 1934 1763 1595 1337 1232 1189 1456 1299 1029 1418 1086 821 993 1021 1114 1567 1289 1155 1019 1178 1160 952
21 2363 2766 2758 2790 2772 3138 2997 2638 2563 2356 2370 2415 2530 2487 2666 2996 2477 2826 2498 2632 1956 2327 1639 1470 1543 1418 1349 1188 1168 1063 1260 981 812 950 943 1441 1314 1094 917 892 806 750
0 1051 2731 2945 2821 2771 3270 2801 2675 2635 2885 2722 2789 3570 3238 3053 3217 3029 2622 2647 2885 2622 2420 2170 1827 1628 1891 1876 1750 1352 1298 1464 1252 1288 979 721 1111 1478 1245 943 833 651 532
0 0 1451 2674 2978 3147 3142 2937 2974 3083 2618 2739 2788 3407 3052 2690 3409 3085 2640 2839 2659 2444 2615 2446 2015 2019 1847 1590 1606 1582 1535 1563 1529 1012 1666 712 700 1007 1343 1109 944 750 557
0 0 0 443 2597 2774 3033 3241 3346 3254 2991 3000 2835 2857 3681 3185 3085 2810 2952 2377 2743 2415 2259 2590 2256 1946 1987 1850 1785 1580 1681 1287 1441 1431 1463 996 562 604 933 1271 1144 901 608
0 0 0 0 178 1603 2427 2751 3064 2695 2821 2853 2768 3450 2853 3489 3633 3192 2879 2748 2107 2431 2847 2951 2731 2314 2031 2123 1889 1767 1535 1446 1597 1444 1139 1162 583 488 524 679 797 673 631
0 0 0 0 0 248 1061 1990 2611 2745 2985 2775 2904 2637 3073 2752 3241 3215 2715 3007 2712 2712 2870 2756 2676 2499 1973 1879 1926 1930 1703 1628 1581 1472 1008 1235 890 816 411 471 536 384 64
0 0 0 0 0 0 179 1207 2219 2814 2946 2707 2604 2666 2996 2976 3326 3332 2688 2674 3336 2886 2981 2653 2417 2492 2456 2143 1978 1827 1844 1652 1582 1095 1036 1348 1015 681 601 389 401 90 123
0 0 0 0 0 0 0 79 997 1932 2522 2923 2850 2550 2824 3463 3365 3232 2724 2889 2795 2962 3075 3059 2725 2457 2255 2153 1584 1680 2016 1674 1519 1266 1172 1019 748 1072 650 631 231 99 24
0 0 0 0 0 0 0 0 28 1726 2151 2723 2842 3081 2670 3117 3639 3445 3256 3283 2958 2627 2542 2862 2854 2725 2311 2398 2090 1990 1845 1783 1690 1395 1190 771 767 851 960 852 619 258 15
0 0 0 0 0 0 0 0 0 6 1150 2272 2677 2866 3300 3430 3579 3685 3612 3331 3288 2558 1960 2264 2293 2681 2851 2767 2046 1705 1104 1202 1323 1376 1033 890 1004 821 854 997 721 409 343
0 0 0 0 0 0 1 0 0 16 7 1520 2343 2586 2998 3395 3607 3733 3706 3466 3281 2871 2504 2089 1995 2117 1920 2488 2513 1307 1008 706 913 1236 1357 1106 1099 1018 900 832 595 452 223
0 0 0 0 0 0 2 1 0 0 0 443 2095 2392 2405 3257 3482 3752 3819 3675 3328 2804 2337 1849 1648 1634 1782 1564 1752 1935 1703 920 725 678 1025 1175 1120 1123 1059 942 537 212 123
0 0 0 0 0 0 0 0 6 3 2 93 263 2328 2482 2879 3082 3572 3621 3550 3257 2749 2431 2107 1624 1518 1542 1537 1213 1726 2154 1926 1668 1030 979 625 655 652 737 960 696 267 103
0 0 0 0 0 0 0 0 0 0 6 16 302 1102 1993 2406 2679 3433 3226 3151 2824 2431 2396 2347 1838 1414 1469 1215 1289 1267 1356 1561 1463 1051 885 970 733 697 484 675 638 335 129

GFSSE_con_mucape_123.txt.gz
CAPE
1565 1530 1776 2038 2198 2178 1861 1686 1708 1760 1861 1924 1959 2035 2028 2089 2120 2059 2237 2409 2630 2647 2176 1854 2111 1896 1683 1780 1744 1471 1446 1583 1582 1830 1884 1872 1506 1416 1606 1805 1543 1420 1650
1702 1499 1733 1945 2131 2262 2193 1823 1774 1897 2054 2104 2091 2034 1996 2058 2172 2226 2296 2439 2583 2853 2433 2216 2133 1789 1657 1914 1831 1775 1652 1570 1488 1521 1663 1671 1742 1470 1668 1670 1570 1579 1659
1854 1611 1749 1861 2105 2262 2390 2119 2044 2174 2288 2232 2188 2088 2129 2188 2257 2265 2285 2429 2722 2833 2484 2284 2123 1832 2160 1888 1735 1756 1663 1584 1626 1633 1576 1219 1446 1755 1767 1481 1573 1804 1648
2163 1965 1763 1779 2052 2221 2292 2266 2204 2417 2475 2309 2290 2240 2275 2336 2333 2296 2215 2304 2701 2878 2679 2458 2137 2318 2458 1722 1714 1662 1620 1518 1426 1578 1096 1133 1267 1691 1654 1690 1580 1849 1707
2508 2680 2376 1871 1937 2163 2241 2302 2278 2419 2328 2282 2314 2424 2485 2536 2541 2452 2176 2283 2737 2764 2663 2440 2540 2443 1948 1602 1663 1586 1550 1434 1254 1214 1147 1229 1294 1600 1584 1703 1762 1853 1602
2676 3010 2540 2084 1857 2135 2268 2354 2377 2368 2194 2175 2289 2471 2648 2722 2707 2437 2162 2406 2774 2740 2712 2909 2726 1928 1541 1503 1599 1572 1365 1374 1082 1019 1011 1307 1243 1611 1572 1711 1613 1635 1668
2759 2861 2461 2069 1815 2114 2356 2451 2491 2360 2159 2161 2306 2403 2558 2723 2678 2274 2177 2462 2724 2651 2698 2657 2123 1548 1399 1409 1534 1512 1367 1182 739 112 518 1209 1188 1803 1545 1626 1731 1625 1533
2858 2737 2468 2219 1806 2035 2331 2453 2469 2303 2123 2141 2266 2348 2491 2548 2433 2190 2196 2395 2595 2537 2560 2188 1815 1436 1343 1367 1457 1420 1335 1021 358 18 500 1014 1325 1827 1571 1642 1244 1141 1336
3089 3236 2755 2663 2334 1852 2161 2342 2340 2254 2149 2116 2213 2316 2410 2403 2312 2181 2236 2322 2411 2432 2322 1972 1561 1405 1352 1370 1361 1296 1222 1070 793 541 647 795 1494 1807 1557 1385 1418 1347 1348
2653 3274 3054 2776 2625 2098 1871 2134 2244 2248 2208 2163 2190 2246 2335 2292 2191 2134 2186 2290 2324 2299 2154 1830 1421 1368 1337 1277 1222 1158 1108 984 818 714 864 879 1525 1774 1453 1566 1526 1373 1357
2405 2984 3107 3070 2646 2156 1556 1752 1964 2122 2206 2183 2186 2232 2324 2179 2086 2041 2086 2209 2214 2193 2082 1770 1324 1308 1273 1201 1125 1081 1013 861 853 789 412 1066 1430 1778 1583 1864 1674 1500 1373
1159 2682 3197 3018 2542 2189 1752 1548 1631 1817 2027 2130 2196 2161 2236 2102 2011 2001 1993 2116 2161 2060 1995 1775 1380 1247 1219 1100 1052 1056 960 854 920 766 701 926 1571 1933 1611 1536 1605 1483 1285
0 2711 2892 2962 2734 2362 2007 1733 1359 1520 1725 1989 2223 2165 2156 2116 2041 2037 1908 1996 2026 1972 1811 1659 1449 1251 1218 1197 1075 997 925 906 978 864 703 948 1470 2055 1687 1509 1403 1358 1126
0 0 2854 2700 2596 2174 2520 2409 2061 1429 1491 1784 2176 2230 2185 2232 2470 2103 2100 1921 1981 1867 1756 1687 1574 1298 1242 1231 1303 1091 975 761 906 798 682 980 1250 1865 1796 1356 1363 1283 838
0 0 2189 2526 2305 2204 2003 1986 2205 2340 1868 1551 1826 2287 2213 2452 2435 2550 2150 2061 1856 1849 1783 1735 1633 1437 1288 1221 1306 1263 1000 805 866 891 872 1051 1250 1421 1876 1412 1303 1220 880
0 0 0 0 554 1656 1736 1339 1583 1840 2014 1741 1589 1799 2452 2074 2342 2233 1924 2065 1936 1832 1755 1852 1794 1556 1160 1203 1345 1283 1047 901 1103 945 831 933 1192 1377 1672 1775 1606 1251 866
0 0 0 0 0 6 16 169 930 1073 1335 1497 1776 1816 1991 2286 1855 2279 2262 1988 2034 1880 1869 1779 1864 1742 1362 1200 1441 1387 1213 1162 1067 1129 921 763 795 1095 1353 1510 1481 1447 1285
0 0 0 0 0 0 0 0 0 678 834 1060 1056 1734 2168 2158 2358 1952 2408 2026 2270 1890 1915 1871 1754 1892 1779 1474 1458 1441 1308 1308 1282 1268 1055 899 763 762 977 1267 1252 1135 1098
0 0 0 0 0 0 0 0 0 0 173 791 1025 1289 1484 1675 1984 2343 2252 2285 1989 2294 2004 1980 1873 1859 1830 1614 1528 1173 1283 1372 1296 1311 1224 1050 856 751 650 606 877 948 820
0 0 0 0 0 0 0 0 0 0 0 122 698 1006 1201 1412 1743 1764 2408 2424 2366 2376 2308 2090 1968 1892 1839 1712 1525 1504 1381 1398 1457 1358 1288 1053 901 870 779 506 531 595 543
0 0 0 0 0 0 0 0 0 0 0 60 190 486 1073 1184 1452 1894 1762 2311 2266 1983 2290 2050 2002 1787 1860 1867 1625 1541 1383 1477 1524 1410 1272 1109 932 925 892 567 396 429 454
0 0 0 0 0 0 0 0 0 0 0 0 127 105 769 914 1445 1621 1355 1480 2235 2002 1751 2184 2038 1867 1785 1913 1670 1470 1574 1603 1568 1395 1255 1098 1064 809 800 629 416 302 324
0 0 0 0 0 0 0 0 0 0 0 0 0 2 476 561 685 1475 1400 1330 1647 2093 2100 1561 2202 2149 1775 1803 1591 1343 1274 1128 1225 1318 1308 1141 1050 786 810 779 411 318 282
0 0 0 0 0 0 0 0 0 0 0 0 0 0 27 319 562 570 1360 1545 1364 1640 2111 1790 1837 2244 1827 1499 1509 1237 871 693 740 808 1168 1132 1105 758 874 948 502 422 398
0 0 0 0 0 0 0 0 0 0 0 0 0 0 0 54 294 671 782 1218 1670 1514 1928 1631 1544 1905 1967 1418 1417 1319 1170 855 547 714 950 970 945 874 807 671 534 486 440
0 0 0 0 0 0 0 0 0 0 0 0 0 0 0 0 225 399 998 811 1154 1633 1658 1746 1614 1309 1354 1190 1350 1387 1349 1130 818 853 757 868 851 873 874 732 592 508 490